| time (UTC) | temp C | wind direction | speed KPH | gust KPH | rain 1hr cm | rain 24hr cm | rain mn cm | humidity % | barometer mb |
| 20260507202533 | 12 | 0 | 3.2 | 6.4 | 0.00 | 0.00 | 0.00 | 82 | 1017.5 |
| 20260507202433 | 12 | 0 | 4.8 | 6.4 | 0.00 | 0.00 | 0.00 | 82 | 1017.5 |
| 20260507202333 | 12 | 0 | 4.8 | 6.4 | 0.00 | 0.00 | 0.00 | 82 | 1017.5 |
| 20260507202234 | 12 | 0 | 3.2 | 6.4 | 0.00 | 0.00 | 0.00 | 82 | 1017.5 |
| 20260507202135 | 12 | 0 | 3.2 | 6.4 | 0.00 | 0.00 | 0.00 | 82 | 1017.4 |
| 20260507202034 | 12 | 0 | 3.2 | 6.4 | 0.00 | 0.00 | 0.00 | 82 | 1017.5 |
| 20260507201933 | 12 | 0 | 3.2 | 6.4 | 0.00 | 0.00 | 0.00 | 82 | 1017.4 |
| 20260507201830 | 12 | 0 | 3.2 | 6.4 | 0.00 | 0.00 | 0.00 | 82 | 1017.4 |
| 20260507201731 | 12 | 0 | 3.2 | 6.4 | 0.00 | 0.00 | 0.00 | 82 | 1017.4 |
| 20260507201631 | 12 | 0 | 3.2 | 6.4 | 0.00 | 0.00 | 0.00 | 82 | 1017.5 |
| 20260507201531 | 12 | 0 | 3.2 | 6.4 | 0.00 | 0.00 | 0.00 | 82 | 1017.4 |
| 20260507201429 | 12 | 0 | 3.2 | 6.4 | 0.00 | 0.00 | 0.00 | 82 | 1017.4 |
| 20260507201330 | 12 | 0 | 3.2 | 6.4 | 0.00 | 0.00 | 0.00 | 82 | 1017.3 |
| 20260507201229 | 12 | 0 | 3.2 | 8.0 | 0.00 | 0.00 | 0.00 | 82 | 1017.4 |
| 20260507201127 | 12 | 0 | 3.2 | 8.0 | 0.00 | 0.00 | 0.00 | 82 | 1017.3 |
| 20260507201026 | 12 | 0 | 3.2 | 8.0 | 0.00 | 0.00 | 0.00 | 81 | 1017.3 |
| 20260507200924 | 12 | 0 | 3.2 | 8.0 | 0.00 | 0.00 | 0.00 | 81 | 1017.3 |
| 20260507200822 | 12 | 0 | 3.2 | 8.0 | 0.00 | 0.00 | 0.00 | 81 | 1017.3 |
| 20260507200721 | 12 | 0 | 4.8 | 8.0 | 0.00 | 0.00 | 0.00 | 81 | 1017.3 |
| 20260507200621 | 12 | 8 | 3.2 | 8.0 | 0.00 | 0.00 | 0.00 | 81 | 1017.2 |
| 20260507200521 | 12 | 0 | 3.2 | 8.0 | 0.00 | 0.00 | 0.00 | 81 | 1017.3 |
| 20260507200420 | 12 | 0 | 3.2 | 8.0 | 0.00 | 0.00 | 0.00 | 81 | 1017.3 |
| 20260507200320 | 12 | 0 | 4.8 | 8.0 | 0.00 | 0.00 | 0.00 | 81 | 1017.3 |
| 20260507200218 | 12 | 0 | 4.8 | 8.0 | 0.00 | 0.00 | 0.00 | 81 | 1017.2 |
| 20260507200120 | 12 | 0 | 3.2 | 6.4 | 0.00 | 0.00 | 0.00 | 81 | 1017.3 |
| 20260507200018 | 12 | 0 | 3.2 | 6.4 | 0.00 | 0.00 | 0.00 | 81 | 1017.2 |
| 20260507195919 | 12 | 0 | 3.2 | 6.4 | 0.00 | 0.00 | 0.00 | 81 | 1017.3 |
| 20260507195818 | 12 | 0 | 3.2 | 6.4 | 0.00 | 0.00 | 0.00 | 81 | 1017.2 |
| 20260507195717 | 12 | 0 | 3.2 | 6.4 | 0.00 | 0.00 | 0.00 | 81 | 1017.2 |
| 20260507195617 | 12 | 0 | 3.2 | 6.4 | 0.00 | 0.00 | 0.00 | 81 | 1017.2 |
| 20260507195517 | 12 | 0 | 3.2 | 6.4 | 0.00 | 0.00 | 0.00 | 81 | 1017.2 |
| 20260507195414 | 12 | 0 | 3.2 | 6.4 | 0.00 | 0.00 | 0.00 | 81 | 1017.2 |
| 20260507195312 | 12 | 0 | 3.2 | 6.4 | 0.00 | 0.00 | 0.00 | 81 | 1017.3 |
| 20260507195213 | 12 | 0 | 1.6 | 6.4 | 0.00 | 0.00 | 0.00 | 81 | 1017.2 |
| 20260507195113 | 12 | 0 | 3.2 | 6.4 | 0.00 | 0.00 | 0.00 | 81 | 1017.2 |
| 20260507195011 | 12 | 0 | 3.2 | 6.4 | 0.00 | 0.00 | 0.00 | 80 | 1017.1 |
| 20260507194910 | 12 | 0 | 3.2 | 6.4 | 0.00 | 0.00 | 0.00 | 80 | 1017.3 |
| 20260507194810 | 12 | 0 | 4.8 | 6.4 | 0.00 | 0.00 | 0.00 | 80 | 1017.2 |
| 20260507194710 | 12 | 0 | 3.2 | 6.4 | 0.00 | 0.00 | 0.00 | 80 | 1017.2 |
| 20260507194608 | 12 | 0 | 3.2 | 6.4 | 0.00 | 0.00 | 0.00 | 80 | 1017.2 |
| 20260507194510 | 12 | 0 | 3.2 | 6.4 | 0.00 | 0.00 | 0.00 | 80 | 1017.1 |
| 20260507194410 | 12 | 0 | 3.2 | 6.4 | 0.00 | 0.00 | 0.00 | 80 | 1017.2 |
| 20260507194309 | 12 | 0 | 3.2 | 6.4 | 0.00 | 0.00 | 0.00 | 80 | 1017.2 |
| 20260507194208 | 12 | 0 | 3.2 | 4.8 | 0.00 | 0.00 | 0.00 | 80 | 1017.2 |
| 20260507194106 | 12 | 0 | 3.2 | 6.4 | 0.00 | 0.00 | 0.00 | 80 | 1017.2 |
| 20260507194007 | 12 | 0 | 3.2 | 6.4 | 0.00 | 0.00 | 0.00 | 80 | 1017.1 |
| 20260507193905 | 12 | 0 | 3.2 | 6.4 | 0.00 | 0.00 | 0.00 | 80 | 1017.1 |
| 20260507193806 | 12 | 0 | 3.2 | 6.4 | 0.00 | 0.00 | 0.00 | 80 | 1017.2 |
| 20260507193704 | 12 | 0 | 3.2 | 6.4 | 0.00 | 0.00 | 0.00 | 80 | 1017.1 |
| 20260507193604 | 12 | 0 | 3.2 | 8.0 | 0.00 | 0.00 | 0.00 | 80 | 1017.1 |
| 20260507193505 | 12 | 0 | 3.2 | 9.7 | 0.00 | 0.00 | 0.00 | 80 | 1017.1 |
| 20260507193402 | 12 | 0 | 3.2 | 9.7 | 0.00 | 0.00 | 0.00 | 80 | 1017.1 |
| 20260507193302 | 12 | 0 | 3.2 | 9.7 | 0.00 | 0.00 | 0.00 | 80 | 1017.1 |
| 20260507193202 | 12 | 0 | 3.2 | 9.7 | 0.00 | 0.00 | 0.00 | 80 | 1017.0 |
| 20260507193101 | 12 | 0 | 3.2 | 9.7 | 0.00 | 0.00 | 0.00 | 80 | 1017.1 |
| 20260507193002 | 12 | 0 | 4.8 | 9.7 | 0.00 | 0.00 | 0.00 | 80 | 1017.1 |
| 20260507192901 | 12 | 0 | 4.8 | 9.7 | 0.00 | 0.00 | 0.00 | 80 | 1017.1 |
| 20260507192802 | 12 | 0 | 3.2 | 9.7 | 0.00 | 0.00 | 0.00 | 80 | 1017.0 |
| 20260507192701 | 12 | 0 | 4.8 | 9.7 | 0.00 | 0.00 | 0.00 | 80 | 1017.0 |
| 20260507192600 | 12 | 0 | 3.2 | 9.7 | 0.00 | 0.00 | 0.00 | 80 | 1017.0 |
| 20260507192502 | 12 | 1 | 3.2 | 9.7 | 0.00 | 0.00 | 0.00 | 80 | 1017.0 |
| 20260507192402 | 12 | 0 | 4.8 | 9.7 | 0.00 | 0.00 | 0.00 | 80 | 1017.0 |
| 20260507192301 | 12 | 0 | 6.4 | 9.7 | 0.00 | 0.00 | 0.00 | 80 | 1017.0 |
| 20260507192201 | 12 | 0 | 4.8 | 9.7 | 0.00 | 0.00 | 0.00 | 80 | 1017.0 |
| 20260507192100 | 12 | 0 | 3.2 | 9.7 | 0.00 | 0.00 | 0.00 | 80 | 1017.0 |
| 20260507192002 | 12 | 14 | 3.2 | 8.0 | 0.00 | 0.00 | 0.00 | 80 | 1017.0 |
| 20260507191901 | 12 | 16 | 3.2 | 8.0 | 0.00 | 0.00 | 0.00 | 80 | 1017.0 |
| 20260507191802 | 12 | 16 | 3.2 | 8.0 | 0.00 | 0.00 | 0.00 | 80 | 1017.0 |
| 20260507191702 | 12 | 357 | 3.2 | 6.4 | 0.00 | 0.00 | 0.00 | 80 | 1017.0 |
| 20260507191604 | 12 | 357 | 3.2 | 8.0 | 0.00 | 0.00 | 0.00 | 80 | 1017.0 |
| 20260507191503 | 12 | 357 | 4.8 | 8.0 | 0.00 | 0.00 | 0.00 | 80 | 1016.9 |
| 20260507191401 | 12 | 357 | 4.8 | 8.0 | 0.00 | 0.00 | 0.00 | 81 | 1017.0 |
| 20260507191312 | 12 | 355 | 4.8 | 8.0 | 0.00 | 0.00 | 0.00 | 81 | 1016.9 |
| 20260507191200 | 12 | 355 | 4.8 | 11.3 | 0.00 | 0.00 | 0.00 | 81 | 1017.0 |
| 20260507191101 | 12 | 348 | 3.2 | 11.3 | 0.00 | 0.00 | 0.00 | 81 | 1017.0 |
| 20260507191001 | 12 | 347 | 4.8 | 11.3 | 0.00 | 0.00 | 0.00 | 81 | 1016.9 |
| 20260507190900 | 12 | 347 | 4.8 | 11.3 | 0.00 | 0.00 | 0.00 | 81 | 1017.0 |
| 20260507190800 | 12 | 347 | 4.8 | 11.3 | 0.00 | 0.00 | 0.00 | 81 | 1017.0 |
| 20260507190657 | 12 | 347 | 6.4 | 11.3 | 0.00 | 0.00 | 0.00 | 81 | 1017.0 |
| 20260507190559 | 12 | 347 | 6.4 | 11.3 | 0.00 | 0.00 | 0.00 | 81 | 1017.0 |
| 20260507190458 | 12 | 334 | 4.8 | 14.5 | 0.00 | 0.00 | 0.00 | 81 | 1016.9 |
| 20260507190358 | 12 | 330 | 4.8 | 14.5 | 0.00 | 0.00 | 0.00 | 81 | 1016.9 |
| 20260507190257 | 12 | 329 | 6.4 | 14.5 | 0.00 | 0.00 | 0.00 | 81 | 1016.9 |
| 20260507190155 | 12 | 343 | 4.8 | 14.5 | 0.00 | 0.00 | 0.00 | 81 | 1016.9 |
| 20260507190051 | 12 | 0 | 4.8 | 14.5 | 0.00 | 0.00 | 0.00 | 81 | 1017.0 |
| 20260507185951 | 12 | 0 | 6.4 | 14.5 | 0.00 | 0.00 | 0.00 | 81 | 1016.9 |
| 20260507185851 | 12 | 0 | 6.4 | 14.5 | 0.00 | 0.00 | 0.00 | 81 | 1016.9 |
| 20260507185750 | 12 | 358 | 6.4 | 14.5 | 0.00 | 0.00 | 0.00 | 81 | 1016.9 |
| 20260507185650 | 12 | 354 | 6.4 | 14.5 | 0.00 | 0.00 | 0.00 | 81 | 1017.0 |
| 20260507185549 | 12 | 0 | 6.4 | 14.5 | 0.00 | 0.00 | 0.00 | 80 | 1016.9 |
| 20260507185451 | 12 | 354 | 6.4 | 9.7 | 0.00 | 0.00 | 0.00 | 80 | 1016.9 |
| 20260507185351 | 12 | 353 | 6.4 | 11.3 | 0.00 | 0.00 | 0.00 | 80 | 1017.0 |
| 20260507185251 | 12 | 353 | 6.4 | 11.3 | 0.00 | 0.00 | 0.00 | 80 | 1016.9 |
| 20260507185149 | 12 | 345 | 6.4 | 11.3 | 0.00 | 0.00 | 0.00 | 80 | 1017.0 |
| 20260507185049 | 12 | 358 | 6.4 | 11.3 | 0.00 | 0.00 | 0.00 | 80 | 1016.9 |
| 20260507184948 | 12 | 0 | 6.4 | 11.3 | 0.00 | 0.00 | 0.00 | 80 | 1016.9 |
| 20260507184846 | 12 | 0 | 6.4 | 11.3 | 0.00 | 0.00 | 0.00 | 80 | 1017.0 |
| 20260507184744 | 12 | 357 | 6.4 | 11.3 | 0.00 | 0.00 | 0.00 | 80 | 1017.0 |
| 20260507184643 | 12 | 0 | 6.4 | 11.3 | 0.00 | 0.00 | 0.00 | 80 | 1017.0 |
| 20260507184543 | 12 | 0 | 6.4 | 11.3 | 0.00 | 0.00 | 0.00 | 80 | 1017.0 |
| 20260507184444 | 12 | 354 | 8.0 | 14.5 | 0.00 | 0.00 | 0.00 | 80 | 1016.9 |
| 20260507184343 | 12 | 358 | 8.0 | 14.5 | 0.00 | 0.00 | 0.00 | 80 | 1017.0 |
| 20260507184254 | 12 | 358 | 6.4 | 14.5 | 0.00 | 0.00 | 0.00 | 80 | 1016.9 |
| 20260507184141 | 12 | 330 | 6.4 | 14.5 | 0.00 | 0.00 | 0.00 | 79 | 1017.0 |
| 20260507184036 | 12 | 0 | 6.4 | 14.5 | 0.00 | 0.00 | 0.00 | 79 | 1017.0 |
| 20260507183937 | 12 | 329 | 6.4 | 14.5 | 0.00 | 0.00 | 0.00 | 79 | 1017.0 |
| 20260507183836 | 12 | 0 | 6.4 | 14.5 | 0.00 | 0.00 | 0.00 | 79 | 1017.1 |
| 20260507183735 | 12 | 0 | 6.4 | 14.5 | 0.00 | 0.00 | 0.00 | 79 | 1017.1 |
| 20260507183631 | 12 | 0 | 6.4 | 14.5 | 0.00 | 0.00 | 0.00 | 79 | 1017.0 |
| 20260507183532 | 12 | 0 | 6.4 | 14.5 | 0.00 | 0.00 | 0.00 | 79 | 1017.0 |
| 20260507183432 | 12 | 0 | 4.8 | 14.5 | 0.00 | 0.00 | 0.00 | 79 | 1017.1 |
| 20260507183331 | 12 | 0 | 4.8 | 14.5 | 0.00 | 0.00 | 0.00 | 79 | 1017.0 |
| 20260507183230 | 12 | 0 | 4.8 | 14.5 | 0.00 | 0.00 | 0.00 | 79 | 1017.0 |
| 20260507183130 | 12 | 0 | 8.0 | 14.5 | 0.00 | 0.00 | 0.00 | 79 | 1017.0 |
| 20260507183029 | 12 | 0 | 6.4 | 14.5 | 0.00 | 0.00 | 0.00 | 79 | 1017.0 |
| 20260507182930 | 12 | 357 | 6.4 | 14.5 | 0.00 | 0.00 | 0.00 | 79 | 1017.0 |
| 20260507182829 | 12 | 350 | 6.4 | 14.5 | 0.00 | 0.00 | 0.00 | 79 | 1017.0 |
| 20260507182729 | 12 | 357 | 6.4 | 14.5 | 0.00 | 0.00 | 0.00 | 78 | 1016.9 |
| 20260507182628 | 12 | 358 | 6.4 | 14.5 | 0.00 | 0.00 | 0.00 | 78 | 1017.0 |
| 20260507182527 | 12 | 0 | 6.4 | 14.5 | 0.00 | 0.00 | 0.00 | 78 | 1017.0 |
| 20260507182425 | 12 | 338 | 6.4 | 14.5 | 0.00 | 0.00 | 0.00 | 78 | 1017.1 |
| 20260507182324 | 12 | 344 | 6.4 | 14.5 | 0.00 | 0.00 | 0.00 | 78 | 1017.1 |
| 20260507182221 | 12 | 0 | 6.4 | 14.5 | 0.00 | 0.00 | 0.00 | 78 | 1017.0 |
| 20260507182121 | 12 | 327 | 6.4 | 14.5 | 0.00 | 0.00 | 0.00 | 78 | 1016.9 |
| 20260507182017 | 12 | 350 | 6.4 | 14.5 | 0.00 | 0.00 | 0.00 | 78 | 1017.1 |
| 20260507181918 | 12 | 358 | 8.0 | 14.5 | 0.00 | 0.00 | 0.00 | 78 | 1017.0 |
| 20260507181808 | 12 | 0 | 9.7 | 14.5 | 0.00 | 0.00 | 0.00 | 78 | 1017.0 |
| 20260507181709 | 12 | 350 | 8.0 | 14.5 | 0.00 | 0.00 | 0.00 | 78 | 1017.0 |
| 20260507181608 | 12 | 353 | 6.4 | 11.3 | 0.00 | 0.00 | 0.00 | 77 | 1017.0 |
| 20260507181509 | 12 | 351 | 8.0 | 11.3 | 0.00 | 0.00 | 0.00 | 77 | 1017.0 |
| 20260507181409 | 12 | 3 | 8.0 | 11.3 | 0.00 | 0.00 | 0.00 | 77 | 1017.0 |
| 20260507181308 | 12 | 310 | 8.0 | 11.3 | 0.00 | 0.00 | 0.00 | 77 | 1017.0 |
| 20260507181209 | 12 | 354 | 6.4 | 11.3 | 0.00 | 0.00 | 0.00 | 77 | 1017.0 |
| 20260507181108 | 12 | 14 | 6.4 | 11.3 | 0.00 | 0.00 | 0.00 | 77 | 1017.0 |
| 20260507181005 | 12 | 0 | 6.4 | 11.3 | 0.00 | 0.00 | 0.00 | 77 | 1017.0 |
| 20260507180904 | 12 | 1 | 6.4 | 11.3 | 0.00 | 0.00 | 0.00 | 77 | 1016.9 |
| 20260507180802 | 12 | 0 | 6.4 | 11.3 | 0.00 | 0.00 | 0.00 | 76 | 1017.0 |
| 20260507180701 | 12 | 341 | 6.4 | 11.3 | 0.00 | 0.00 | 0.00 | 77 | 1017.0 |
| 20260507180602 | 12 | 0 | 6.4 | 11.3 | 0.00 | 0.00 | 0.00 | 76 | 1017.1 |
| 20260507180501 | 12 | 347 | 6.4 | 11.3 | 0.00 | 0.00 | 0.00 | 76 | 1017.1 |
| 20260507180402 | 12 | 0 | 6.4 | 11.3 | 0.00 | 0.00 | 0.00 | 76 | 1017.0 |
| 20260507180302 | 12 | 358 | 6.4 | 11.3 | 0.00 | 0.00 | 0.00 | 76 | 1017.0 |
| 20260507180158 | 12 | 0 | 4.8 | 9.7 | 0.00 | 0.00 | 0.00 | 76 | 1017.0 |
| 20260507180058 | 12 | 0 | 6.4 | 9.7 | 0.00 | 0.00 | 0.00 | 76 | 1017.0 |
| 20260507175958 | 12 | 10 | 6.4 | 9.7 | 0.00 | 0.00 | 0.00 | 76 | 1017.1 |
| 20260507175855 | 12 | 343 | 4.8 | 9.7 | 0.00 | 0.00 | 0.00 | 76 | 1016.9 |
| 20260507175757 | 12 | 351 | 4.8 | 11.3 | 0.00 | 0.00 | 0.00 | 76 | 1017.0 |
| 20260507175656 | 12 | 351 | 4.8 | 11.3 | 0.00 | 0.00 | 0.00 | 76 | 1017.0 |
| 20260507175555 | 12 | 357 | 4.8 | 11.3 | 0.00 | 0.00 | 0.00 | 76 | 1017.0 |
| 20260507175456 | 12 | 0 | 4.8 | 11.3 | 0.00 | 0.00 | 0.00 | 76 | 1017.0 |
| 20260507175355 | 12 | 0 | 4.8 | 11.3 | 0.00 | 0.00 | 0.00 | 76 | 1017.0 |
| 20260507175255 | 12 | 0 | 6.4 | 11.3 | 0.00 | 0.00 | 0.00 | 76 | 1016.9 |
| 20260507175154 | 12 | 0 | 6.4 | 11.3 | 0.00 | 0.00 | 0.00 | 75 | 1017.0 |
| 20260507175054 | 12 | 0 | 8.0 | 11.3 | 0.00 | 0.00 | 0.00 | 75 | 1017.0 |
| 20260507174949 | 12 | 330 | 8.0 | 11.3 | 0.00 | 0.00 | 0.00 | 75 | 1016.9 |
| 20260507174851 | 12 | 330 | 8.0 | 11.3 | 0.00 | 0.00 | 0.00 | 75 | 1016.9 |
| 20260507174750 | 12 | 337 | 8.0 | 11.3 | 0.00 | 0.00 | 0.00 | 75 | 1016.9 |
| 20260507174653 | 12 | 344 | 6.4 | 14.5 | 0.00 | 0.00 | 0.00 | 75 | 1016.9 |
| 20260507174550 | 12 | 331 | 6.4 | 14.5 | 0.00 | 0.00 | 0.00 | 75 | 1016.9 |
| 20260507174446 | 12 | 334 | 6.4 | 14.5 | 0.00 | 0.00 | 0.00 | 75 | 1017.0 |
| 20260507174348 | 12 | 334 | 8.0 | 14.5 | 0.00 | 0.00 | 0.00 | 75 | 1017.0 |
| 20260507174245 | 12 | 337 | 9.7 | 14.5 | 0.00 | 0.00 | 0.00 | 74 | 1017.0 |
| 20260507174143 | 12 | 357 | 8.0 | 14.5 | 0.00 | 0.00 | 0.00 | 74 | 1017.0 |
| 20260507174041 | 12 | 344 | 8.0 | 17.7 | 0.00 | 0.00 | 0.00 | 74 | 1017.0 |
| 20260507173940 | 13 | 351 | 8.0 | 17.7 | 0.00 | 0.00 | 0.00 | 74 | 1017.0 |
| 20260507173838 | 13 | 350 | 8.0 | 17.7 | 0.00 | 0.00 | 0.00 | 74 | 1017.0 |
| 20260507173738 | 13 | 338 | 8.0 | 17.7 | 0.00 | 0.00 | 0.00 | 74 | 1017.0 |
| 20260507173638 | 13 | 1 | 9.7 | 17.7 | 0.00 | 0.00 | 0.00 | 73 | 1017.1 |
| 20260507173537 | 13 | 330 | 9.7 | 17.7 | 0.00 | 0.00 | 0.00 | 73 | 1017.0 |
| 20260507173436 | 13 | 348 | 9.7 | 17.7 | 0.00 | 0.00 | 0.00 | 73 | 1017.1 |
| 20260507173338 | 13 | 347 | 9.7 | 17.7 | 0.00 | 0.00 | 0.00 | 73 | 1017.1 |
| 20260507173235 | 13 | 323 | 9.7 | 17.7 | 0.00 | 0.00 | 0.00 | 72 | 1017.1 |
| 20260507173136 | 13 | 337 | 11.3 | 17.7 | 0.00 | 0.00 | 0.00 | 72 | 1017.0 |
| 20260507173035 | 13 | 326 | 9.7 | 16.1 | 0.00 | 0.00 | 0.00 | 71 | 1017.0 |
| 20260507172936 | 13 | 348 | 11.3 | 16.1 | 0.00 | 0.00 | 0.00 | 71 | 1017.0 |
| 20260507172835 | 13 | 337 | 11.3 | 16.1 | 0.00 | 0.00 | 0.00 | 71 | 1017.0 |
| 20260507172735 | 13 | 347 | 9.7 | 16.1 | 0.00 | 0.00 | 0.00 | 70 | 1017.0 |
| 20260507172636 | 13 | 334 | 8.0 | 16.1 | 0.00 | 0.00 | 0.00 | 70 | 1017.0 |
| 20260507172536 | 13 | 345 | 8.0 | 16.1 | 0.00 | 0.00 | 0.00 | 70 | 1017.0 |
| 20260507172435 | 13 | 0 | 6.4 | 16.1 | 0.00 | 0.00 | 0.00 | 70 | 1017.1 |
| 20260507172336 | 13 | 357 | 6.4 | 16.1 | 0.00 | 0.00 | 0.00 | 70 | 1017.1 |
| 20260507172235 | 13 | 6 | 9.7 | 16.1 | 0.00 | 0.00 | 0.00 | 69 | 1017.0 |
| 20260507172135 | 13 | 344 | 9.7 | 16.1 | 0.00 | 0.00 | 0.00 | 69 | 1016.9 |
| 20260507172036 | 13 | 336 | 8.0 | 16.1 | 0.00 | 0.00 | 0.00 | 69 | 1016.9 |
| 20260507171936 | 13 | 350 | 6.4 | 16.1 | 0.00 | 0.00 | 0.00 | 70 | 1017.0 |
| 20260507171836 | 13 | 327 | 6.4 | 16.1 | 0.00 | 0.00 | 0.00 | 69 | 1017.0 |
| 20260507171733 | 13 | 327 | 6.4 | 16.1 | 0.00 | 0.00 | 0.00 | 69 | 1017.0 |
| 20260507171636 | 13 | 340 | 8.0 | 16.1 | 0.00 | 0.00 | 0.00 | 68 | 1016.9 |
| 20260507171534 | 13 | 330 | 9.7 | 16.1 | 0.00 | 0.00 | 0.00 | 68 | 1017.0 |
| 20260507171435 | 13 | 347 | 9.7 | 16.1 | 0.00 | 0.00 | 0.00 | 67 | 1017.0 |
| 20260507171334 | 13 | 345 | 9.7 | 16.1 | 0.00 | 0.00 | 0.00 | 66 | 1016.9 |
| 20260507171233 | 13 | 348 | 9.7 | 16.1 | 0.00 | 0.00 | 0.00 | 66 | 1017.0 |
| 20260507171145 | 13 | 338 | 9.7 | 16.1 | 0.00 | 0.00 | 0.00 | 66 | 1017.1 |
| 20260507171030 | 13 | 333 | 9.7 | 16.1 | 0.00 | 0.00 | 0.00 | 66 | 1017.0 |
| 20260507170930 | 13 | 326 | 9.7 | 16.1 | 0.00 | 0.00 | 0.00 | 66 | 1017.0 |
| 20260507170830 | 13 | 334 | 8.0 | 16.1 | 0.00 | 0.00 | 0.00 | 66 | 1017.0 |
| 20260507170731 | 13 | 345 | 6.4 | 16.1 | 0.00 | 0.00 | 0.00 | 65 | 1017.0 |
| 20260507170629 | 13 | 333 | 8.0 | 16.1 | 0.00 | 0.00 | 0.00 | 65 | 1017.0 |
| 20260507170530 | 13 | 333 | 9.7 | 16.1 | 0.00 | 0.00 | 0.00 | 64 | 1017.0 |
| 20260507170429 | 13 | 340 | 9.7 | 16.1 | 0.00 | 0.00 | 0.00 | 63 | 1017.0 |
| 20260507170329 | 13 | 340 | 8.0 | 16.1 | 0.00 | 0.00 | 0.00 | 63 | 1017.0 |
| 20260507170229 | 13 | 338 | 4.8 | 14.5 | 0.00 | 0.00 | 0.00 | 63 | 1017.0 |
| 20260507170129 | 13 | 316 | 6.4 | 14.5 | 0.00 | 0.00 | 0.00 | 63 | 1017.0 |
| 20260507170030 | 13 | 344 | 6.4 | 14.5 | 0.00 | 0.00 | 0.00 | 63 | 1017.0 |
| 20260507165929 | 13 | 337 | 6.4 | 17.7 | 0.00 | 0.00 | 0.00 | 63 | 1017.1 |
| 20260507165829 | 13 | 358 | 9.7 | 17.7 | 0.00 | 0.00 | 0.00 | 63 | 1017.0 |
| 20260507165730 | 13 | 337 | 9.7 | 17.7 | 0.00 | 0.00 | 0.00 | 63 | 1017.0 |
| 20260507165630 | 13 | 336 | 8.0 | 17.7 | 0.00 | 0.00 | 0.00 | 64 | 1017.0 |
| 20260507165531 | 13 | 348 | 6.4 | 17.7 | 0.00 | 0.00 | 0.00 | 64 | 1017.1 |
| 20260507165431 | 13 | 336 | 4.8 | 17.7 | 0.00 | 0.00 | 0.00 | 64 | 1017.1 |
| 20260507165330 | 13 | 343 | 3.2 | 17.7 | 0.00 | 0.00 | 0.00 | 63 | 1017.1 |
| 20260507165230 | 13 | 0 | 4.8 | 17.7 | 0.00 | 0.00 | 0.00 | 62 | 1017.1 |
| 20260507165129 | 13 | 0 | 9.7 | 17.7 | 0.00 | 0.00 | 0.00 | 61 | 1017.1 |
| 20260507165028 | 13 | 0 | 9.7 | 17.7 | 0.00 | 0.00 | 0.00 | 62 | 1017.1 |
| 20260507164928 | 13 | 341 | 9.7 | 14.5 | 0.00 | 0.00 | 0.00 | 63 | 1017.0 |
| 20260507164828 | 13 | 341 | 6.4 | 14.5 | 0.00 | 0.00 | 0.00 | 64 | 1017.1 |
| 20260507164728 | 13 | 312 | 4.8 | 14.5 | 0.00 | 0.00 | 0.00 | 65 | 1017.0 |
| 20260507164628 | 13 | 326 | 3.2 | 14.5 | 0.00 | 0.00 | 0.00 | 65 | 1017.0 |
| 20260507164526 | 13 | 326 | 3.2 | 14.5 | 0.00 | 0.00 | 0.00 | 65 | 1017.0 |
| 20260507164426 | 13 | 326 | 4.8 | 14.5 | 0.00 | 0.00 | 0.00 | 66 | 1017.0 |
| 20260507164326 | 13 | 330 | 4.8 | 14.5 | 0.00 | 0.00 | 0.00 | 66 | 1017.0 |
| 20260507164226 | 13 | 330 | 4.8 | 14.5 | 0.00 | 0.00 | 0.00 | 66 | 1017.0 |
| 20260507164129 | 13 | 329 | 6.4 | 14.5 | 0.00 | 0.00 | 0.00 | 65 | 1017.0 |
| 20260507164025 | 13 | 329 | 8.0 | 14.5 | 0.00 | 0.00 | 0.00 | 64 | 1017.0 |
| 20260507163924 | 13 | 348 | 9.7 | 14.5 | 0.00 | 0.00 | 0.00 | 64 | 1017.0 |
| 20260507163824 | 13 | 348 | 8.0 | 14.5 | 0.00 | 0.00 | 0.00 | 63 | 1017.0 |
| 20260507163722 | 13 | 340 | 8.0 | 14.5 | 0.00 | 0.00 | 0.00 | 63 | 1017.0 |
| 20260507163620 | 13 | 343 | 8.0 | 14.5 | 0.00 | 0.00 | 0.00 | 64 | 1017.0 |
| 20260507163521 | 13 | 341 | 8.0 | 16.1 | 0.00 | 0.00 | 0.00 | 64 | 1017.0 |
| 20260507163420 | 13 | 340 | 8.0 | 16.1 | 0.00 | 0.00 | 0.00 | 64 | 1017.1 |
| 20260507163317 | 13 | 329 | 8.0 | 16.1 | 0.00 | 0.00 | 0.00 | 64 | 1017.0 |
| 20260507163216 | 13 | 343 | 6.4 | 16.1 | 0.00 | 0.00 | 0.00 | 64 | 1017.0 |
| 20260507163117 | 13 | 345 | 6.4 | 16.1 | 0.00 | 0.00 | 0.00 | 64 | 1017.0 |
| 20260507163015 | 13 | 345 | 8.0 | 16.1 | 0.00 | 0.00 | 0.00 | 64 | 1017.0 |
| 20260507162916 | 13 | 303 | 8.0 | 16.1 | 0.00 | 0.00 | 0.00 | 64 | 1016.9 |
| 20260507162816 | 13 | 357 | 8.0 | 16.1 | 0.00 | 0.00 | 0.00 | 63 | 1017.0 |
| 20260507162715 | 13 | 326 | 9.7 | 16.1 | 0.00 | 0.00 | 0.00 | 62 | 1017.0 |
| 20260507162614 | 13 | 334 | 9.7 | 16.1 | 0.00 | 0.00 | 0.00 | 62 | 1017.0 |
| 20260507162514 | 13 | 317 | 9.7 | 16.1 | 0.00 | 0.00 | 0.00 | 61 | 1017.1 |
| 20260507162412 | 13 | 326 | 9.7 | 16.1 | 0.00 | 0.00 | 0.00 | 62 | 1017.0 |
| 20260507162308 | 13 | 337 | 8.0 | 16.1 | 0.00 | 0.00 | 0.00 | 61 | 1017.1 |
| 20260507162208 | 13 | 338 | 9.7 | 16.1 | 0.00 | 0.00 | 0.00 | 61 | 1017.1 |
| 20260507162109 | 13 | 312 | 9.7 | 16.1 | 0.00 | 0.00 | 0.00 | 60 | 1017.0 |
| 20260507162007 | 13 | 341 | 9.7 | 16.1 | 0.00 | 0.00 | 0.00 | 60 | 1017.0 |
| 20260507161906 | 13 | 340 | 8.0 | 16.1 | 0.00 | 0.00 | 0.00 | 60 | 1017.1 |
| 20260507161804 | 13 | 0 | 9.7 | 16.1 | 0.00 | 0.00 | 0.00 | 59 | 1017.0 |
| 20260507161703 | 13 | 347 | 9.7 | 16.1 | 0.00 | 0.00 | 0.00 | 60 | 1017.0 |
| 20260507161603 | 13 | 338 | 9.7 | 16.1 | 0.00 | 0.00 | 0.00 | 61 | 1017.0 |
| 20260507161504 | 13 | 358 | 8.0 | 16.1 | 0.00 | 0.00 | 0.00 | 61 | 1017.0 |
| 20260507161402 | 13 | 341 | 9.7 | 16.1 | 0.00 | 0.00 | 0.00 | 61 | 1017.0 |
| 20260507161302 | 13 | 340 | 9.7 | 16.1 | 0.00 | 0.00 | 0.00 | 61 | 1017.0 |
| 20260507161202 | 13 | 337 | 9.7 | 16.1 | 0.00 | 0.00 | 0.00 | 61 | 1017.1 |
| 20260507161109 | 13 | 337 | 11.3 | 16.1 | 0.00 | 0.00 | 0.00 | 61 | 1017.0 |
| 20260507161001 | 13 | 344 | 9.7 | 16.1 | 0.00 | 0.00 | 0.00 | 61 | 1016.9 |
| 20260507160901 | 13 | 343 | 8.0 | 16.1 | 0.00 | 0.00 | 0.00 | 60 | 1017.1 |
| 20260507160802 | 13 | 341 | 9.7 | 16.1 | 0.00 | 0.00 | 0.00 | 60 | 1017.0 |
| 20260507160701 | 13 | 305 | 8.0 | 16.1 | 0.00 | 0.00 | 0.00 | 61 | 1017.0 |
| 20260507160601 | 13 | 345 | 6.4 | 14.5 | 0.00 | 0.00 | 0.00 | 62 | 1017.0 |
| 20260507160459 | 13 | 324 | 8.0 | 14.5 | 0.00 | 0.00 | 0.00 | 61 | 1017.0 |
| 20260507160358 | 13 | 307 | 8.0 | 14.5 | 0.00 | 0.00 | 0.00 | 61 | 1017.0 |
| 20260507160258 | 13 | 344 | 6.4 | 14.5 | 0.00 | 0.00 | 0.00 | 61 | 1017.0 |
| 20260507160157 | 13 | 344 | 4.8 | 14.5 | 0.00 | 0.00 | 0.00 | 61 | 1016.9 |
| 20260507160053 | 13 | 358 | 6.4 | 14.5 | 0.00 | 0.00 | 0.00 | 61 | 1017.0 |
| 20260507155950 | 13 | 355 | 6.4 | 14.5 | 0.00 | 0.00 | 0.00 | 61 | 1016.9 |
| 20260507155848 | 13 | 347 | 8.0 | 14.5 | 0.00 | 0.00 | 0.00 | 61 | 1017.0 |
| 20260507155749 | 13 | 345 | 8.0 | 14.5 | 0.00 | 0.00 | 0.00 | 61 | 1016.9 |
| 20260507155646 | 13 | 329 | 8.0 | 14.5 | 0.00 | 0.00 | 0.00 | 62 | 1017.0 |
| 20260507155548 | 13 | 293 | 4.8 | 14.5 | 0.00 | 0.00 | 0.00 | 63 | 1017.0 |
| 20260507155447 | 13 | 290 | 6.4 | 16.1 | 0.00 | 0.00 | 0.00 | 63 | 1017.0 |
| 20260507155345 | 13 | 353 | 8.0 | 16.1 | 0.00 | 0.00 | 0.00 | 62 | 1017.0 |
| 20260507155244 | 13 | 357 | 8.0 | 16.1 | 0.00 | 0.00 | 0.00 | 62 | 1017.0 |
| 20260507155144 | 13 | 0 | 6.4 | 16.1 | 0.00 | 0.00 | 0.00 | 62 | 1017.0 |
| 20260507155043 | 13 | 338 | 8.0 | 16.1 | 0.00 | 0.00 | 0.00 | 62 | 1017.0 |
| 20260507154942 | 13 | 343 | 9.7 | 16.1 | 0.00 | 0.00 | 0.00 | 62 | 1016.9 |
| 20260507154843 | 13 | 0 | 9.7 | 16.1 | 0.00 | 0.00 | 0.00 | 62 | 1017.0 |
| 20260507154741 | 13 | 334 | 9.7 | 17.7 | 0.00 | 0.00 | 0.00 | 62 | 1017.0 |
| 20260507154639 | 13 | 336 | 9.7 | 17.7 | 0.00 | 0.00 | 0.00 | 62 | 1017.0 |
| 20260507154538 | 13 | 340 | 9.7 | 17.7 | 0.00 | 0.00 | 0.00 | 62 | 1016.9 |
| 20260507154438 | 13 | 353 | 9.7 | 17.7 | 0.00 | 0.00 | 0.00 | 63 | 1017.0 |
| 20260507154337 | 13 | 330 | 9.7 | 17.7 | 0.00 | 0.00 | 0.00 | 65 | 1017.0 |
| 20260507154238 | 13 | 316 | 8.0 | 17.7 | 0.00 | 0.00 | 0.00 | 65 | 1016.9 |
| 20260507154138 | 13 | 358 | 6.4 | 17.7 | 0.00 | 0.00 | 0.00 | 65 | 1016.9 |
| 20260507154037 | 13 | 340 | 9.7 | 17.7 | 0.00 | 0.00 | 0.00 | 65 | 1017.0 |
| 20260507154019 | 13 | 331 | 11.3 | 17.7 | 0.00 | 0.00 | 0.00 | 65 | 1016.9 |
| 20260507153939 | 13 | 331 | 11.3 | 17.7 | 0.00 | 0.00 | 0.00 | 65 | 1016.9 |
| 20260507153919 | 13 | 320 | 11.3 | 17.7 | 0.00 | 0.00 | 0.00 | 65 | 1016.9 |
| 20260507153839 | 13 | 320 | 11.3 | 17.7 | 0.00 | 0.00 | 0.00 | 65 | 1016.9 |
| 20260507153811 | 13 | 333 | 9.7 | 16.1 | 0.00 | 0.00 | 0.00 | 64 | 1017.0 |
| 20260507153737 | 13 | 343 | 9.7 | 16.1 | 0.00 | 0.00 | 0.00 | 65 | 1017.0 |
| 20260507153637 | 13 | 333 | 9.7 | 16.1 | 0.00 | 0.00 | 0.00 | 64 | 1017.0 |
| 20260507153535 | 13 | 0 | 9.7 | 16.1 | 0.00 | 0.00 | 0.00 | 64 | 1017.0 |
| 20260507153435 | 13 | 321 | 9.7 | 16.1 | 0.00 | 0.00 | 0.00 | 63 | 1016.9 |
| 20260507153412 | 13 | 0 | 9.7 | 16.1 | 0.00 | 0.00 | 0.00 | 64 | 1016.9 |
| 20260507153335 | 13 | 350 | 9.7 | 16.1 | 0.00 | 0.00 | 0.00 | 63 | 1016.8 |
| 20260507153303 | 13 | 351 | 9.7 | 16.1 | 0.00 | 0.00 | 0.00 | 64 | 1017.0 |
| 20260507153236 | 13 | 357 | 9.7 | 16.1 | 0.00 | 0.00 | 0.00 | 64 | 1016.9 |
| 20260507153135 | 13 | 0 | 9.7 | 16.1 | 0.00 | 0.00 | 0.00 | 64 | 1016.9 |
| 20260507153035 | 13 | 353 | 9.7 | 16.1 | 0.00 | 0.00 | 0.00 | 64 | 1016.9 |
| 20260507152935 | 13 | 351 | 9.7 | 16.1 | 0.00 | 0.00 | 0.00 | 64 | 1017.0 |
| 20260507152838 | 13 | 6 | 9.7 | 16.1 | 0.00 | 0.00 | 0.00 | 65 | 1016.9 |
| 20260507152734 | 13 | 329 | 9.7 | 16.1 | 0.00 | 0.00 | 0.00 | 66 | 1017.0 |
| 20260507152534 | 13 | 25 | 8.0 | 16.1 | 0.00 | 0.00 | 0.00 | 66 | 1016.9 |
| 20260507152437 | 13 | 0 | 6.4 | 16.1 | 0.00 | 0.00 | 0.00 | 66 | 1017.0 |
| 20260507152333 | 13 | 0 | 6.4 | 16.1 | 0.00 | 0.00 | 0.00 | 66 | 1016.9 |
| 20260507152230 | 14 | 0 | 9.7 | 16.1 | 0.00 | 0.00 | 0.00 | 65 | 1016.9 |
| 20260507152129 | 14 | 353 | 9.7 | 16.1 | 0.00 | 0.00 | 0.00 | 66 | 1016.9 |
| 20260507152029 | 14 | 1 | 8.0 | 16.1 | 0.00 | 0.00 | 0.00 | 65 | 1016.9 |
| 20260507151933 | 14 | 17 | 8.0 | 16.1 | 0.00 | 0.00 | 0.00 | 64 | 1016.9 |
| 20260507151831 | 14 | 307 | 9.7 | 16.1 | 0.00 | 0.00 | 0.00 | 63 | 1016.9 |
| 20260507151729 | 14 | 0 | 9.7 | 16.1 | 0.00 | 0.00 | 0.00 | 63 | 1016.9 |
| 20260507151627 | 14 | 355 | 9.7 | 16.1 | 0.00 | 0.00 | 0.00 | 64 | 1016.8 |
| 20260507151525 | 14 | 358 | 9.7 | 17.7 | 0.00 | 0.00 | 0.00 | 65 | 1016.9 |
| 20260507151425 | 14 | 341 | 6.4 | 17.7 | 0.00 | 0.00 | 0.00 | 65 | 1016.8 |
| 20260507151323 | 14 | 8 | 8.0 | 17.7 | 0.00 | 0.00 | 0.00 | 65 | 1016.9 |
| 20260507151223 | 14 | 0 | 9.7 | 17.7 | 0.00 | 0.00 | 0.00 | 64 | 1016.9 |
| 20260507151121 | 14 | 0 | 9.7 | 17.7 | 0.00 | 0.00 | 0.00 | 64 | 1016.9 |
| 20260507151020 | 14 | 3 | 9.7 | 17.7 | 0.00 | 0.00 | 0.00 | 64 | 1016.9 |
| 20260507150920 | 14 | 14 | 8.0 | 17.7 | 0.00 | 0.00 | 0.00 | 63 | 1016.8 |
| 20260507150819 | 14 | 0 | 9.7 | 19.3 | 0.00 | 0.00 | 0.00 | 63 | 1016.9 |
| 20260507150719 | 14 | 355 | 11.3 | 19.3 | 0.00 | 0.00 | 0.00 | 63 | 1016.9 |
| 20260507150618 | 14 | 353 | 11.3 | 19.3 | 0.00 | 0.00 | 0.00 | 64 | 1016.8 |
| 20260507150518 | 14 | 13 | 9.7 | 19.3 | 0.00 | 0.00 | 0.00 | 65 | 1016.8 |
| 20260507150418 | 14 | 350 | 8.0 | 19.3 | 0.00 | 0.00 | 0.00 | 65 | 1016.8 |
| 20260507150317 | 14 | 358 | 8.0 | 19.3 | 0.00 | 0.00 | 0.00 | 65 | 1016.9 |
| 20260507150218 | 13 | 0 | 9.7 | 19.3 | 0.00 | 0.00 | 0.00 | 65 | 1016.8 |
| 20260507150117 | 13 | 0 | 9.7 | 19.3 | 0.00 | 0.00 | 0.00 | 66 | 1016.8 |
| 20260507150014 | 13 | 351 | 14.5 | 19.3 | 0.00 | 0.00 | 0.00 | 65 | 1016.8 |
| 20260507145914 | 13 | 327 | 11.3 | 20.9 | 0.00 | 0.00 | 0.00 | 65 | 1016.9 |
| 20260507145813 | 13 | 8 | 11.3 | 22.5 | 0.00 | 0.00 | 0.00 | 65 | 1017.0 |
| 20260507145713 | 13 | 0 | 11.3 | 22.5 | 0.00 | 0.00 | 0.00 | 65 | 1016.8 |
| 20260507145613 | 13 | 0 | 11.3 | 22.5 | 0.00 | 0.00 | 0.00 | 65 | 1016.8 |
| 20260507145512 | 14 | 351 | 12.9 | 22.5 | 0.00 | 0.00 | 0.00 | 66 | 1016.8 |
| 20260507145409 | 14 | 343 | 12.9 | 22.5 | 0.00 | 0.00 | 0.00 | 66 | 1016.9 |
| 20260507145307 | 13 | 357 | 11.3 | 22.5 | 0.00 | 0.00 | 0.00 | 65 | 1016.8 |
| 20260507145205 | 14 | 17 | 11.3 | 22.5 | 0.00 | 0.00 | 0.00 | 64 | 1016.8 |
| 20260507145105 | 14 | 354 | 11.3 | 22.5 | 0.00 | 0.00 | 0.00 | 64 | 1016.9 |
| 20260507145005 | 14 | 353 | 12.9 | 22.5 | 0.00 | 0.00 | 0.00 | 65 | 1016.9 |
| 20260507144905 | 14 | 347 | 12.9 | 22.5 | 0.00 | 0.00 | 0.00 | 65 | 1016.9 |
| 20260507144804 | 14 | 358 | 11.3 | 17.7 | 0.00 | 0.00 | 0.00 | 65 | 1016.8 |
| 20260507144706 | 14 | 10 | 9.7 | 17.7 | 0.00 | 0.00 | 0.00 | 64 | 1016.8 |
| 20260507144604 | 14 | 355 | 9.7 | 17.7 | 0.00 | 0.00 | 0.00 | 64 | 1016.8 |
| 20260507144505 | 14 | 350 | 9.7 | 17.7 | 0.00 | 0.00 | 0.00 | 63 | 1016.8 |
| 20260507144403 | 14 | 0 | 9.7 | 17.7 | 0.00 | 0.00 | 0.00 | 63 | 1016.8 |
| 20260507144304 | 14 | 351 | 11.3 | 19.3 | 0.00 | 0.00 | 0.00 | 64 | 1016.7 |
| 20260507144203 | 14 | 327 | 9.7 | 19.3 | 0.00 | 0.00 | 0.00 | 64 | 1016.8 |
| 20260507144101 | 14 | 331 | 9.7 | 19.3 | 0.00 | 0.00 | 0.00 | 64 | 1016.8 |
| 20260507144001 | 14 | 10 | 8.0 | 19.3 | 0.00 | 0.00 | 0.00 | 63 | 1016.8 |
| 20260507143902 | 14 | 354 | 8.0 | 19.3 | 0.00 | 0.00 | 0.00 | 64 | 1016.8 |
| 20260507143801 | 14 | 354 | 9.7 | 19.3 | 0.00 | 0.00 | 0.00 | 64 | 1016.7 |
| 20260507143702 | 14 | 348 | 11.3 | 22.5 | 0.00 | 0.00 | 0.00 | 64 | 1016.8 |
| 20260507143601 | 14 | 326 | 9.7 | 22.5 | 0.00 | 0.00 | 0.00 | 64 | 1016.8 |
| 20260507143501 | 14 | 10 | 11.3 | 22.5 | 0.00 | 0.00 | 0.00 | 64 | 1016.8 |
| 20260507143401 | 14 | 0 | 12.9 | 22.5 | 0.00 | 0.00 | 0.00 | 64 | 1016.8 |
| 20260507143301 | 14 | 344 | 12.9 | 22.5 | 0.00 | 0.00 | 0.00 | 63 | 1016.8 |
| 20260507143201 | 15 | 316 | 12.9 | 22.5 | 0.00 | 0.00 | 0.00 | 64 | 1016.9 |
| 20260507143102 | 15 | 345 | 11.3 | 22.5 | 0.00 | 0.00 | 0.00 | 64 | 1016.9 |
| 20260507143001 | 15 | 338 | 9.7 | 22.5 | 0.00 | 0.00 | 0.00 | 64 | 1016.8 |
| 20260507142902 | 15 | 326 | 12.9 | 22.5 | 0.00 | 0.00 | 0.00 | 64 | 1016.9 |
| 20260507142754 | 15 | 0 | 11.3 | 22.5 | 0.00 | 0.00 | 0.00 | 64 | 1016.8 |
| 20260507142653 | 15 | 354 | 11.3 | 20.9 | 0.00 | 0.00 | 0.00 | 64 | 1016.7 |
| 20260507142552 | 15 | 345 | 9.7 | 20.9 | 0.00 | 0.00 | 0.00 | 65 | 1016.7 |
| 20260507142450 | 15 | 320 | 11.3 | 20.9 | 0.00 | 0.00 | 0.00 | 64 | 1016.8 |
| 20260507142350 | 15 | 343 | 14.5 | 20.9 | 0.00 | 0.00 | 0.00 | 65 | 1016.8 |
| 20260507142249 | 15 | 320 | 11.3 | 20.9 | 0.00 | 0.00 | 0.00 | 66 | 1016.8 |
| 20260507142148 | 15 | 350 | 11.3 | 20.9 | 0.00 | 0.00 | 0.00 | 67 | 1016.8 |
| 20260507142048 | 15 | 0 | 12.9 | 20.9 | 0.00 | 0.00 | 0.00 | 67 | 1016.8 |
| 20260507141947 | 15 | 340 | 11.3 | 20.9 | 0.00 | 0.00 | 0.00 | 68 | 1016.8 |
| 20260507141848 | 15 | 331 | 9.7 | 20.9 | 0.00 | 0.00 | 0.00 | 67 | 1016.7 |
| 20260507141744 | 15 | 274 | 9.7 | 20.9 | 0.00 | 0.00 | 0.00 | 67 | 1016.8 |
| 20260507141642 | 15 | 358 | 11.3 | 22.5 | 0.00 | 0.00 | 0.00 | 67 | 1016.8 |
| 20260507141541 | 15 | 313 | 12.9 | 22.5 | 0.00 | 0.00 | 0.00 | 66 | 1016.7 |
| 20260507141442 | 15 | 283 | 11.3 | 22.5 | 0.00 | 0.00 | 0.00 | 66 | 1016.8 |
| 20260507141341 | 15 | 285 | 11.3 | 22.5 | 0.00 | 0.00 | 0.00 | 66 | 1016.8 |
| 20260507141241 | 15 | 331 | 14.5 | 22.5 | 0.00 | 0.00 | 0.00 | 66 | 1016.8 |
| 20260507141140 | 15 | 0 | 12.9 | 22.5 | 0.00 | 0.00 | 0.00 | 66 | 1016.9 |
| 20260507141040 | 15 | 355 | 11.3 | 22.5 | 0.00 | 0.00 | 0.00 | 66 | 1016.8 |
| 20260507140938 | 15 | 330 | 12.9 | 22.5 | 0.00 | 0.00 | 0.00 | 66 | 1016.8 |
| 20260507140837 | 15 | 336 | 12.9 | 22.5 | 0.00 | 0.00 | 0.00 | 65 | 1016.9 |
| 20260507140737 | 15 | 330 | 11.3 | 22.5 | 0.00 | 0.00 | 0.00 | 66 | 1016.8 |
| 20260507140637 | 15 | 344 | 9.7 | 19.3 | 0.00 | 0.00 | 0.00 | 66 | 1016.9 |
| 20260507140538 | 15 | 238 | 9.7 | 19.3 | 0.00 | 0.00 | 0.00 | 67 | 1017.0 |
| 20260507140435 | 15 | 337 | 9.7 | 19.3 | 0.00 | 0.00 | 0.00 | 66 | 1017.0 |
| 20260507140336 | 15 | 312 | 9.7 | 19.3 | 0.00 | 0.00 | 0.00 | 66 | 1016.9 |
| 20260507140235 | 15 | 306 | 9.7 | 19.3 | 0.00 | 0.00 | 0.00 | 66 | 1017.0 |
| 20260507140135 | 15 | 306 | 11.3 | 19.3 | 0.00 | 0.00 | 0.00 | 67 | 1017.0 |
| 20260507140035 | 15 | 276 | 11.3 | 19.3 | 0.00 | 0.00 | 0.00 | 66 | 1016.9 |
| 20260507135935 | 15 | 341 | 9.7 | 19.3 | 0.00 | 0.00 | 0.00 | 66 | 1017.0 |
| 20260507135835 | 15 | 345 | 9.7 | 19.3 | 0.00 | 0.00 | 0.00 | 65 | 1016.9 |
| 20260507135734 | 15 | 283 | 12.9 | 20.9 | 0.00 | 0.00 | 0.00 | 66 | 1017.1 |
| 20260507135635 | 15 | 345 | 12.9 | 22.5 | 0.00 | 0.00 | 0.00 | 66 | 1017.1 |
| 20260507135535 | 15 | 336 | 11.3 | 22.5 | 0.00 | 0.00 | 0.00 | 67 | 1017.0 |
| 20260507135435 | 15 | 355 | 11.3 | 22.5 | 0.00 | 0.00 | 0.00 | 67 | 1017.0 |
| 20260507135335 | 15 | 329 | 11.3 | 22.5 | 0.00 | 0.00 | 0.00 | 67 | 1017.0 |
| 20260507135236 | 15 | 333 | 11.3 | 22.5 | 0.00 | 0.00 | 0.00 | 67 | 1017.0 |
| 20260507135136 | 15 | 323 | 11.3 | 22.5 | 0.00 | 0.00 | 0.00 | 67 | 1017.0 |
| 20260507135035 | 15 | 0 | 14.5 | 22.5 | 0.00 | 0.00 | 0.00 | 67 | 1017.1 |
| 20260507134936 | 15 | 6 | 14.5 | 22.5 | 0.00 | 0.00 | 0.00 | 66 | 1017.1 |
| 20260507134836 | 15 | 290 | 12.9 | 22.5 | 0.00 | 0.00 | 0.00 | 67 | 1017.0 |
| 20260507134735 | 15 | 306 | 14.5 | 22.5 | 0.00 | 0.00 | 0.00 | 68 | 1017.1 |
| 20260507134635 | 15 | 343 | 11.3 | 22.5 | 0.00 | 0.00 | 0.00 | 69 | 1017.1 |
| 20260507134535 | 15 | 344 | 9.7 | 22.5 | 0.00 | 0.00 | 0.00 | 69 | 1017.1 |
| 20260507134437 | 14 | 329 | 9.7 | 22.5 | 0.00 | 0.00 | 0.00 | 70 | 1017.1 |
| 20260507134338 | 14 | 307 | 9.7 | 22.5 | 0.00 | 0.00 | 0.00 | 69 | 1017.1 |
| 20260507134235 | 14 | 261 | 9.7 | 22.5 | 0.00 | 0.00 | 0.00 | 70 | 1017.1 |
| 20260507134135 | 14 | 319 | 6.4 | 22.5 | 0.00 | 0.00 | 0.00 | 70 | 1017.1 |
| 20260507134035 | 14 | 296 | 9.7 | 22.5 | 0.00 | 0.00 | 0.00 | 69 | 1017.1 |
| 20260507133935 | 14 | 324 | 12.9 | 22.5 | 0.00 | 0.00 | 0.00 | 68 | 1017.1 |
| 20260507133835 | 14 | 0 | 14.5 | 22.5 | 0.00 | 0.00 | 0.00 | 68 | 1017.1 |
| 20260507133735 | 14 | 0 | 12.9 | 19.3 | 0.00 | 0.00 | 0.00 | 68 | 1017.1 |
| 20260507133638 | 15 | 326 | 11.3 | 19.3 | 0.00 | 0.00 | 0.00 | 67 | 1017.2 |
| 20260507133536 | 15 | 306 | 9.7 | 19.3 | 0.00 | 0.00 | 0.00 | 68 | 1017.2 |
| 20260507133435 | 15 | 278 | 9.7 | 19.3 | 0.00 | 0.00 | 0.00 | 68 | 1017.2 |
| 20260507133335 | 15 | 292 | 11.3 | 19.3 | 0.00 | 0.00 | 0.00 | 68 | 1017.2 |
| 20260507133235 | 15 | 272 | 9.7 | 19.3 | 0.00 | 0.00 | 0.00 | 68 | 1017.2 |
| 20260507133135 | 15 | 282 | 9.7 | 19.3 | 0.00 | 0.00 | 0.00 | 68 | 1017.2 |
| 20260507133036 | 15 | 298 | 11.3 | 19.3 | 0.00 | 0.00 | 0.00 | 67 | 1017.2 |
| 20260507132934 | 15 | 289 | 11.3 | 19.3 | 0.00 | 0.00 | 0.00 | 67 | 1017.2 |
| 20260507132837 | 15 | 289 | 11.3 | 19.3 | 0.00 | 0.00 | 0.00 | 68 | 1017.2 |
| 20260507132737 | 15 | 329 | 9.7 | 17.7 | 0.00 | 0.00 | 0.00 | 67 | 1017.2 |
| 20260507132638 | 15 | 344 | 9.7 | 20.9 | 0.00 | 0.00 | 0.00 | 68 | 1017.3 |
| 20260507132537 | 15 | 258 | 9.7 | 20.9 | 0.00 | 0.00 | 0.00 | 67 | 1017.3 |
| 20260507132436 | 15 | 286 | 9.7 | 20.9 | 0.00 | 0.00 | 0.00 | 67 | 1017.2 |
| 20260507132336 | 15 | 320 | 9.7 | 20.9 | 0.00 | 0.00 | 0.00 | 67 | 1017.2 |
| 20260507132236 | 15 | 312 | 11.3 | 20.9 | 0.00 | 0.00 | 0.00 | 66 | 1017.2 |
| 20260507132135 | 15 | 305 | 11.3 | 20.9 | 0.00 | 0.00 | 0.00 | 66 | 1017.1 |
| 20260507132035 | 15 | 336 | 11.3 | 20.9 | 0.00 | 0.00 | 0.00 | 66 | 1017.1 |
| 20260507131935 | 15 | 288 | 11.3 | 20.9 | 0.00 | 0.00 | 0.00 | 66 | 1017.2 |
| 20260507131835 | 15 | 338 | 11.3 | 20.9 | 0.00 | 0.00 | 0.00 | 66 | 1017.2 |
| 20260507131735 | 15 | 313 | 11.3 | 20.9 | 0.00 | 0.00 | 0.00 | 65 | 1017.0 |
| 20260507131635 | 15 | 340 | 9.7 | 19.3 | 0.00 | 0.00 | 0.00 | 66 | 1017.1 |
| 20260507131538 | 15 | 331 | 9.7 | 19.3 | 0.00 | 0.00 | 0.00 | 68 | 1017.1 |
| 20260507131435 | 15 | 338 | 11.3 | 19.3 | 0.00 | 0.00 | 0.00 | 67 | 1017.2 |
| 20260507131335 | 15 | 0 | 11.3 | 19.3 | 0.00 | 0.00 | 0.00 | 66 | 1017.2 |
| 20260507131236 | 15 | 296 | 11.3 | 19.3 | 0.00 | 0.00 | 0.00 | 66 | 1017.1 |
| 20260507131136 | 15 | 0 | 11.3 | 19.3 | 0.00 | 0.00 | 0.00 | 67 | 1017.2 |
| 20260507131035 | 15 | 266 | 11.3 | 19.3 | 0.00 | 0.00 | 0.00 | 68 | 1017.2 |
| 20260507130941 | 15 | 345 | 12.9 | 19.3 | 0.00 | 0.00 | 0.00 | 67 | 1017.2 |
| 20260507130836 | 15 | 302 | 12.9 | 22.5 | 0.00 | 0.00 | 0.00 | 67 | 1017.2 |
| 20260507130735 | 15 | 329 | 12.9 | 22.5 | 0.00 | 0.00 | 0.00 | 68 | 1017.1 |
| 20260507130635 | 15 | 341 | 11.3 | 22.5 | 0.00 | 0.00 | 0.00 | 67 | 1017.1 |
| 20260507130535 | 15 | 281 | 8.0 | 22.5 | 0.00 | 0.00 | 0.00 | 69 | 1017.1 |
| 20260507130438 | 15 | 306 | 9.7 | 22.5 | 0.00 | 0.00 | 0.00 | 68 | 1017.1 |
| 20260507130336 | 15 | 289 | 12.9 | 22.5 | 0.00 | 0.00 | 0.00 | 66 | 1017.1 |
| 20260507130236 | 15 | 296 | 12.9 | 22.5 | 0.00 | 0.00 | 0.00 | 66 | 1017.1 |
| 20260507130135 | 15 | 305 | 9.7 | 22.5 | 0.00 | 0.00 | 0.00 | 66 | 1017.1 |
| 20260507130035 | 15 | 351 | 11.3 | 22.5 | 0.00 | 0.00 | 0.00 | 66 | 1017.1 |
| 20260507125935 | 15 | 357 | 12.9 | 22.5 | 0.00 | 0.00 | 0.00 | 67 | 1017.1 |
| 20260507125835 | 15 | 343 | 11.3 | 22.5 | 0.00 | 0.00 | 0.00 | 67 | 1017.2 |
| 20260507125735 | 15 | 344 | 12.9 | 22.5 | 0.00 | 0.00 | 0.00 | 66 | 1017.0 |
| 20260507125636 | 15 | 333 | 12.9 | 22.5 | 0.00 | 0.00 | 0.00 | 66 | 1017.0 |
| 20260507125535 | 15 | 289 | 11.3 | 22.5 | 0.00 | 0.00 | 0.00 | 66 | 1017.1 |
| 20260507125435 | 15 | 312 | 9.7 | 22.5 | 0.00 | 0.00 | 0.00 | 67 | 1017.1 |
| 20260507125335 | 15 | 248 | 9.7 | 22.5 | 0.00 | 0.00 | 0.00 | 66 | 1017.1 |
| 20260507125234 | 15 | 344 | 11.3 | 22.5 | 0.00 | 0.00 | 0.00 | 66 | 1017.1 |
| 20260507125135 | 15 | 281 | 11.3 | 22.5 | 0.00 | 0.00 | 0.00 | 67 | 1017.1 |
| 20260507125036 | 15 | 14 | 9.7 | 20.9 | 0.00 | 0.00 | 0.00 | 67 | 1017.0 |
| 20260507124935 | 15 | 282 | 11.3 | 20.9 | 0.00 | 0.00 | 0.00 | 66 | 1017.0 |
| 20260507124835 | 15 | 289 | 12.9 | 20.9 | 0.00 | 0.00 | 0.00 | 66 | 1017.0 |
| 20260507124736 | 15 | 276 | 9.7 | 20.9 | 0.00 | 0.00 | 0.00 | 68 | 1017.0 |
| 20260507124635 | 15 | 320 | 11.3 | 20.9 | 0.00 | 0.00 | 0.00 | 67 | 1017.0 |
| 20260507124535 | 15 | 327 | 12.9 | 20.9 | 0.00 | 0.00 | 0.00 | 66 | 1017.1 |
| 20260507124435 | 15 | 306 | 12.9 | 20.9 | 0.00 | 0.00 | 0.00 | 67 | 1017.1 |
| 20260507124336 | 15 | 0 | 14.5 | 20.9 | 0.00 | 0.00 | 0.00 | 67 | 1017.0 |
| 20260507124236 | 15 | 336 | 16.1 | 20.9 | 0.00 | 0.00 | 0.00 | 66 | 1017.0 |
| 20260507124136 | 15 | 307 | 16.1 | 20.9 | 0.00 | 0.00 | 0.00 | 65 | 1017.0 |
| 20260507124035 | 15 | 307 | 14.5 | 20.9 | 0.00 | 0.00 | 0.00 | 65 | 1016.9 |
| 20260507123936 | 15 | 333 | 11.3 | 20.9 | 0.00 | 0.00 | 0.00 | 65 | 1016.9 |
| 20260507123836 | 15 | 321 | 12.9 | 20.9 | 0.00 | 0.00 | 0.00 | 67 | 1016.9 |
| 20260507123736 | 15 | 259 | 14.5 | 20.9 | 0.00 | 0.00 | 0.00 | 64 | 1017.0 |
| 20260507123637 | 15 | 303 | 14.5 | 20.9 | 0.00 | 0.00 | 0.00 | 64 | 1017.0 |
| 20260507123535 | 15 | 306 | 12.9 | 20.9 | 0.00 | 0.00 | 0.00 | 64 | 1016.9 |
| 20260507123435 | 15 | 312 | 11.3 | 17.7 | 0.00 | 0.00 | 0.00 | 65 | 1017.0 |
| 20260507123335 | 15 | 259 | 11.3 | 17.7 | 0.00 | 0.00 | 0.00 | 64 | 1017.0 |
| 20260507123235 | 15 | 323 | 11.3 | 17.7 | 0.00 | 0.00 | 0.00 | 65 | 1017.0 |
| 20260507123136 | 15 | 271 | 11.3 | 17.7 | 0.00 | 0.00 | 0.00 | 65 | 1016.9 |
| 20260507123035 | 15 | 295 | 11.3 | 17.7 | 0.00 | 0.00 | 0.00 | 65 | 1017.0 |
| 20260507122936 | 15 | 271 | 9.7 | 17.7 | 0.00 | 0.00 | 0.00 | 65 | 1017.0 |
| 20260507122835 | 15 | 338 | 9.7 | 17.7 | 0.00 | 0.00 | 0.00 | 66 | 1016.9 |
| 20260507122735 | 15 | 330 | 9.7 | 17.7 | 0.00 | 0.00 | 0.00 | 66 | 1017.0 |
| 20260507122636 | 15 | 299 | 9.7 | 17.7 | 0.00 | 0.00 | 0.00 | 65 | 1016.9 |
| 20260507122538 | 15 | 347 | 11.3 | 17.7 | 0.00 | 0.00 | 0.00 | 66 | 1016.9 |
| 20260507122438 | 15 | 336 | 9.7 | 17.7 | 0.00 | 0.00 | 0.00 | 64 | 1016.9 |
| 20260507122337 | 15 | 316 | 11.3 | 17.7 | 0.00 | 0.00 | 0.00 | 64 | 1016.9 |
| 20260507122239 | 15 | 298 | 11.3 | 17.7 | 0.00 | 0.00 | 0.00 | 66 | 1016.9 |
| 20260507122136 | 15 | 275 | 11.3 | 17.7 | 0.00 | 0.00 | 0.00 | 64 | 1017.0 |
| 20260507122036 | 15 | 282 | 9.7 | 17.7 | 0.00 | 0.00 | 0.00 | 66 | 1016.9 |
| 20260507121935 | 15 | 0 | 9.7 | 17.7 | 0.00 | 0.00 | 0.00 | 66 | 1017.0 |
| 20260507121835 | 15 | 305 | 9.7 | 17.7 | 0.00 | 0.00 | 0.00 | 66 | 1017.0 |
| 20260507121735 | 15 | 314 | 11.3 | 17.7 | 0.00 | 0.00 | 0.00 | 65 | 1016.9 |
| 20260507121635 | 15 | 351 | 11.3 | 17.7 | 0.00 | 0.00 | 0.00 | 65 | 1016.9 |
| 20260507121535 | 15 | 296 | 11.3 | 17.7 | 0.00 | 0.00 | 0.00 | 65 | 1016.9 |
| 20260507121436 | 16 | 313 | 9.7 | 17.7 | 0.00 | 0.00 | 0.00 | 64 | 1017.0 |
| 20260507121335 | 16 | 0 | 8.0 | 17.7 | 0.00 | 0.00 | 0.00 | 65 | 1017.1 |
| 20260507121235 | 15 | 331 | 8.0 | 17.7 | 0.00 | 0.00 | 0.00 | 64 | 1016.9 |
| 20260507121135 | 15 | 293 | 8.0 | 17.7 | 0.00 | 0.00 | 0.00 | 62 | 1017.0 |
| 20260507121035 | 16 | 0 | 9.7 | 17.7 | 0.00 | 0.00 | 0.00 | 63 | 1017.0 |
| 20260507120935 | 16 | 353 | 9.7 | 17.7 | 0.00 | 0.00 | 0.00 | 66 | 1017.0 |
| 20260507120835 | 15 | 343 | 9.7 | 17.7 | 0.00 | 0.00 | 0.00 | 66 | 1017.0 |
| 20260507120735 | 15 | 262 | 8.0 | 16.1 | 0.00 | 0.00 | 0.00 | 66 | 1017.0 |
| 20260507120637 | 15 | 278 | 8.0 | 17.7 | 0.00 | 0.00 | 0.00 | 64 | 1017.0 |
| 20260507120537 | 15 | 271 | 8.0 | 17.7 | 0.00 | 0.00 | 0.00 | 64 | 1017.1 |
| 20260507120436 | 15 | 344 | 8.0 | 17.7 | 0.00 | 0.00 | 0.00 | 66 | 1017.0 |
| 20260507120337 | 15 | 293 | 8.0 | 20.9 | 0.00 | 0.00 | 0.00 | 66 | 1017.0 |
| 20260507120236 | 15 | 333 | 11.3 | 20.9 | 0.00 | 0.00 | 0.00 | 67 | 1017.0 |
| 20260507120135 | 15 | 0 | 11.3 | 20.9 | 0.00 | 0.00 | 0.00 | 68 | 1017.0 |
| 20260507120036 | 15 | 285 | 11.3 | 20.9 | 0.00 | 0.00 | 0.00 | 67 | 1016.9 |
| 20260507115935 | 15 | 265 | 11.3 | 20.9 | 0.00 | 0.00 | 0.00 | 66 | 1017.0 |
| 20260507115835 | 15 | 292 | 11.3 | 20.9 | 0.00 | 0.00 | 0.00 | 67 | 1017.0 |
| 20260507115735 | 15 | 283 | 9.7 | 20.9 | 0.00 | 0.00 | 0.00 | 68 | 1017.0 |
| 20260507115636 | 15 | 285 | 8.0 | 20.9 | 0.00 | 0.00 | 0.00 | 68 | 1017.0 |
| 20260507115536 | 15 | 269 | 11.3 | 20.9 | 0.00 | 0.00 | 0.00 | 66 | 1017.0 |
| 20260507115435 | 15 | 279 | 12.9 | 20.9 | 0.00 | 0.00 | 0.00 | 67 | 1017.0 |
| 20260507115335 | 15 | 310 | 11.3 | 19.3 | 0.00 | 0.00 | 0.00 | 67 | 1017.0 |
| 20260507115236 | 15 | 292 | 12.9 | 19.3 | 0.00 | 0.00 | 0.00 | 66 | 1017.1 |
| 20260507115135 | 15 | 312 | 11.3 | 19.3 | 0.00 | 0.00 | 0.00 | 66 | 1017.0 |
| 20260507115035 | 15 | 306 | 9.7 | 16.1 | 0.00 | 0.00 | 0.00 | 65 | 1017.0 |
| 20260507114936 | 15 | 285 | 9.7 | 16.1 | 0.00 | 0.00 | 0.00 | 65 | 1017.0 |
| 20260507114838 | 15 | 296 | 9.7 | 16.1 | 0.00 | 0.00 | 0.00 | 64 | 1016.9 |
| 20260507114736 | 15 | 326 | 11.3 | 16.1 | 0.00 | 0.00 | 0.00 | 65 | 1017.0 |
| 20260507114635 | 15 | 283 | 9.7 | 16.1 | 0.00 | 0.00 | 0.00 | 64 | 1017.0 |
| 20260507114536 | 15 | 302 | 6.4 | 16.1 | 0.00 | 0.00 | 0.00 | 63 | 1017.0 |
| 20260507114434 | 15 | 324 | 9.7 | 16.1 | 0.00 | 0.00 | 0.00 | 63 | 1017.0 |
| 20260507114336 | 15 | 343 | 9.7 | 16.1 | 0.00 | 0.00 | 0.00 | 64 | 1017.0 |
| 20260507114235 | 15 | 340 | 9.7 | 16.1 | 0.00 | 0.00 | 0.00 | 64 | 1017.0 |
| 20260507114136 | 15 | 326 | 9.7 | 14.5 | 0.00 | 0.00 | 0.00 | 65 | 1017.0 |
| 20260507114034 | 15 | 317 | 9.7 | 19.3 | 0.00 | 0.00 | 0.00 | 64 | 1017.0 |
| 20260507113936 | 15 | 320 | 8.0 | 19.3 | 0.00 | 0.00 | 0.00 | 66 | 1017.0 |
| 20260507113848 | 15 | 323 | 6.4 | 19.3 | 0.00 | 0.00 | 0.00 | 66 | 1017.0 |
| 20260507113735 | 15 | 347 | 6.4 | 19.3 | 0.00 | 0.00 | 0.00 | 65 | 1017.0 |
| 20260507113635 | 15 | 302 | 8.0 | 19.3 | 0.00 | 0.00 | 0.00 | 66 | 1017.0 |
| 20260507113535 | 15 | 316 | 6.4 | 19.3 | 0.00 | 0.00 | 0.00 | 64 | 1017.0 |
| 20260507113435 | 15 | 320 | 4.8 | 19.3 | 0.00 | 0.00 | 0.00 | 63 | 1017.0 |
| 20260507113335 | 15 | 7 | 6.4 | 19.3 | 0.00 | 0.00 | 0.00 | 63 | 1017.0 |
| 20260507113235 | 15 | 358 | 9.7 | 19.3 | 0.00 | 0.00 | 0.00 | 64 | 1017.0 |
| 20260507113135 | 15 | 334 | 11.3 | 19.3 | 0.00 | 0.00 | 0.00 | 67 | 1017.0 |
| 20260507113037 | 15 | 279 | 9.7 | 19.3 | 0.00 | 0.00 | 0.00 | 67 | 1016.9 |
| 20260507112936 | 15 | 324 | 9.7 | 19.3 | 0.00 | 0.00 | 0.00 | 67 | 1016.9 |
| 20260507112835 | 15 | 324 | 11.3 | 19.3 | 0.00 | 0.00 | 0.00 | 65 | 1017.0 |
| 20260507112735 | 15 | 274 | 9.7 | 19.3 | 0.00 | 0.00 | 0.00 | 66 | 1016.9 |
| 20260507112635 | 15 | 283 | 9.7 | 19.3 | 0.00 | 0.00 | 0.00 | 66 | 1017.0 |
| 20260507112535 | 15 | 274 | 8.0 | 19.3 | 0.00 | 0.00 | 0.00 | 66 | 1016.9 |
| 20260507112435 | 15 | 290 | 9.7 | 19.3 | 0.00 | 0.00 | 0.00 | 66 | 1017.0 |
| 20260507112334 | 15 | 276 | 9.7 | 19.3 | 0.00 | 0.00 | 0.00 | 66 | 1017.0 |
| 20260507112236 | 15 | 345 | 11.3 | 19.3 | 0.00 | 0.00 | 0.00 | 68 | 1017.0 |
| 20260507112136 | 15 | 265 | 11.3 | 19.3 | 0.00 | 0.00 | 0.00 | 67 | 1017.0 |
| 20260507112035 | 15 | 292 | 11.3 | 19.3 | 0.00 | 0.00 | 0.00 | 67 | 1017.0 |
| 20260507111936 | 15 | 285 | 9.7 | 19.3 | 0.00 | 0.00 | 0.00 | 66 | 1017.0 |
| 20260507111836 | 15 | 286 | 11.3 | 19.3 | 0.00 | 0.00 | 0.00 | 66 | 1017.0 |
| 20260507111736 | 15 | 281 | 11.3 | 19.3 | 0.00 | 0.00 | 0.00 | 66 | 1017.0 |
| 20260507111635 | 15 | 275 | 9.7 | 16.1 | 0.00 | 0.00 | 0.00 | 67 | 1017.0 |
| 20260507111535 | 15 | 333 | 9.7 | 16.1 | 0.00 | 0.00 | 0.00 | 67 | 1017.0 |
| 20260507111436 | 15 | 289 | 11.3 | 19.3 | 0.00 | 0.00 | 0.00 | 67 | 1017.1 |
| 20260507111336 | 14 | 303 | 11.3 | 19.3 | 0.00 | 0.00 | 0.00 | 67 | 1017.0 |
| 20260507111235 | 14 | 288 | 11.3 | 19.3 | 0.00 | 0.00 | 0.00 | 66 | 1017.0 |
| 20260507111134 | 14 | 323 | 11.3 | 19.3 | 0.00 | 0.00 | 0.00 | 66 | 1017.0 |
| 20260507111037 | 15 | 302 | 9.7 | 19.3 | 0.00 | 0.00 | 0.00 | 65 | 1017.0 |
| 20260507110937 | 15 | 283 | 9.7 | 19.3 | 0.00 | 0.00 | 0.00 | 64 | 1017.2 |
| 20260507110837 | 15 | 289 | 9.7 | 19.3 | 0.00 | 0.00 | 0.00 | 64 | 1017.2 |
| 20260507110735 | 15 | 286 | 9.7 | 19.3 | 0.00 | 0.00 | 0.00 | 64 | 1017.1 |
| 20260507110635 | 15 | 344 | 11.3 | 19.3 | 0.00 | 0.00 | 0.00 | 64 | 1017.1 |
| 20260507110535 | 15 | 292 | 11.3 | 19.3 | 0.00 | 0.00 | 0.00 | 65 | 1017.1 |
| 20260507110436 | 15 | 310 | 8.0 | 17.7 | 0.00 | 0.00 | 0.00 | 66 | 1017.1 |
| 20260507110335 | 15 | 272 | 9.7 | 17.7 | 0.00 | 0.00 | 0.00 | 66 | 1017.2 |
| 20260507110235 | 15 | 289 | 8.0 | 17.7 | 0.00 | 0.00 | 0.00 | 67 | 1017.2 |
| 20260507110134 | 15 | 307 | 8.0 | 17.7 | 0.00 | 0.00 | 0.00 | 66 | 1017.2 |
| 20260507110036 | 15 | 290 | 9.7 | 17.7 | 0.00 | 0.00 | 0.00 | 66 | 1017.1 |
| 20260507105935 | 15 | 276 | 11.3 | 17.7 | 0.00 | 0.00 | 0.00 | 65 | 1017.3 |
| 20260507105836 | 15 | 285 | 9.7 | 17.7 | 0.00 | 0.00 | 0.00 | 67 | 1017.3 |
| 20260507105735 | 15 | 285 | 8.0 | 17.7 | 0.00 | 0.00 | 0.00 | 66 | 1017.2 |
| 20260507105635 | 15 | 283 | 8.0 | 17.7 | 0.00 | 0.00 | 0.00 | 66 | 1017.3 |
| 20260507105535 | 14 | 288 | 6.4 | 17.7 | 0.00 | 0.00 | 0.00 | 66 | 1017.2 |
| 20260507105435 | 14 | 288 | 4.8 | 17.7 | 0.00 | 0.00 | 0.00 | 65 | 1017.2 |
| 20260507105237 | 14 | 336 | 8.0 | 17.7 | 0.00 | 0.00 | 0.00 | 65 | 1017.3 |
| 20260507105034 | 14 | 275 | 9.7 | 17.7 | 0.00 | 0.00 | 0.00 | 63 | 1017.2 |
| 20260507104936 | 14 | 286 | 11.3 | 17.7 | 0.00 | 0.00 | 0.00 | 63 | 1017.1 |
| 20260507104834 | 15 | 276 | 9.7 | 17.7 | 0.00 | 0.00 | 0.00 | 65 | 1017.1 |
| 20260507104735 | 14 | 293 | 8.0 | 17.7 | 0.00 | 0.00 | 0.00 | 65 | 1017.1 |
| 20260507104635 | 15 | 289 | 9.7 | 17.7 | 0.00 | 0.00 | 0.00 | 66 | 1017.2 |
| 20260507104535 | 15 | 285 | 11.3 | 17.7 | 0.00 | 0.00 | 0.00 | 66 | 1017.2 |
| 20260507104436 | 15 | 324 | 9.7 | 17.7 | 0.00 | 0.00 | 0.00 | 67 | 1017.2 |
| 20260507104335 | 15 | 252 | 9.7 | 16.1 | 0.00 | 0.00 | 0.00 | 66 | 1017.2 |
| 20260507104237 | 15 | 278 | 9.7 | 16.1 | 0.00 | 0.00 | 0.00 | 65 | 1017.2 |
| 20260507104134 | 15 | 266 | 11.3 | 16.1 | 0.00 | 0.00 | 0.00 | 64 | 1017.2 |
| 20260507104035 | 15 | 300 | 11.3 | 16.1 | 0.00 | 0.00 | 0.00 | 64 | 1017.2 |
| 20260507103935 | 15 | 278 | 9.7 | 14.5 | 0.00 | 0.00 | 0.00 | 64 | 1017.1 |
| 20260507103835 | 15 | 279 | 8.0 | 14.5 | 0.00 | 0.00 | 0.00 | 62 | 1017.2 |
| 20260507103736 | 15 | 261 | 6.4 | 14.5 | 0.00 | 0.00 | 0.00 | 59 | 1017.3 |
| 20260507103635 | 15 | 276 | 8.0 | 14.5 | 0.00 | 0.00 | 0.00 | 60 | 1017.2 |
| 20260507103535 | 15 | 334 | 6.4 | 14.5 | 0.00 | 0.00 | 0.00 | 59 | 1017.2 |
| 20260507103436 | 15 | 320 | 6.4 | 14.5 | 0.00 | 0.00 | 0.00 | 59 | 1017.3 |
| 20260507103336 | 15 | 0 | 8.0 | 14.5 | 0.00 | 0.00 | 0.00 | 57 | 1017.3 |
| 20260507103235 | 15 | 1 | 6.4 | 14.5 | 0.00 | 0.00 | 0.00 | 57 | 1017.2 |
| 20260507103135 | 15 | 340 | 3.2 | 14.5 | 0.00 | 0.00 | 0.00 | 57 | 1017.3 |
| 20260507103034 | 15 | 340 | 6.4 | 16.1 | 0.00 | 0.00 | 0.00 | 54 | 1017.2 |
| 20260507102934 | 15 | 0 | 6.4 | 16.1 | 0.00 | 0.00 | 0.00 | 53 | 1017.2 |
| 20260507102835 | 15 | 4 | 6.4 | 16.1 | 0.00 | 0.00 | 0.00 | 59 | 1017.3 |
| 20260507102735 | 15 | 0 | 8.0 | 16.1 | 0.00 | 0.00 | 0.00 | 60 | 1017.2 |
| 20260507102635 | 15 | 357 | 8.0 | 16.1 | 0.00 | 0.00 | 0.00 | 61 | 1017.2 |
| 20260507102536 | 15 | 3 | 6.4 | 16.1 | 0.00 | 0.00 | 0.00 | 60 | 1017.2 |
| 20260507102435 | 15 | 329 | 6.4 | 16.1 | 0.00 | 0.00 | 0.00 | 57 | 1017.2 |
| 20260507102337 | 15 | 329 | 6.4 | 16.1 | 0.00 | 0.00 | 0.00 | 59 | 1017.2 |
| 20260507102236 | 14 | 355 | 8.0 | 16.1 | 0.00 | 0.00 | 0.00 | 59 | 1017.2 |
| 20260507102135 | 14 | 1 | 9.7 | 16.1 | 0.00 | 0.00 | 0.00 | 58 | 1017.2 |
| 20260507102036 | 14 | 326 | 8.0 | 14.5 | 0.00 | 0.00 | 0.00 | 58 | 1017.1 |
| 20260507101936 | 14 | 348 | 6.4 | 14.5 | 0.00 | 0.00 | 0.00 | 58 | 1017.1 |
| 20260507101834 | 14 | 0 | 8.0 | 14.5 | 0.00 | 0.00 | 0.00 | 60 | 1017.2 |
| 20260507101735 | 14 | 0 | 9.7 | 14.5 | 0.00 | 0.00 | 0.00 | 60 | 1017.2 |
| 20260507101634 | 14 | 331 | 9.7 | 14.5 | 0.00 | 0.00 | 0.00 | 60 | 1017.2 |
| 20260507101538 | 14 | 348 | 9.7 | 14.5 | 0.00 | 0.00 | 0.00 | 60 | 1017.2 |
| 20260507101435 | 14 | 340 | 9.7 | 14.5 | 0.00 | 0.00 | 0.00 | 62 | 1017.2 |
| 20260507101336 | 14 | 0 | 8.0 | 16.1 | 0.00 | 0.00 | 0.00 | 60 | 1017.3 |
| 20260507101235 | 15 | 0 | 6.4 | 17.7 | 0.00 | 0.00 | 0.00 | 61 | 1017.3 |
| 20260507101135 | 15 | 7 | 8.0 | 17.7 | 0.00 | 0.00 | 0.00 | 56 | 1017.2 |
| 20260507101035 | 15 | 4 | 6.4 | 17.7 | 0.00 | 0.00 | 0.00 | 59 | 1017.2 |
| 20260507100936 | 15 | 6 | 6.4 | 17.7 | 0.00 | 0.00 | 0.00 | 59 | 1017.2 |
| 20260507100835 | 15 | 1 | 6.4 | 17.7 | 0.00 | 0.00 | 0.00 | 60 | 1017.2 |
| 20260507100735 | 14 | 13 | 6.4 | 17.7 | 0.00 | 0.00 | 0.00 | 59 | 1017.2 |
| 20260507100634 | 14 | 1 | 6.4 | 17.7 | 0.00 | 0.00 | 0.00 | 60 | 1017.1 |
| 20260507100535 | 14 | 0 | 8.0 | 17.7 | 0.00 | 0.00 | 0.00 | 62 | 1017.1 |
| 20260507100435 | 14 | 16 | 8.0 | 17.7 | 0.00 | 0.00 | 0.00 | 63 | 1017.2 |
| 20260507100335 | 14 | 353 | 8.0 | 17.7 | 0.00 | 0.00 | 0.00 | 62 | 1017.1 |
| 20260507100235 | 14 | 344 | 8.0 | 16.1 | 0.00 | 0.00 | 0.00 | 61 | 1017.0 |
| 20260507100135 | 14 | 350 | 9.7 | 16.1 | 0.00 | 0.00 | 0.00 | 61 | 1017.1 |
| 20260507100035 | 14 | 351 | 8.0 | 16.1 | 0.00 | 0.00 | 0.00 | 60 | 1017.1 |
| 20260507095936 | 14 | 0 | 8.0 | 16.1 | 0.00 | 0.00 | 0.00 | 62 | 1017.0 |
| 20260507095835 | 14 | 25 | 9.7 | 16.1 | 0.00 | 0.00 | 0.00 | 61 | 1017.1 |
| 20260507095736 | 14 | 343 | 8.0 | 16.1 | 0.00 | 0.00 | 0.00 | 62 | 1017.1 |
| 20260507095635 | 14 | 312 | 6.4 | 11.3 | 0.00 | 0.00 | 0.00 | 61 | 1017.0 |
| 20260507095535 | 14 | 34 | 6.4 | 11.3 | 0.00 | 0.00 | 0.00 | 60 | 1017.0 |
| 20260507095435 | 14 | 345 | 6.4 | 11.3 | 0.00 | 0.00 | 0.00 | 60 | 1017.0 |
| 20260507095335 | 14 | 358 | 6.4 | 11.3 | 0.00 | 0.00 | 0.00 | 61 | 1017.1 |
| 20260507095235 | 14 | 0 | 8.0 | 11.3 | 0.00 | 0.00 | 0.00 | 60 | 1017.1 |
| 20260507095135 | 14 | 330 | 6.4 | 11.3 | 0.00 | 0.00 | 0.00 | 61 | 1017.1 |
| 20260507095035 | 14 | 344 | 4.8 | 16.1 | 0.00 | 0.00 | 0.00 | 62 | 1017.0 |
| 20260507094935 | 14 | 347 | 4.8 | 16.1 | 0.00 | 0.00 | 0.00 | 59 | 1017.0 |
| 20260507094835 | 14 | 0 | 6.4 | 16.1 | 0.00 | 0.00 | 0.00 | 61 | 1017.0 |
| 20260507094735 | 14 | 0 | 6.4 | 16.1 | 0.00 | 0.00 | 0.00 | 63 | 1017.0 |
| 20260507094635 | 14 | 3 | 4.8 | 16.1 | 0.00 | 0.00 | 0.00 | 63 | 1017.0 |
| 20260507094534 | 14 | 0 | 3.2 | 16.1 | 0.00 | 0.00 | 0.00 | 64 | 1017.0 |
| 20260507094436 | 14 | 358 | 3.2 | 16.1 | 0.00 | 0.00 | 0.00 | 63 | 1017.0 |
| 20260507094335 | 14 | 0 | 6.4 | 16.1 | 0.00 | 0.00 | 0.00 | 61 | 1017.0 |
| 20260507094235 | 14 | 0 | 8.0 | 16.1 | 0.00 | 0.00 | 0.00 | 62 | 1017.0 |
| 20260507094135 | 14 | 0 | 6.4 | 16.1 | 0.00 | 0.00 | 0.00 | 61 | 1017.2 |
| 20260507094035 | 14 | 0 | 4.8 | 11.3 | 0.00 | 0.00 | 0.00 | 62 | 1017.0 |
| 20260507093934 | 14 | 0 | 6.4 | 11.3 | 0.00 | 0.00 | 0.00 | 63 | 1017.0 |
| 20260507093840 | 14 | 0 | 8.0 | 11.3 | 0.00 | 0.00 | 0.00 | 63 | 1017.0 |
| 20260507093736 | 14 | 358 | 8.0 | 11.3 | 0.00 | 0.00 | 0.00 | 64 | 1017.0 |
| 20260507093637 | 14 | 0 | 6.4 | 11.3 | 0.00 | 0.00 | 0.00 | 64 | 1017.0 |
| 20260507093537 | 14 | 351 | 6.4 | 11.3 | 0.00 | 0.00 | 0.00 | 64 | 1017.0 |
| 20260507093437 | 14 | 326 | 6.4 | 11.3 | 0.00 | 0.00 | 0.00 | 64 | 1017.0 |
| 20260507093336 | 14 | 348 | 6.4 | 11.3 | 0.00 | 0.00 | 0.00 | 63 | 1017.0 |
| 20260507093236 | 14 | 0 | 8.0 | 11.3 | 0.00 | 0.00 | 0.00 | 64 | 1017.0 |
| 20260507093135 | 14 | 1 | 9.7 | 11.3 | 0.00 | 0.00 | 0.00 | 64 | 1016.9 |
| 20260507093035 | 14 | 0 | 6.4 | 11.3 | 0.00 | 0.00 | 0.00 | 65 | 1016.9 |
| 20260507092935 | 14 | 14 | 4.8 | 11.3 | 0.00 | 0.00 | 0.00 | 68 | 1017.0 |
| 20260507092836 | 14 | 14 | 4.8 | 11.3 | 0.00 | 0.00 | 0.00 | 67 | 1017.0 |
| 20260507092735 | 13 | 8 | 4.8 | 11.3 | 0.00 | 0.00 | 0.00 | 65 | 1016.9 |
| 20260507092635 | 13 | 0 | 6.4 | 11.3 | 0.00 | 0.00 | 0.00 | 65 | 1017.0 |
| 20260507092535 | 13 | 21 | 6.4 | 14.5 | 0.00 | 0.00 | 0.00 | 65 | 1017.0 |
| 20260507092434 | 13 | 0 | 8.0 | 14.5 | 0.00 | 0.00 | 0.00 | 65 | 1016.9 |
| 20260507092335 | 13 | 3 | 8.0 | 14.5 | 0.00 | 0.00 | 0.00 | 66 | 1016.9 |
| 20260507092235 | 13 | 331 | 8.0 | 14.5 | 0.00 | 0.00 | 0.00 | 65 | 1016.9 |
| 20260507092135 | 13 | 1 | 8.0 | 14.5 | 0.00 | 0.00 | 0.00 | 65 | 1016.9 |
| 20260507092035 | 13 | 334 | 8.0 | 14.5 | 0.00 | 0.00 | 0.00 | 64 | 1016.9 |
| 20260507091935 | 13 | 341 | 8.0 | 14.5 | 0.00 | 0.00 | 0.00 | 64 | 1016.9 |
| 20260507091836 | 13 | 340 | 8.0 | 14.5 | 0.00 | 0.00 | 0.00 | 66 | 1016.8 |
| 20260507091735 | 13 | 351 | 8.0 | 14.5 | 0.00 | 0.00 | 0.00 | 67 | 1016.8 |
| 20260507091635 | 14 | 3 | 6.4 | 14.5 | 0.00 | 0.00 | 0.00 | 69 | 1016.7 |
| 20260507091535 | 13 | 0 | 3.2 | 14.5 | 0.00 | 0.00 | 0.00 | 70 | 1016.8 |
| 20260507091437 | 13 | 310 | 3.2 | 14.5 | 0.00 | 0.00 | 0.00 | 68 | 1016.8 |
| 20260507091338 | 13 | 310 | 4.8 | 14.5 | 0.00 | 0.00 | 0.00 | 67 | 1016.8 |
| 20260507091238 | 13 | 312 | 6.4 | 14.5 | 0.00 | 0.00 | 0.00 | 68 | 1016.8 |
| 20260507091137 | 13 | 320 | 6.4 | 14.5 | 0.00 | 0.00 | 0.00 | 69 | 1016.9 |
| 20260507091035 | 13 | 21 | 4.8 | 14.5 | 0.00 | 0.00 | 0.00 | 69 | 1016.8 |
| 20260507090934 | 13 | 0 | 4.8 | 14.5 | 0.00 | 0.00 | 0.00 | 68 | 1016.8 |
| 20260507090835 | 13 | 333 | 6.4 | 14.5 | 0.00 | 0.00 | 0.00 | 68 | 1016.8 |
| 20260507090734 | 13 | 358 | 8.0 | 14.5 | 0.00 | 0.00 | 0.00 | 70 | 1016.8 |
| 20260507090634 | 13 | 0 | 8.0 | 11.3 | 0.00 | 0.00 | 0.00 | 70 | 1016.8 |
| 20260507090535 | 13 | 358 | 4.8 | 11.3 | 0.00 | 0.00 | 0.00 | 70 | 1016.8 |
| 20260507090435 | 13 | 344 | 4.8 | 11.3 | 0.00 | 0.00 | 0.00 | 69 | 1016.8 |
| 20260507090334 | 13 | 343 | 6.4 | 14.5 | 0.00 | 0.00 | 0.00 | 71 | 1016.8 |
| 20260507090235 | 13 | 338 | 3.2 | 16.1 | 0.00 | 0.00 | 0.00 | 71 | 1016.8 |
| 20260507090135 | 13 | 42 | 4.8 | 16.1 | 0.00 | 0.00 | 0.00 | 69 | 1016.8 |
| 20260507090035 | 13 | 42 | 6.4 | 16.1 | 0.00 | 0.00 | 0.00 | 70 | 1016.8 |
| 20260507085935 | 13 | 42 | 6.4 | 16.1 | 0.00 | 0.00 | 0.00 | 70 | 1016.8 |
| 20260507085835 | 13 | 3 | 8.0 | 16.1 | 0.00 | 0.00 | 0.00 | 70 | 1016.8 |
| 20260507085734 | 13 | 1 | 8.0 | 16.1 | 0.00 | 0.00 | 0.00 | 70 | 1016.9 |
| 20260507085636 | 13 | 323 | 8.0 | 16.1 | 0.00 | 0.00 | 0.00 | 69 | 1016.8 |
| 20260507085536 | 13 | 323 | 8.0 | 16.1 | 0.00 | 0.00 | 0.00 | 70 | 1016.8 |
| 20260507085436 | 13 | 338 | 9.7 | 16.1 | 0.00 | 0.00 | 0.00 | 70 | 1016.8 |
| 20260507085336 | 13 | 331 | 9.7 | 16.1 | 0.00 | 0.00 | 0.00 | 70 | 1016.9 |
| 20260507085236 | 13 | 330 | 6.4 | 14.5 | 0.00 | 0.00 | 0.00 | 69 | 1016.8 |
| 20260507085136 | 13 | 358 | 8.0 | 14.5 | 0.00 | 0.00 | 0.00 | 70 | 1016.8 |
| 20260507085037 | 13 | 0 | 8.0 | 14.5 | 0.00 | 0.00 | 0.00 | 70 | 1016.8 |
| 20260507084937 | 13 | 323 | 4.8 | 14.5 | 0.00 | 0.00 | 0.00 | 71 | 1016.7 |
| 20260507084837 | 13 | 350 | 4.8 | 14.5 | 0.00 | 0.00 | 0.00 | 71 | 1016.7 |
| 20260507084735 | 13 | 350 | 8.0 | 14.5 | 0.00 | 0.00 | 0.00 | 71 | 1016.8 |
| 20260507084635 | 13 | 0 | 8.0 | 14.5 | 0.00 | 0.00 | 0.00 | 71 | 1016.7 |
| 20260507084535 | 13 | 350 | 6.4 | 14.5 | 0.00 | 0.00 | 0.00 | 73 | 1016.7 |
| 20260507084435 | 13 | 326 | 6.4 | 14.5 | 0.00 | 0.00 | 0.00 | 73 | 1016.7 |
| 20260507084335 | 13 | 334 | 6.4 | 14.5 | 0.00 | 0.00 | 0.00 | 70 | 1016.7 |
| 20260507084235 | 13 | 336 | 9.7 | 14.5 | 0.00 | 0.00 | 0.00 | 71 | 1016.7 |
| 20260507084134 | 13 | 354 | 8.0 | 14.5 | 0.00 | 0.00 | 0.00 | 70 | 1016.7 |
| 20260507084035 | 13 | 337 | 8.0 | 14.5 | 0.00 | 0.00 | 0.00 | 70 | 1016.7 |
| 20260507083935 | 13 | 10 | 8.0 | 14.5 | 0.00 | 0.00 | 0.00 | 71 | 1016.7 |
| 20260507083835 | 13 | 0 | 4.8 | 11.3 | 0.00 | 0.00 | 0.00 | 71 | 1016.7 |
| 20260507083736 | 13 | 14 | 6.4 | 11.3 | 0.00 | 0.00 | 0.00 | 71 | 1016.8 |
| 20260507083635 | 13 | 0 | 8.0 | 11.3 | 0.00 | 0.00 | 0.00 | 71 | 1016.7 |
| 20260507083535 | 13 | 0 | 6.4 | 11.3 | 0.00 | 0.00 | 0.00 | 73 | 1016.6 |
| 20260507083437 | 13 | 355 | 6.4 | 11.3 | 0.00 | 0.00 | 0.00 | 72 | 1016.7 |
| 20260507083338 | 13 | 358 | 6.4 | 11.3 | 0.00 | 0.00 | 0.00 | 71 | 1016.7 |
| 20260507083235 | 13 | 0 | 4.8 | 11.3 | 0.00 | 0.00 | 0.00 | 72 | 1016.7 |
| 20260507083135 | 13 | 16 | 4.8 | 11.3 | 0.00 | 0.00 | 0.00 | 71 | 1016.7 |
| 20260507083034 | 13 | 16 | 4.8 | 11.3 | 0.00 | 0.00 | 0.00 | 71 | 1016.8 |
| 20260507082935 | 13 | 16 | 6.4 | 11.3 | 0.00 | 0.00 | 0.00 | 71 | 1016.8 |
| 20260507082835 | 13 | 10 | 8.0 | 11.3 | 0.00 | 0.00 | 0.00 | 71 | 1016.8 |
| 20260507082735 | 13 | 8 | 8.0 | 11.3 | 0.00 | 0.00 | 0.00 | 70 | 1016.8 |
| 20260507082635 | 13 | 1 | 6.4 | 9.7 | 0.00 | 0.00 | 0.00 | 71 | 1016.7 |
| 20260507082535 | 13 | 343 | 6.4 | 9.7 | 0.00 | 0.00 | 0.00 | 71 | 1016.6 |
| 20260507082435 | 13 | 0 | 6.4 | 9.7 | 0.00 | 0.00 | 0.00 | 70 | 1016.6 |
| 20260507082335 | 13 | 326 | 4.8 | 9.7 | 0.00 | 0.00 | 0.00 | 71 | 1016.7 |
| 20260507082234 | 13 | 0 | 4.8 | 9.7 | 0.00 | 0.00 | 0.00 | 71 | 1016.7 |
| 20260507082135 | 13 | 1 | 3.2 | 9.7 | 0.00 | 0.00 | 0.00 | 72 | 1016.7 |
| 20260507082035 | 13 | 1 | 4.8 | 9.7 | 0.00 | 0.00 | 0.00 | 73 | 1016.8 |
| 20260507081935 | 13 | 0 | 4.8 | 11.3 | 0.00 | 0.00 | 0.00 | 73 | 1016.8 |
| 20260507081835 | 13 | 31 | 4.8 | 11.3 | 0.00 | 0.00 | 0.00 | 74 | 1016.7 |
| 20260507081735 | 13 | 58 | 4.8 | 11.3 | 0.00 | 0.00 | 0.00 | 73 | 1016.7 |
| 20260507081637 | 13 | 58 | 6.4 | 11.3 | 0.00 | 0.00 | 0.00 | 73 | 1016.7 |
| 20260507081536 | 13 | 55 | 4.8 | 11.3 | 0.00 | 0.00 | 0.00 | 73 | 1016.7 |
| 20260507081436 | 13 | 28 | 3.2 | 11.3 | 0.00 | 0.00 | 0.00 | 73 | 1016.6 |
| 20260507081335 | 13 | 28 | 4.8 | 11.3 | 0.00 | 0.00 | 0.00 | 73 | 1016.6 |
| 20260507081235 | 13 | 27 | 6.4 | 11.3 | 0.00 | 0.00 | 0.00 | 72 | 1016.6 |
| 20260507081135 | 13 | 0 | 6.4 | 14.5 | 0.00 | 0.00 | 0.00 | 72 | 1016.6 |
| 20260507081035 | 13 | 0 | 6.4 | 14.5 | 0.00 | 0.00 | 0.00 | 73 | 1016.6 |
| 20260507080935 | 13 | 353 | 4.8 | 14.5 | 0.00 | 0.00 | 0.00 | 74 | 1016.6 |
| 20260507080836 | 12 | 0 | 3.2 | 14.5 | 0.00 | 0.00 | 0.00 | 74 | 1016.7 |
| 20260507080736 | 12 | 0 | 4.8 | 14.5 | 0.00 | 0.00 | 0.00 | 73 | 1016.6 |
| 20260507080635 | 12 | 0 | 6.4 | 14.5 | 0.00 | 0.00 | 0.00 | 73 | 1016.7 |
| 20260507080535 | 12 | 0 | 6.4 | 14.5 | 0.00 | 0.00 | 0.00 | 72 | 1016.7 |
| 20260507080435 | 12 | 334 | 6.4 | 14.5 | 0.00 | 0.00 | 0.00 | 72 | 1016.6 |
| 20260507080335 | 12 | 11 | 6.4 | 14.5 | 0.00 | 0.00 | 0.00 | 73 | 1016.7 |
| 20260507080235 | 12 | 34 | 8.0 | 14.5 | 0.00 | 0.00 | 0.00 | 73 | 1016.7 |
| 20260507080135 | 13 | 39 | 4.8 | 9.7 | 0.00 | 0.00 | 0.00 | 73 | 1016.6 |
| 20260507080036 | 13 | 28 | 3.2 | 11.3 | 0.00 | 0.00 | 0.00 | 73 | 1016.6 |
| 20260507075937 | 13 | 28 | 3.2 | 11.3 | 0.00 | 0.00 | 0.00 | 73 | 1016.6 |
| 20260507075837 | 13 | 28 | 4.8 | 11.3 | 0.00 | 0.00 | 0.00 | 74 | 1016.6 |
| 20260507075737 | 12 | 27 | 4.8 | 11.3 | 0.00 | 0.00 | 0.00 | 74 | 1016.6 |
| 20260507075638 | 12 | 0 | 4.8 | 11.3 | 0.00 | 0.00 | 0.00 | 73 | 1016.6 |
| 20260507075538 | 12 | 0 | 4.8 | 11.3 | 0.00 | 0.00 | 0.00 | 74 | 1016.6 |
| 20260507075436 | 12 | 0 | 3.2 | 11.3 | 0.00 | 0.00 | 0.00 | 75 | 1016.6 |
| 20260507075335 | 12 | 0 | 3.2 | 11.3 | 0.00 | 0.00 | 0.00 | 74 | 1016.6 |
| 20260507075234 | 12 | 1 | 6.4 | 11.3 | 0.00 | 0.00 | 0.00 | 74 | 1016.6 |
| 20260507075135 | 12 | 0 | 6.4 | 11.3 | 0.00 | 0.00 | 0.00 | 74 | 1016.5 |
| 20260507075035 | 12 | 341 | 4.8 | 11.3 | 0.00 | 0.00 | 0.00 | 74 | 1016.5 |
| 20260507074935 | 12 | 355 | 6.4 | 11.3 | 0.00 | 0.00 | 0.00 | 74 | 1016.6 |
| 20260507074834 | 12 | 355 | 6.4 | 11.3 | 0.00 | 0.00 | 0.00 | 75 | 1016.6 |
| 20260507074735 | 12 | 0 | 4.8 | 11.3 | 0.00 | 0.00 | 0.00 | 76 | 1016.5 |
| 20260507074635 | 12 | 44 | 3.2 | 11.3 | 0.00 | 0.00 | 0.00 | 75 | 1016.5 |
| 20260507074535 | 12 | 35 | 3.2 | 11.3 | 0.00 | 0.00 | 0.00 | 74 | 1016.5 |
| 20260507074435 | 12 | 358 | 4.8 | 11.3 | 0.00 | 0.00 | 0.00 | 74 | 1016.5 |
| 20260507074335 | 12 | 358 | 6.4 | 11.3 | 0.00 | 0.00 | 0.00 | 73 | 1016.5 |
| 20260507074235 | 12 | 358 | 6.4 | 11.3 | 0.00 | 0.00 | 0.00 | 74 | 1016.5 |
| 20260507074135 | 12 | 0 | 4.8 | 11.3 | 0.00 | 0.00 | 0.00 | 75 | 1016.5 |
| 20260507074037 | 12 | 28 | 4.8 | 11.3 | 0.00 | 0.00 | 0.00 | 75 | 1016.5 |
| 20260507073938 | 12 | 30 | 3.2 | 9.7 | 0.00 | 0.00 | 0.00 | 77 | 1016.5 |
| 20260507073835 | 12 | 30 | 3.2 | 9.7 | 0.00 | 0.00 | 0.00 | 77 | 1016.5 |
| 20260507073736 | 12 | 6 | 1.6 | 9.7 | 0.00 | 0.00 | 0.00 | 76 | 1016.5 |
| 20260507073635 | 12 | 6 | 3.2 | 9.7 | 0.00 | 0.00 | 0.00 | 77 | 1016.5 |
| 20260507073535 | 12 | 4 | 3.2 | 9.7 | 0.00 | 0.00 | 0.00 | 77 | 1016.6 |
| 20260507073435 | 12 | 6 | 4.8 | 9.7 | 0.00 | 0.00 | 0.00 | 76 | 1016.5 |
| 20260507073335 | 12 | 10 | 3.2 | 9.7 | 0.00 | 0.00 | 0.00 | 77 | 1016.5 |
| 20260507073236 | 12 | 32 | 3.2 | 9.7 | 0.00 | 0.00 | 0.00 | 76 | 1016.5 |
| 20260507073136 | 12 | 32 | 3.2 | 9.7 | 0.00 | 0.00 | 0.00 | 76 | 1016.4 |
| 20260507073035 | 12 | 32 | 4.8 | 9.7 | 0.00 | 0.00 | 0.00 | 76 | 1016.5 |
| 20260507072935 | 12 | 32 | 6.4 | 9.7 | 0.00 | 0.00 | 0.00 | 76 | 1016.6 |
| 20260507072835 | 12 | 3 | 4.8 | 9.7 | 0.00 | 0.00 | 0.00 | 76 | 1016.5 |
| 20260507072734 | 12 | 0 | 4.8 | 9.7 | 0.00 | 0.00 | 0.00 | 76 | 1016.5 |
| 20260507072634 | 12 | 0 | 4.8 | 9.7 | 0.00 | 0.00 | 0.00 | 76 | 1016.5 |
| 20260507072534 | 12 | 344 | 3.2 | 9.7 | 0.00 | 0.00 | 0.00 | 76 | 1016.5 |
| 20260507072435 | 12 | 47 | 3.2 | 9.7 | 0.00 | 0.00 | 0.00 | 77 | 1016.5 |
| 20260507072335 | 12 | 47 | 3.2 | 9.7 | 0.00 | 0.00 | 0.00 | 78 | 1016.6 |
| 20260507072235 | 12 | 45 | 3.2 | 9.7 | 0.00 | 0.00 | 0.00 | 78 | 1016.5 |
| 20260507072138 | 12 | 118 | 4.8 | 9.7 | 0.00 | 0.00 | 0.00 | 76 | 1016.5 |
| 20260507072037 | 12 | 102 | 4.8 | 9.7 | 0.00 | 0.00 | 0.00 | 77 | 1016.5 |
| 20260507071936 | 12 | 90 | 4.8 | 9.7 | 0.00 | 0.00 | 0.00 | 76 | 1016.5 |
| 20260507071836 | 12 | 92 | 6.4 | 9.7 | 0.00 | 0.00 | 0.00 | 75 | 1016.5 |
| 20260507071736 | 12 | 90 | 6.4 | 9.7 | 0.00 | 0.00 | 0.00 | 77 | 1016.5 |
| 20260507071635 | 12 | 116 | 4.8 | 9.7 | 0.00 | 0.00 | 0.00 | 79 | 1016.5 |
| 20260507071536 | 11 | 121 | 4.8 | 9.7 | 0.00 | 0.00 | 0.00 | 77 | 1016.5 |
| 20260507071434 | 12 | 90 | 6.4 | 9.7 | 0.00 | 0.00 | 0.00 | 78 | 1016.5 |
| 20260507071336 | 11 | 96 | 4.8 | 9.7 | 0.00 | 0.00 | 0.00 | 78 | 1016.4 |
| 20260507071236 | 11 | 0 | 6.4 | 9.7 | 0.00 | 0.00 | 0.00 | 78 | 1016.4 |
| 20260507071135 | 11 | 0 | 6.4 | 9.7 | 0.00 | 0.00 | 0.00 | 78 | 1016.4 |
| 20260507071034 | 11 | 34 | 6.4 | 14.5 | 0.00 | 0.00 | 0.00 | 79 | 1016.4 |
| 20260507070936 | 11 | 358 | 4.8 | 14.5 | 0.00 | 0.00 | 0.00 | 79 | 1016.4 |
| 20260507070834 | 11 | 44 | 3.2 | 14.5 | 0.00 | 0.00 | 0.00 | 80 | 1016.3 |
| 20260507070735 | 11 | 44 | 4.8 | 14.5 | 0.00 | 0.00 | 0.00 | 80 | 1016.4 |
| 20260507070635 | 11 | 44 | 6.4 | 14.5 | 0.00 | 0.00 | 0.00 | 80 | 1016.5 |
| 20260507070536 | 11 | 0 | 6.4 | 14.5 | 0.00 | 0.00 | 0.00 | 80 | 1016.4 |
| 20260507070435 | 11 | 8 | 4.8 | 14.5 | 0.00 | 0.00 | 0.00 | 80 | 1016.4 |
| 20260507070335 | 11 | 16 | 4.8 | 14.5 | 0.00 | 0.00 | 0.00 | 80 | 1016.4 |
| 20260507070236 | 11 | 45 | 4.8 | 14.5 | 0.00 | 0.00 | 0.00 | 80 | 1016.4 |
| 20260507070136 | 11 | 0 | 6.4 | 14.5 | 0.00 | 0.00 | 0.00 | 80 | 1016.4 |
| 20260507070037 | 11 | 357 | 8.0 | 11.3 | 0.00 | 0.00 | 0.00 | 80 | 1016.4 |
| 20260507065936 | 11 | 0 | 8.0 | 11.3 | 0.00 | 0.00 | 0.00 | 80 | 1016.4 |
| 20260507065834 | 11 | 3 | 6.4 | 11.3 | 0.00 | 0.00 | 0.00 | 80 | 1016.4 |
| 20260507065734 | 11 | 45 | 6.4 | 11.3 | 0.00 | 0.00 | 0.00 | 81 | 1016.4 |
| 20260507065633 | 11 | 21 | 6.4 | 11.3 | 0.00 | 0.00 | 0.00 | 81 | 1016.4 |
| 20260507065532 | 11 | 0 | 6.4 | 11.3 | 0.00 | 0.00 | 0.00 | 81 | 1016.4 |
| 20260507065430 | 11 | 0 | 6.4 | 11.3 | 0.00 | 0.00 | 0.00 | 81 | 1016.3 |
| 20260507065329 | 11 | 0 | 6.4 | 11.3 | 0.00 | 0.00 | 0.00 | 81 | 1016.5 |
| 20260507065229 | 11 | 14 | 6.4 | 11.3 | 0.00 | 0.00 | 0.00 | 81 | 1016.3 |
| 20260507065129 | 11 | 24 | 6.4 | 14.5 | 0.00 | 0.00 | 0.00 | 81 | 1016.4 |
| 20260507065029 | 11 | 27 | 6.4 | 14.5 | 0.00 | 0.00 | 0.00 | 81 | 1016.4 |
| 20260507064930 | 11 | 31 | 8.0 | 14.5 | 0.00 | 0.00 | 0.00 | 82 | 1016.4 |
| 20260507064828 | 11 | 17 | 6.4 | 14.5 | 0.00 | 0.00 | 0.00 | 82 | 1016.4 |
| 20260507064728 | 11 | 47 | 6.4 | 14.5 | 0.00 | 0.00 | 0.00 | 82 | 1016.4 |
| 20260507064628 | 11 | 59 | 6.4 | 14.5 | 0.00 | 0.00 | 0.00 | 82 | 1016.4 |
| 20260507064527 | 11 | 79 | 6.4 | 14.5 | 0.00 | 0.00 | 0.00 | 82 | 1016.4 |
| 20260507064426 | 11 | 39 | 4.8 | 14.5 | 0.00 | 0.00 | 0.00 | 83 | 1016.3 |
| 20260507064326 | 11 | 34 | 6.4 | 14.5 | 0.00 | 0.00 | 0.00 | 83 | 1016.4 |
| 20260507064227 | 11 | 34 | 6.4 | 14.5 | 0.00 | 0.00 | 0.00 | 83 | 1016.4 |
| 20260507064126 | 11 | 52 | 3.2 | 14.5 | 0.00 | 0.00 | 0.00 | 83 | 1016.4 |
| 20260507064026 | 11 | 58 | 3.2 | 14.5 | 0.00 | 0.00 | 0.00 | 83 | 1016.4 |
| 20260507063923 | 11 | 59 | 4.8 | 14.5 | 0.00 | 0.00 | 0.00 | 83 | 1016.4 |
| 20260507063822 | 11 | 59 | 3.2 | 14.5 | 0.00 | 0.00 | 0.00 | 84 | 1016.4 |
| 20260507063722 | 11 | 59 | 4.8 | 14.5 | 0.00 | 0.00 | 0.00 | 84 | 1016.4 |
| 20260507063622 | 11 | 59 | 6.4 | 14.5 | 0.00 | 0.00 | 0.00 | 84 | 1016.4 |
| 20260507063521 | 10 | 52 | 6.4 | 14.5 | 0.00 | 0.00 | 0.00 | 84 | 1016.4 |
| 20260507063421 | 10 | 55 | 6.4 | 14.5 | 0.00 | 0.00 | 0.00 | 84 | 1016.3 |
| 20260507063320 | 10 | 0 | 8.0 | 14.5 | 0.00 | 0.00 | 0.00 | 84 | 1016.3 |
| 20260507063222 | 10 | 14 | 8.0 | 14.5 | 0.00 | 0.00 | 0.00 | 83 | 1016.4 |
| 20260507063123 | 10 | 11 | 8.0 | 14.5 | 0.00 | 0.00 | 0.00 | 84 | 1016.3 |
| 20260507063020 | 10 | 66 | 8.0 | 14.5 | 0.00 | 0.00 | 0.00 | 84 | 1016.3 |
| 20260507062919 | 10 | 25 | 6.4 | 14.5 | 0.00 | 0.00 | 0.00 | 84 | 1016.4 |
| 20260507062817 | 10 | 11 | 6.4 | 14.5 | 0.00 | 0.00 | 0.00 | 84 | 1016.4 |
| 20260507062716 | 10 | 1 | 8.0 | 14.5 | 0.00 | 0.00 | 0.00 | 84 | 1016.3 |
| 20260507062616 | 10 | 21 | 8.0 | 14.5 | 0.00 | 0.00 | 0.00 | 84 | 1016.2 |
| 20260507062515 | 10 | 0 | 6.4 | 14.5 | 0.00 | 0.00 | 0.00 | 84 | 1016.2 |
| 20260507062414 | 10 | 0 | 8.0 | 14.5 | 0.00 | 0.00 | 0.00 | 84 | 1016.3 |
| 20260507062311 | 10 | 34 | 6.4 | 14.5 | 0.00 | 0.00 | 0.00 | 84 | 1016.2 |
| 20260507062212 | 10 | 58 | 4.8 | 14.5 | 0.00 | 0.00 | 0.00 | 85 | 1016.3 |
| 20260507062110 | 10 | 61 | 3.2 | 14.5 | 0.00 | 0.00 | 0.00 | 85 | 1016.3 |
| 20260507062011 | 10 | 61 | 4.8 | 14.5 | 0.00 | 0.00 | 0.00 | 85 | 1016.2 |
| 20260507061909 | 10 | 62 | 6.4 | 14.5 | 0.00 | 0.00 | 0.00 | 85 | 1016.3 |
| 20260507061810 | 10 | 357 | 4.8 | 14.5 | 0.00 | 0.00 | 0.00 | 86 | 1016.1 |
| 20260507061710 | 10 | 4 | 3.2 | 11.3 | 0.00 | 0.00 | 0.00 | 86 | 1016.2 |
| 20260507061609 | 10 | 4 | 4.8 | 11.3 | 0.00 | 0.00 | 0.00 | 86 | 1016.2 |
| 20260507061509 | 10 | 18 | 6.4 | 11.3 | 0.00 | 0.00 | 0.00 | 85 | 1016.1 |
| 20260507061407 | 10 | 353 | 8.0 | 11.3 | 0.00 | 0.00 | 0.00 | 86 | 1016.2 |
| 20260507061307 | 10 | 17 | 6.4 | 11.3 | 0.00 | 0.00 | 0.00 | 86 | 1016.2 |
| 20260507061208 | 10 | 4 | 4.8 | 11.3 | 0.00 | 0.00 | 0.00 | 86 | 1016.1 |
| 20260507061107 | 10 | 16 | 6.4 | 11.3 | 0.00 | 0.00 | 0.00 | 86 | 1016.1 |
| 20260507061007 | 10 | 18 | 6.4 | 11.3 | 0.00 | 0.00 | 0.00 | 86 | 1016.1 |
| 20260507060906 | 10 | 28 | 6.4 | 11.3 | 0.00 | 0.00 | 0.00 | 87 | 1016.1 |
| 20260507060810 | 10 | 0 | 6.4 | 11.3 | 0.00 | 0.00 | 0.00 | 87 | 1016.1 |
| 20260507060705 | 10 | 28 | 6.4 | 14.5 | 0.00 | 0.00 | 0.00 | 87 | 1016.0 |
| 20260507060606 | 10 | 0 | 6.4 | 14.5 | 0.00 | 0.00 | 0.00 | 87 | 1016.1 |
| 20260507060506 | 10 | 25 | 4.8 | 14.5 | 0.00 | 0.00 | 0.00 | 87 | 1016.0 |
| 20260507060405 | 10 | 3 | 3.2 | 14.5 | 0.00 | 0.00 | 0.00 | 87 | 1016.0 |
| 20260507060300 | 10 | 39 | 3.2 | 14.5 | 0.00 | 0.00 | 0.00 | 88 | 1016.0 |
| 20260507060200 | 10 | 39 | 3.2 | 14.5 | 0.00 | 0.00 | 0.00 | 88 | 1016.0 |
| 20260507060101 | 10 | 39 | 6.4 | 14.5 | 0.00 | 0.00 | 0.00 | 88 | 1016.0 |
| 20260507060001 | 10 | 39 | 6.4 | 14.5 | 0.00 | 0.00 | 0.00 | 88 | 1016.1 |
| 20260507055901 | 10 | 24 | 6.4 | 14.5 | 0.00 | 0.00 | 0.00 | 88 | 1016.0 |
| 20260507055800 | 10 | 28 | 4.8 | 14.5 | 0.00 | 0.00 | 0.00 | 88 | 1016.1 |
| 20260507055659 | 10 | 34 | 6.4 | 14.5 | 0.00 | 0.00 | 0.00 | 88 | 1016.1 |
| 20260507055559 | 10 | 34 | 8.0 | 14.5 | 0.00 | 0.00 | 0.00 | 88 | 1016.1 |
| 20260507055459 | 10 | 41 | 8.0 | 11.3 | 0.00 | 0.00 | 0.00 | 88 | 1016.1 |
| 20260507055358 | 10 | 1 | 4.8 | 11.3 | 0.00 | 0.00 | 0.00 | 88 | 1016.0 |
| 20260507055258 | 10 | 27 | 4.8 | 11.3 | 0.00 | 0.00 | 0.00 | 88 | 1016.0 |
| 20260507055157 | 10 | 27 | 6.4 | 11.3 | 0.00 | 0.00 | 0.00 | 88 | 1016.1 |
| 20260507055057 | 10 | 25 | 6.4 | 11.3 | 0.00 | 0.00 | 0.00 | 88 | 1016.0 |
| 20260507054957 | 10 | 37 | 6.4 | 11.3 | 0.00 | 0.00 | 0.00 | 89 | 1016.0 |
| 20260507054855 | 10 | 8 | 6.4 | 11.3 | 0.00 | 0.00 | 0.00 | 89 | 1016.0 |
| 20260507054756 | 10 | 17 | 6.4 | 11.3 | 0.00 | 0.00 | 0.00 | 89 | 1016.0 |
| 20260507054656 | 10 | 27 | 4.8 | 11.3 | 0.00 | 0.00 | 0.00 | 89 | 1016.0 |
| 20260507054558 | 10 | 48 | 4.8 | 11.3 | 0.00 | 0.00 | 0.00 | 89 | 1016.0 |
| 20260507054457 | 10 | 48 | 4.8 | 11.3 | 0.00 | 0.00 | 0.00 | 89 | 1016.1 |
| 20260507054355 | 10 | 25 | 4.8 | 8.0 | 0.00 | 0.00 | 0.00 | 89 | 1016.0 |
| 20260507054253 | 10 | 25 | 4.8 | 8.0 | 0.00 | 0.00 | 0.00 | 89 | 1016.0 |
| 20260507054151 | 10 | 25 | 4.8 | 8.0 | 0.00 | 0.00 | 0.00 | 90 | 1016.0 |
| 20260507054039 | 10 | 21 | 4.8 | 8.0 | 0.00 | 0.00 | 0.00 | 90 | 1016.1 |
| 20260507053939 | 10 | 21 | 3.2 | 8.0 | 0.00 | 0.00 | 0.00 | 90 | 1016.1 |
| 20260507053839 | 10 | 1 | 3.2 | 8.0 | 0.00 | 0.00 | 0.00 | 90 | 1016.0 |
| 20260507053738 | 9 | 0 | 3.2 | 8.0 | 0.00 | 0.00 | 0.00 | 90 | 1016.0 |
| 20260507053637 | 9 | 1 | 3.2 | 8.0 | 0.00 | 0.00 | 0.00 | 90 | 1016.1 |
| 20260507053536 | 9 | 8 | 4.8 | 8.0 | 0.00 | 0.00 | 0.00 | 90 | 1016.0 |
| 20260507053437 | 9 | 8 | 4.8 | 8.0 | 0.00 | 0.00 | 0.00 | 90 | 1016.1 |
| 20260507053337 | 9 | 11 | 3.2 | 8.0 | 0.00 | 0.00 | 0.00 | 91 | 1016.1 |
| 20260507053134 | 9 | 20 | 3.2 | 9.7 | 0.00 | 0.00 | 0.00 | 91 | 1016.1 |
| 20260507053034 | 9 | 21 | 3.2 | 9.7 | 0.00 | 0.00 | 0.00 | 91 | 1016.1 |
| 20260507052934 | 9 | 21 | 3.2 | 9.7 | 0.00 | 0.00 | 0.00 | 91 | 1016.0 |
| 20260507052834 | 9 | 21 | 3.2 | 9.7 | 0.00 | 0.00 | 0.00 | 91 | 1016.0 |
| 20260507052734 | 9 | 21 | 4.8 | 9.7 | 0.00 | 0.00 | 0.00 | 91 | 1016.0 |
| 20260507052635 | 9 | 31 | 4.8 | 9.7 | 0.00 | 0.00 | 0.00 | 91 | 1016.0 |
| 20260507052535 | 9 | 52 | 3.2 | 9.7 | 0.00 | 0.00 | 0.00 | 91 | 1016.0 |
| 20260507052434 | 9 | 52 | 4.8 | 9.7 | 0.00 | 0.00 | 0.00 | 92 | 1015.9 |
| 20260507052335 | 9 | 54 | 4.8 | 9.7 | 0.00 | 0.00 | 0.00 | 92 | 1015.9 |
| 20260507052234 | 9 | 55 | 4.8 | 9.7 | 0.00 | 0.00 | 0.00 | 92 | 1015.9 |
| 20260507052134 | 9 | 1 | 4.8 | 8.0 | 0.00 | 0.00 | 0.00 | 92 | 1015.9 |
| 20260507052035 | 9 | 1 | 3.2 | 8.0 | 0.00 | 0.00 | 0.00 | 92 | 1015.9 |
| 20260507051935 | 8 | 1 | 3.2 | 8.0 | 0.00 | 0.00 | 0.00 | 92 | 1015.9 |
| 20260507051834 | 8 | 1 | 3.2 | 8.0 | 0.00 | 0.00 | 0.00 | 92 | 1015.8 |
| 20260507051734 | 8 | 1 | 3.2 | 8.0 | 0.00 | 0.00 | 0.00 | 92 | 1015.9 |
| 20260507051633 | 8 | 1 | 3.2 | 8.0 | 0.00 | 0.00 | 0.00 | 92 | 1015.8 |
| 20260507051534 | 8 | 1 | 3.2 | 8.0 | 0.00 | 0.00 | 0.00 | 92 | 1015.8 |
| 20260507051434 | 8 | 0 | 3.2 | 8.0 | 0.00 | 0.00 | 0.00 | 92 | 1015.8 |
| 20260507051331 | 8 | 3 | 3.2 | 8.0 | 0.00 | 0.00 | 0.00 | 93 | 1015.8 |
| 20260507051229 | 8 | 1 | 3.2 | 8.0 | 0.00 | 0.00 | 0.00 | 93 | 1015.7 |
| 20260507051130 | 8 | 1 | 4.8 | 8.0 | 0.00 | 0.00 | 0.00 | 93 | 1015.7 |
| 20260507051030 | 8 | 1 | 4.8 | 8.0 | 0.00 | 0.00 | 0.00 | 93 | 1015.8 |
| 20260507050930 | 8 | 1 | 3.2 | 8.0 | 0.00 | 0.00 | 0.00 | 92 | 1015.7 |
| 20260507050829 | 8 | 1 | 4.8 | 8.0 | 0.00 | 0.00 | 0.00 | 92 | 1015.7 |
| 20260507050727 | 8 | 16 | 4.8 | 8.0 | 0.00 | 0.00 | 0.00 | 93 | 1015.8 |
| 20260507050626 | 8 | 16 | 4.8 | 8.0 | 0.00 | 0.00 | 0.00 | 93 | 1015.7 |
| 20260507050526 | 8 | 16 | 3.2 | 8.0 | 0.00 | 0.00 | 0.00 | 93 | 1015.8 |
| 20260507050435 | 8 | 16 | 3.2 | 8.0 | 0.00 | 0.00 | 0.00 | 93 | 1015.7 |
| 20260507050326 | 8 | 16 | 3.2 | 8.0 | 0.00 | 0.00 | 0.00 | 93 | 1015.7 |
| 20260507050225 | 8 | 16 | 3.2 | 8.0 | 0.00 | 0.00 | 0.00 | 93 | 1015.7 |
| 20260507050126 | 8 | 16 | 3.2 | 8.0 | 0.00 | 0.00 | 0.00 | 93 | 1015.7 |
| 20260507050024 | 8 | 16 | 3.2 | 8.0 | 0.00 | 0.00 | 0.00 | 93 | 1015.5 |
| 20260507045925 | 8 | 16 | 3.2 | 8.0 | 0.00 | 0.00 | 0.00 | 93 | 1015.7 |
| 20260507045824 | 8 | 17 | 3.2 | 8.0 | 0.00 | 0.00 | 0.00 | 93 | 1015.6 |
| 20260507045724 | 8 | 16 | 4.8 | 8.0 | 0.00 | 0.00 | 0.00 | 93 | 1015.6 |
| 20260507045623 | 8 | 16 | 4.8 | 8.0 | 0.00 | 0.00 | 0.00 | 93 | 1015.6 |
| 20260507045522 | 8 | 16 | 4.8 | 8.0 | 0.00 | 0.00 | 0.00 | 93 | 1015.6 |
| 20260507045423 | 8 | 16 | 3.2 | 8.0 | 0.00 | 0.00 | 0.00 | 93 | 1015.6 |
| 20260507045321 | 8 | 16 | 3.2 | 8.0 | 0.00 | 0.00 | 0.00 | 93 | 1015.6 |
| 20260507045222 | 8 | 24 | 3.2 | 8.0 | 0.00 | 0.00 | 0.00 | 93 | 1015.6 |
| 20260507045122 | 8 | 24 | 3.2 | 8.0 | 0.00 | 0.00 | 0.00 | 93 | 1015.6 |
| 20260507045022 | 8 | 24 | 4.8 | 8.0 | 0.00 | 0.00 | 0.00 | 93 | 1015.5 |
| 20260507044922 | 8 | 24 | 3.2 | 8.0 | 0.00 | 0.00 | 0.00 | 93 | 1015.6 |
| 20260507044820 | 8 | 11 | 1.6 | 8.0 | 0.00 | 0.00 | 0.00 | 93 | 1015.4 |
| 20260507044720 | 8 | 11 | 3.2 | 8.0 | 0.00 | 0.00 | 0.00 | 93 | 1015.5 |
| 20260507044619 | 8 | 11 | 3.2 | 8.0 | 0.00 | 0.00 | 0.00 | 93 | 1015.5 |
| 20260507044519 | 8 | 11 | 3.2 | 8.0 | 0.00 | 0.00 | 0.00 | 93 | 1015.5 |
| 20260507044420 | 8 | 11 | 1.6 | 8.0 | 0.00 | 0.00 | 0.00 | 93 | 1015.5 |
| 20260507044318 | 8 | 11 | 3.2 | 8.0 | 0.00 | 0.00 | 0.00 | 93 | 1015.5 |
| 20260507044220 | 8 | 11 | 6.4 | 8.0 | 0.00 | 0.00 | 0.00 | 93 | 1015.4 |
| 20260507044117 | 8 | 14 | 4.8 | 8.0 | 0.00 | 0.00 | 0.00 | 93 | 1015.5 |
| 20260507044017 | 8 | 17 | 3.2 | 8.0 | 0.00 | 0.00 | 0.00 | 93 | 1015.4 |
| 20260507043916 | 8 | 17 | 3.2 | 9.7 | 0.00 | 0.00 | 0.00 | 93 | 1015.4 |
| 20260507043817 | 8 | 17 | 3.2 | 9.7 | 0.00 | 0.00 | 0.00 | 93 | 1015.5 |
| 20260507043716 | 8 | 17 | 4.8 | 9.7 | 0.00 | 0.00 | 0.00 | 93 | 1015.4 |
| 20260507043616 | 8 | 17 | 4.8 | 9.7 | 0.00 | 0.00 | 0.00 | 93 | 1015.4 |
| 20260507043515 | 8 | 18 | 3.2 | 9.7 | 0.00 | 0.00 | 0.00 | 93 | 1015.4 |
| 20260507043418 | 8 | 20 | 3.2 | 9.7 | 0.00 | 0.00 | 0.00 | 93 | 1015.3 |
| 20260507043314 | 8 | 1 | 4.8 | 9.7 | 0.00 | 0.00 | 0.00 | 93 | 1015.4 |
| 20260507043212 | 8 | 1 | 4.8 | 9.7 | 0.00 | 0.00 | 0.00 | 93 | 1015.3 |
| 20260507043111 | 8 | 4 | 6.4 | 9.7 | 0.00 | 0.00 | 0.00 | 93 | 1015.4 |
| 20260507043011 | 8 | 13 | 4.8 | 9.7 | 0.00 | 0.00 | 0.00 | 93 | 1015.4 |
| 20260507042908 | 8 | 28 | 4.8 | 9.7 | 0.00 | 0.00 | 0.00 | 93 | 1015.4 |
| 20260507042808 | 8 | 17 | 4.8 | 11.3 | 0.00 | 0.00 | 0.00 | 93 | 1015.3 |
| 20260507042709 | 8 | 20 | 4.8 | 11.3 | 0.00 | 0.00 | 0.00 | 93 | 1015.3 |
| 20260507042609 | 8 | 10 | 3.2 | 11.3 | 0.00 | 0.00 | 0.00 | 93 | 1015.3 |
| 20260507042506 | 8 | 17 | 3.2 | 11.3 | 0.00 | 0.00 | 0.00 | 93 | 1015.3 |
| 20260507042406 | 8 | 17 | 4.8 | 11.3 | 0.00 | 0.00 | 0.00 | 93 | 1015.2 |
| 20260507042307 | 8 | 17 | 4.8 | 11.3 | 0.00 | 0.00 | 0.00 | 93 | 1015.3 |
| 20260507042204 | 8 | 17 | 4.8 | 11.3 | 0.00 | 0.00 | 0.00 | 93 | 1015.3 |
| 20260507042105 | 8 | 17 | 3.2 | 11.3 | 0.00 | 0.00 | 0.00 | 93 | 1015.3 |
| 20260507042002 | 8 | 17 | 4.8 | 11.3 | 0.00 | 0.00 | 0.00 | 93 | 1015.2 |
| 20260507041902 | 8 | 18 | 6.4 | 11.3 | 0.00 | 0.00 | 0.00 | 93 | 1015.2 |
| 20260507041801 | 8 | 0 | 4.8 | 8.0 | 0.00 | 0.00 | 0.00 | 93 | 1015.2 |
| 20260507041701 | 8 | 0 | 4.8 | 8.0 | 0.00 | 0.00 | 0.00 | 93 | 1015.3 |
| 20260507041601 | 8 | 10 | 3.2 | 8.0 | 0.00 | 0.00 | 0.00 | 93 | 1015.3 |
| 20260507041500 | 8 | 11 | 4.8 | 8.0 | 0.00 | 0.00 | 0.00 | 93 | 1015.3 |
| 20260507041402 | 8 | 11 | 4.8 | 8.0 | 0.00 | 0.00 | 0.00 | 93 | 1015.3 |
| 20260507041303 | 8 | 0 | 3.2 | 8.0 | 0.00 | 0.00 | 0.00 | 93 | 1015.3 |
| 20260507041201 | 8 | 0 | 3.2 | 8.0 | 0.00 | 0.00 | 0.00 | 93 | 1015.2 |
| 20260507041102 | 8 | 0 | 3.2 | 8.0 | 0.00 | 0.00 | 0.00 | 93 | 1015.2 |
| 20260507041000 | 8 | 0 | 4.8 | 8.0 | 0.00 | 0.00 | 0.00 | 93 | 1015.2 |
| 20260507040901 | 8 | 21 | 4.8 | 8.0 | 0.00 | 0.00 | 0.00 | 93 | 1015.2 |
| 20260507040800 | 8 | 21 | 3.2 | 8.0 | 0.00 | 0.00 | 0.00 | 93 | 1015.3 |
| 20260507040700 | 8 | 21 | 3.2 | 8.0 | 0.00 | 0.00 | 0.00 | 93 | 1015.2 |
| 20260507040600 | 8 | 28 | 3.2 | 8.0 | 0.00 | 0.00 | 0.00 | 93 | 1015.2 |
| 20260507040458 | 8 | 28 | 4.8 | 8.0 | 0.00 | 0.00 | 0.00 | 93 | 1015.2 |
| 20260507040403 | 8 | 28 | 4.8 | 8.0 | 0.00 | 0.00 | 0.00 | 93 | 1015.2 |
| 20260507040257 | 8 | 30 | 4.8 | 8.0 | 0.00 | 0.00 | 0.00 | 93 | 1015.2 |
| 20260507040158 | 8 | 30 | 3.2 | 8.0 | 0.00 | 0.00 | 0.00 | 93 | 1015.2 |
| 20260507040058 | 8 | 3 | 1.6 | 8.0 | 0.00 | 0.00 | 0.00 | 93 | 1015.2 |
| 20260507035959 | 8 | 3 | 3.2 | 8.0 | 0.00 | 0.00 | 0.00 | 93 | 1015.1 |
| 20260507035900 | 8 | 3 | 3.2 | 8.0 | 0.00 | 0.00 | 0.00 | 93 | 1015.2 |
| 20260507035759 | 8 | 3 | 3.2 | 8.0 | 0.00 | 0.00 | 0.00 | 93 | 1015.2 |
| 20260507035656 | 8 | 3 | 3.2 | 8.0 | 0.00 | 0.00 | 0.00 | 93 | 1015.2 |
| 20260507035555 | 8 | 3 | 4.8 | 8.0 | 0.00 | 0.00 | 0.00 | 93 | 1015.2 |
| 20260507035456 | 8 | 6 | 4.8 | 8.0 | 0.00 | 0.00 | 0.00 | 93 | 1015.1 |
| 20260507035354 | 8 | 6 | 4.8 | 6.4 | 0.00 | 0.00 | 0.00 | 93 | 1015.2 |
| 20260507035256 | 8 | 6 | 4.8 | 6.4 | 0.00 | 0.00 | 0.00 | 93 | 1015.1 |
| 20260507035154 | 8 | 7 | 3.2 | 6.4 | 0.00 | 0.00 | 0.00 | 92 | 1015.1 |
| 20260507035054 | 8 | 7 | 3.2 | 6.4 | 0.00 | 0.00 | 0.00 | 92 | 1015.2 |
| 20260507034953 | 8 | 7 | 3.2 | 6.4 | 0.00 | 0.00 | 0.00 | 92 | 1015.1 |
| 20260507034853 | 8 | 7 | 3.2 | 6.4 | 0.00 | 0.00 | 0.00 | 92 | 1015.2 |
| 20260507034754 | 8 | 7 | 1.6 | 6.4 | 0.00 | 0.00 | 0.00 | 93 | 1015.1 |
| 20260507034654 | 8 | 7 | 3.2 | 6.4 | 0.00 | 0.00 | 0.00 | 93 | 1015.1 |
| 20260507034551 | 8 | 7 | 3.2 | 6.4 | 0.00 | 0.00 | 0.00 | 92 | 1015.1 |
| 20260507034451 | 8 | 7 | 3.2 | 6.4 | 0.00 | 0.00 | 0.00 | 92 | 1015.1 |
| 20260507034349 | 8 | 7 | 3.2 | 6.4 | 0.00 | 0.00 | 0.00 | 92 | 1015.1 |
| 20260507034250 | 8 | 7 | 3.2 | 6.4 | 0.00 | 0.00 | 0.00 | 92 | 1015.1 |
| 20260507034151 | 8 | 7 | 3.2 | 6.4 | 0.00 | 0.00 | 0.00 | 92 | 1015.1 |
| 20260507034050 | 8 | 7 | 3.2 | 6.4 | 0.00 | 0.00 | 0.00 | 92 | 1015.0 |
| 20260507033946 | 8 | 7 | 3.2 | 6.4 | 0.00 | 0.00 | 0.00 | 92 | 1015.1 |
| 20260507033846 | 8 | 7 | 4.8 | 6.4 | 0.00 | 0.00 | 0.00 | 92 | 1015.0 |
| 20260507033743 | 8 | 7 | 4.8 | 6.4 | 0.00 | 0.00 | 0.00 | 92 | 1015.0 |
| 20260507033644 | 8 | 7 | 3.2 | 6.4 | 0.00 | 0.00 | 0.00 | 92 | 1015.0 |
| 20260507033543 | 8 | 6 | 3.2 | 6.4 | 0.00 | 0.00 | 0.00 | 92 | 1015.0 |
| 20260507033442 | 8 | 6 | 3.2 | 6.4 | 0.00 | 0.00 | 0.00 | 92 | 1014.9 |
| 20260507033346 | 8 | 6 | 3.2 | 6.4 | 0.00 | 0.00 | 0.00 | 92 | 1014.9 |
| 20260507033241 | 8 | 6 | 3.2 | 6.4 | 0.00 | 0.00 | 0.00 | 92 | 1015.0 |
| 20260507033141 | 8 | 6 | 3.2 | 6.4 | 0.00 | 0.00 | 0.00 | 92 | 1015.0 |
| 20260507033041 | 8 | 6 | 4.8 | 9.7 | 0.00 | 0.00 | 0.00 | 92 | 1014.9 |
| 20260507032939 | 8 | 6 | 3.2 | 9.7 | 0.00 | 0.00 | 0.00 | 92 | 1014.9 |
| 20260507032838 | 8 | 7 | 3.2 | 9.7 | 0.00 | 0.00 | 0.00 | 92 | 1014.9 |
| 20260507032737 | 8 | 7 | 3.2 | 9.7 | 0.00 | 0.00 | 0.00 | 92 | 1014.8 |
| 20260507032640 | 8 | 1 | 3.2 | 9.7 | 0.00 | 0.00 | 0.00 | 92 | 1014.9 |
| 20260507032538 | 8 | 1 | 3.2 | 9.7 | 0.00 | 0.00 | 0.00 | 92 | 1014.9 |
| 20260507032437 | 8 | 1 | 3.2 | 9.7 | 0.00 | 0.00 | 0.00 | 92 | 1015.0 |
| 20260507032337 | 8 | 0 | 3.2 | 9.7 | 0.00 | 0.00 | 0.00 | 92 | 1014.9 |
| 20260507032236 | 8 | 0 | 3.2 | 9.7 | 0.00 | 0.00 | 0.00 | 91 | 1014.9 |
| 20260507032137 | 8 | 1 | 3.2 | 9.7 | 0.00 | 0.00 | 0.00 | 91 | 1014.9 |
| 20260507032036 | 8 | 7 | 3.2 | 9.7 | 0.00 | 0.00 | 0.00 | 92 | 1014.8 |
| 20260507031937 | 8 | 8 | 3.2 | 9.7 | 0.00 | 0.00 | 0.00 | 92 | 1014.9 |
| 20260507031835 | 8 | 8 | 4.8 | 9.7 | 0.00 | 0.00 | 0.00 | 92 | 1014.9 |
| 20260507031735 | 8 | 8 | 4.8 | 9.7 | 0.00 | 0.00 | 0.00 | 92 | 1014.9 |
| 20260507031635 | 8 | 10 | 4.8 | 9.7 | 0.00 | 0.00 | 0.00 | 92 | 1014.8 |
| 20260507031535 | 8 | 11 | 6.4 | 9.7 | 0.00 | 0.00 | 0.00 | 92 | 1014.8 |
| 20260507031435 | 8 | 0 | 4.8 | 9.7 | 0.00 | 0.00 | 0.00 | 91 | 1014.8 |
| 20260507031335 | 8 | 1 | 4.8 | 9.7 | 0.00 | 0.00 | 0.00 | 92 | 1014.8 |
| 20260507031234 | 8 | 1 | 6.4 | 9.7 | 0.00 | 0.00 | 0.00 | 92 | 1014.8 |
| 20260507031134 | 8 | 1 | 6.4 | 9.7 | 0.00 | 0.00 | 0.00 | 92 | 1014.8 |
| 20260507031034 | 8 | 11 | 4.8 | 9.7 | 0.00 | 0.00 | 0.00 | 92 | 1014.8 |
| 20260507030934 | 8 | 17 | 4.8 | 9.7 | 0.00 | 0.00 | 0.00 | 91 | 1014.7 |
| 20260507030834 | 8 | 1 | 6.4 | 9.7 | 0.00 | 0.00 | 0.00 | 91 | 1014.7 |
| 20260507030734 | 8 | 4 | 4.8 | 9.7 | 0.00 | 0.00 | 0.00 | 91 | 1014.8 |
| 20260507030635 | 8 | 3 | 3.2 | 9.7 | 0.00 | 0.00 | 0.00 | 91 | 1014.8 |
| 20260507030534 | 8 | 3 | 4.8 | 9.7 | 0.00 | 0.00 | 0.00 | 91 | 1014.7 |
| 20260507030434 | 8 | 6 | 3.2 | 9.7 | 0.00 | 0.00 | 0.00 | 91 | 1014.7 |
| 20260507030335 | 8 | 6 | 4.8 | 9.7 | 0.00 | 0.00 | 0.00 | 91 | 1014.7 |
| 20260507030235 | 8 | 8 | 4.8 | 9.7 | 0.00 | 0.00 | 0.00 | 91 | 1014.7 |
| 20260507030138 | 8 | 7 | 4.8 | 9.7 | 0.00 | 0.00 | 0.00 | 91 | 1014.6 |
| 20260507030034 | 8 | 11 | 3.2 | 8.0 | 0.00 | 0.00 | 0.00 | 91 | 1014.7 |
| 20260507025935 | 8 | 11 | 3.2 | 8.0 | 0.00 | 0.00 | 0.00 | 91 | 1014.7 |
| 20260507025835 | 8 | 10 | 3.2 | 8.0 | 0.00 | 0.00 | 0.00 | 91 | 1014.6 |
| 20260507025734 | 8 | 11 | 4.8 | 8.0 | 0.00 | 0.00 | 0.00 | 91 | 1014.6 |
| 20260507025635 | 8 | 13 | 4.8 | 8.0 | 0.00 | 0.00 | 0.00 | 91 | 1014.7 |
| 20260507025534 | 8 | 14 | 4.8 | 8.0 | 0.00 | 0.00 | 0.00 | 91 | 1014.6 |
| 20260507025435 | 8 | 8 | 3.2 | 8.0 | 0.00 | 0.00 | 0.00 | 91 | 1014.6 |
| 20260507025334 | 8 | 8 | 3.2 | 9.7 | 0.00 | 0.00 | 0.00 | 91 | 1014.7 |
| 20260507025235 | 8 | 8 | 3.2 | 9.7 | 0.00 | 0.00 | 0.00 | 91 | 1014.7 |
| 20260507025135 | 8 | 8 | 4.8 | 9.7 | 0.00 | 0.00 | 0.00 | 91 | 1014.7 |
| 20260507025035 | 8 | 8 | 4.8 | 9.7 | 0.00 | 0.00 | 0.00 | 91 | 1014.7 |
| 20260507024935 | 8 | 16 | 4.8 | 9.7 | 0.00 | 0.00 | 0.00 | 91 | 1014.7 |
| 20260507024835 | 8 | 16 | 3.2 | 9.7 | 0.00 | 0.00 | 0.00 | 91 | 1014.7 |
| 20260507024735 | 8 | 16 | 3.2 | 9.7 | 0.00 | 0.00 | 0.00 | 90 | 1014.7 |
| 20260507024635 | 8 | 16 | 3.2 | 9.7 | 0.00 | 0.00 | 0.00 | 90 | 1014.7 |
| 20260507024534 | 8 | 16 | 3.2 | 9.7 | 0.00 | 0.00 | 0.00 | 90 | 1014.7 |
| 20260507024430 | 8 | 17 | 3.2 | 9.7 | 0.00 | 0.00 | 0.00 | 90 | 1014.7 |
| 20260507024329 | 8 | 8 | 3.2 | 9.7 | 0.00 | 0.00 | 0.00 | 90 | 1014.7 |
| 20260507024231 | 8 | 8 | 3.2 | 9.7 | 0.00 | 0.00 | 0.00 | 90 | 1014.7 |
| 20260507024130 | 8 | 8 | 3.2 | 9.7 | 0.00 | 0.00 | 0.00 | 90 | 1014.7 |
| 20260507024029 | 8 | 25 | 3.2 | 8.0 | 0.00 | 0.00 | 0.00 | 90 | 1014.7 |
| 20260507023930 | 8 | 25 | 3.2 | 8.0 | 0.00 | 0.00 | 0.00 | 90 | 1014.7 |
| 20260507023831 | 8 | 27 | 3.2 | 9.7 | 0.00 | 0.00 | 0.00 | 90 | 1014.7 |
| 20260507023730 | 8 | 27 | 4.8 | 9.7 | 0.00 | 0.00 | 0.00 | 90 | 1014.6 |
| 20260507023630 | 8 | 27 | 4.8 | 9.7 | 0.00 | 0.00 | 0.00 | 90 | 1014.7 |
| 20260507023528 | 8 | 42 | 3.2 | 9.7 | 0.00 | 0.00 | 0.00 | 90 | 1014.7 |
| 20260507023427 | 8 | 42 | 3.2 | 9.7 | 0.00 | 0.00 | 0.00 | 90 | 1014.8 |
| 20260507023327 | 8 | 0 | 4.8 | 9.7 | 0.00 | 0.00 | 0.00 | 90 | 1014.7 |
| 20260507023226 | 8 | 0 | 4.8 | 9.7 | 0.00 | 0.00 | 0.00 | 89 | 1014.6 |
| 20260507023123 | 8 | 6 | 3.2 | 9.7 | 0.00 | 0.00 | 0.00 | 90 | 1014.7 |
| 20260507023025 | 8 | 4 | 4.8 | 9.7 | 0.00 | 0.00 | 0.00 | 89 | 1014.7 |
| 20260507022923 | 8 | 0 | 6.4 | 9.7 | 0.00 | 0.00 | 0.00 | 89 | 1014.7 |
| 20260507022822 | 8 | 0 | 6.4 | 9.7 | 0.00 | 0.00 | 0.00 | 89 | 1014.6 |
| 20260507022723 | 8 | 0 | 6.4 | 9.7 | 0.00 | 0.00 | 0.00 | 89 | 1014.6 |
| 20260507022622 | 8 | 0 | 4.8 | 8.0 | 0.00 | 0.00 | 0.00 | 89 | 1014.6 |
| 20260507022522 | 8 | 0 | 3.2 | 8.0 | 0.00 | 0.00 | 0.00 | 89 | 1014.6 |
| 20260507022422 | 8 | 0 | 3.2 | 8.0 | 0.00 | 0.00 | 0.00 | 89 | 1014.6 |
| 20260507022321 | 8 | 1 | 4.8 | 8.0 | 0.00 | 0.00 | 0.00 | 89 | 1014.6 |
| 20260507022220 | 8 | 20 | 4.8 | 8.0 | 0.00 | 0.00 | 0.00 | 89 | 1014.7 |
| 20260507022121 | 8 | 16 | 3.2 | 8.0 | 0.00 | 0.00 | 0.00 | 89 | 1014.6 |
| 20260507022018 | 9 | 16 | 4.8 | 8.0 | 0.00 | 0.00 | 0.00 | 89 | 1014.6 |
| 20260507021917 | 9 | 17 | 4.8 | 8.0 | 0.00 | 0.00 | 0.00 | 89 | 1014.6 |
| 20260507021816 | 9 | 18 | 3.2 | 8.0 | 0.00 | 0.00 | 0.00 | 88 | 1014.6 |
| 20260507021714 | 9 | 18 | 4.8 | 8.0 | 0.00 | 0.00 | 0.00 | 88 | 1014.6 |
| 20260507021614 | 9 | 18 | 3.2 | 8.0 | 0.00 | 0.00 | 0.00 | 88 | 1014.7 |
| 20260507021513 | 9 | 23 | 3.2 | 8.0 | 0.00 | 0.00 | 0.00 | 88 | 1014.6 |
| 20260507021413 | 9 | 23 | 4.8 | 8.0 | 0.00 | 0.00 | 0.00 | 88 | 1014.6 |
| 20260507021314 | 9 | 10 | 4.8 | 9.7 | 0.00 | 0.00 | 0.00 | 88 | 1014.6 |
| 20260507021212 | 9 | 1 | 4.8 | 9.7 | 0.00 | 0.00 | 0.00 | 88 | 1014.6 |
| 20260507021111 | 9 | 1 | 4.8 | 9.7 | 0.00 | 0.00 | 0.00 | 88 | 1014.6 |
| 20260507021011 | 9 | 0 | 3.2 | 9.7 | 0.00 | 0.00 | 0.00 | 88 | 1014.6 |
| 20260507020910 | 9 | 7 | 3.2 | 9.7 | 0.00 | 0.00 | 0.00 | 88 | 1014.5 |
| 20260507020811 | 9 | 7 | 3.2 | 9.7 | 0.00 | 0.00 | 0.00 | 88 | 1014.5 |
| 20260507020710 | 9 | 7 | 3.2 | 9.7 | 0.00 | 0.00 | 0.00 | 88 | 1014.5 |
| 20260507020610 | 9 | 7 | 3.2 | 9.7 | 0.00 | 0.00 | 0.00 | 88 | 1014.5 |
| 20260507020510 | 9 | 7 | 6.4 | 9.7 | 0.00 | 0.00 | 0.00 | 88 | 1014.5 |
| 20260507020406 | 9 | 7 | 6.4 | 9.7 | 0.00 | 0.00 | 0.00 | 87 | 1014.5 |
| 20260507020302 | 9 | 3 | 4.8 | 9.7 | 0.00 | 0.00 | 0.00 | 87 | 1014.4 |
| 20260507020203 | 9 | 0 | 4.8 | 9.7 | 0.00 | 0.00 | 0.00 | 87 | 1014.5 |
| 20260507020005 | 9 | 35 | 3.2 | 9.7 | 0.00 | 0.00 | 0.00 | 87 | 1014.5 |
| 20260507015904 | 9 | 37 | 3.2 | 9.7 | 0.00 | 0.00 | 0.00 | 87 | 1014.4 |
| 20260507015803 | 9 | 37 | 4.8 | 9.7 | 0.00 | 0.00 | 0.00 | 87 | 1014.5 |
| 20260507015703 | 9 | 37 | 4.8 | 9.7 | 0.00 | 0.00 | 0.00 | 87 | 1014.5 |
| 20260507015602 | 9 | 37 | 4.8 | 9.7 | 0.00 | 0.00 | 0.00 | 87 | 1014.5 |
| 20260507015500 | 9 | 17 | 4.8 | 9.7 | 0.00 | 0.00 | 0.00 | 87 | 1014.4 |
| 20260507015401 | 9 | 17 | 4.8 | 9.7 | 0.00 | 0.00 | 0.00 | 87 | 1014.4 |
| 20260507015301 | 9 | 20 | 4.8 | 9.7 | 0.00 | 0.00 | 0.00 | 87 | 1014.4 |
| 20260507015202 | 9 | 0 | 4.8 | 9.7 | 0.00 | 0.00 | 0.00 | 87 | 1014.3 |
| 20260507015101 | 9 | 0 | 4.8 | 9.7 | 0.00 | 0.00 | 0.00 | 86 | 1014.4 |
| 20260507015003 | 9 | 0 | 4.8 | 9.7 | 0.00 | 0.00 | 0.00 | 86 | 1014.4 |
| 20260507014901 | 9 | 0 | 4.8 | 9.7 | 0.00 | 0.00 | 0.00 | 86 | 1014.5 |
| 20260507014802 | 9 | 8 | 3.2 | 8.0 | 0.00 | 0.00 | 0.00 | 86 | 1014.4 |
| 20260507014701 | 9 | 11 | 4.8 | 8.0 | 0.00 | 0.00 | 0.00 | 86 | 1014.4 |
| 20260507014559 | 9 | 11 | 4.8 | 8.0 | 0.00 | 0.00 | 0.00 | 86 | 1014.4 |
| 20260507014459 | 9 | 11 | 6.4 | 8.0 | 0.00 | 0.00 | 0.00 | 86 | 1014.4 |
| 20260507014359 | 9 | 8 | 4.8 | 8.0 | 0.00 | 0.00 | 0.00 | 86 | 1014.4 |
| 20260507014300 | 9 | 1 | 4.8 | 8.0 | 0.00 | 0.00 | 0.00 | 86 | 1014.4 |
| 20260507014158 | 9 | 14 | 4.8 | 8.0 | 0.00 | 0.00 | 0.00 | 86 | 1014.5 |
| 20260507014057 | 9 | 4 | 4.8 | 8.0 | 0.00 | 0.00 | 0.00 | 86 | 1014.4 |
| 20260507013956 | 9 | 1 | 6.4 | 8.0 | 0.00 | 0.00 | 0.00 | 86 | 1014.4 |
| 20260507013856 | 9 | 3 | 6.4 | 8.0 | 0.00 | 0.00 | 0.00 | 85 | 1014.4 |
| 20260507013757 | 9 | 0 | 4.8 | 8.0 | 0.00 | 0.00 | 0.00 | 85 | 1014.5 |
| 20260507013659 | 9 | 0 | 6.4 | 8.0 | 0.00 | 0.00 | 0.00 | 85 | 1014.4 |
| 20260507013558 | 9 | 0 | 6.4 | 11.3 | 0.00 | 0.00 | 0.00 | 85 | 1014.4 |
| 20260507013455 | 9 | 4 | 4.8 | 11.3 | 0.00 | 0.00 | 0.00 | 85 | 1014.5 |
| 20260507013356 | 9 | 11 | 4.8 | 11.3 | 0.00 | 0.00 | 0.00 | 85 | 1014.3 |
| 20260507013255 | 9 | 11 | 4.8 | 11.3 | 0.00 | 0.00 | 0.00 | 85 | 1014.3 |
| 20260507013156 | 9 | 16 | 4.8 | 11.3 | 0.00 | 0.00 | 0.00 | 85 | 1014.4 |
| 20260507013054 | 9 | 16 | 4.8 | 11.3 | 0.00 | 0.00 | 0.00 | 85 | 1014.4 |
| 20260507012953 | 9 | 16 | 4.8 | 11.3 | 0.00 | 0.00 | 0.00 | 85 | 1014.4 |
| 20260507012852 | 9 | 17 | 4.8 | 11.3 | 0.00 | 0.00 | 0.00 | 84 | 1014.4 |
| 20260507012752 | 10 | 10 | 6.4 | 11.3 | 0.00 | 0.00 | 0.00 | 84 | 1014.4 |
| 20260507012653 | 10 | 10 | 6.4 | 11.3 | 0.00 | 0.00 | 0.00 | 84 | 1014.4 |
| 20260507012551 | 10 | 17 | 4.8 | 11.3 | 0.00 | 0.00 | 0.00 | 84 | 1014.4 |
| 20260507012451 | 10 | 18 | 6.4 | 11.3 | 0.00 | 0.00 | 0.00 | 84 | 1014.4 |
| 20260507012350 | 10 | 8 | 6.4 | 11.3 | 0.00 | 0.00 | 0.00 | 84 | 1014.5 |
| 20260507012250 | 10 | 7 | 6.4 | 14.5 | 0.00 | 0.00 | 0.00 | 84 | 1014.4 |
| 20260507012151 | 10 | 0 | 4.8 | 14.5 | 0.00 | 0.00 | 0.00 | 84 | 1014.5 |
| 20260507012050 | 10 | 354 | 3.2 | 14.5 | 0.00 | 0.00 | 0.00 | 84 | 1014.4 |
| 20260507011949 | 10 | 354 | 4.8 | 14.5 | 0.00 | 0.00 | 0.00 | 84 | 1014.3 |
| 20260507011849 | 10 | 354 | 6.4 | 14.5 | 0.00 | 0.00 | 0.00 | 84 | 1014.4 |
| 20260507011752 | 10 | 0 | 6.4 | 14.5 | 0.00 | 0.00 | 0.00 | 84 | 1014.4 |
| 20260507011652 | 10 | 0 | 4.8 | 14.5 | 0.00 | 0.00 | 0.00 | 84 | 1014.4 |
| 20260507011550 | 10 | 1 | 4.8 | 14.5 | 0.00 | 0.00 | 0.00 | 84 | 1014.4 |
| 20260507011447 | 10 | 1 | 6.4 | 14.5 | 0.00 | 0.00 | 0.00 | 84 | 1014.3 |
| 20260507011347 | 10 | 27 | 6.4 | 14.5 | 0.00 | 0.00 | 0.00 | 84 | 1014.3 |
| 20260507011246 | 10 | 10 | 6.4 | 11.3 | 0.00 | 0.00 | 0.00 | 84 | 1014.3 |
| 20260507011146 | 10 | 1 | 6.4 | 11.3 | 0.00 | 0.00 | 0.00 | 83 | 1014.3 |
| 20260507011046 | 10 | 1 | 6.4 | 11.3 | 0.00 | 0.00 | 0.00 | 83 | 1014.3 |
| 20260507010946 | 10 | 1 | 6.4 | 11.3 | 0.00 | 0.00 | 0.00 | 83 | 1014.2 |
| 20260507010845 | 10 | 0 | 4.8 | 11.3 | 0.00 | 0.00 | 0.00 | 83 | 1014.2 |
| 20260507010745 | 10 | 0 | 3.2 | 9.7 | 0.00 | 0.00 | 0.00 | 83 | 1014.2 |
| 20260507010645 | 10 | 0 | 4.8 | 9.7 | 0.00 | 0.00 | 0.00 | 83 | 1014.2 |
| 20260507010544 | 10 | 10 | 4.8 | 9.7 | 0.00 | 0.00 | 0.00 | 83 | 1014.3 |
| 20260507010445 | 10 | 11 | 4.8 | 9.7 | 0.00 | 0.00 | 0.00 | 83 | 1014.3 |
| 20260507010343 | 10 | 10 | 4.8 | 9.7 | 0.00 | 0.00 | 0.00 | 83 | 1014.3 |
| 20260507010243 | 10 | 13 | 4.8 | 9.7 | 0.00 | 0.00 | 0.00 | 83 | 1014.3 |
| 20260507010143 | 10 | 18 | 4.8 | 9.7 | 0.00 | 0.00 | 0.00 | 83 | 1014.3 |
| 20260507010043 | 10 | 38 | 6.4 | 9.7 | 0.00 | 0.00 | 0.00 | 83 | 1014.4 |
| 20260507005942 | 10 | 0 | 6.4 | 9.7 | 0.00 | 0.00 | 0.00 | 83 | 1014.3 |
| 20260507005838 | 10 | 18 | 6.4 | 9.7 | 0.00 | 0.00 | 0.00 | 83 | 1014.3 |
| 20260507005739 | 10 | 24 | 4.8 | 9.7 | 0.00 | 0.00 | 0.00 | 83 | 1014.3 |
| 20260507005638 | 10 | 13 | 4.8 | 9.7 | 0.00 | 0.00 | 0.00 | 83 | 1014.2 |
| 20260507005538 | 10 | 13 | 4.8 | 9.7 | 0.00 | 0.00 | 0.00 | 83 | 1014.3 |
| 20260507005437 | 10 | 1 | 3.2 | 9.7 | 0.00 | 0.00 | 0.00 | 82 | 1014.4 |
| 20260507005339 | 10 | 4 | 4.8 | 9.7 | 0.00 | 0.00 | 0.00 | 82 | 1014.3 |
| 20260507005238 | 10 | 4 | 4.8 | 9.7 | 0.00 | 0.00 | 0.00 | 82 | 1014.3 |
| 20260507005136 | 10 | 0 | 4.8 | 9.7 | 0.00 | 0.00 | 0.00 | 82 | 1014.3 |
| 20260507005037 | 10 | 7 | 4.8 | 9.7 | 0.00 | 0.00 | 0.00 | 82 | 1014.3 |
| 20260507004936 | 10 | 0 | 4.8 | 14.5 | 0.00 | 0.00 | 0.00 | 82 | 1014.3 |
| 20260507004834 | 10 | 0 | 6.4 | 14.5 | 0.00 | 0.00 | 0.00 | 82 | 1014.3 |
| 20260507004734 | 10 | 357 | 4.8 | 14.5 | 0.00 | 0.00 | 0.00 | 82 | 1014.2 |
| 20260507004634 | 10 | 0 | 3.2 | 14.5 | 0.00 | 0.00 | 0.00 | 82 | 1014.3 |
| 20260507004534 | 10 | 357 | 4.8 | 14.5 | 0.00 | 0.00 | 0.00 | 82 | 1014.2 |
| 20260507004434 | 10 | 357 | 4.8 | 14.5 | 0.00 | 0.00 | 0.00 | 82 | 1014.2 |
| 20260507004334 | 10 | 13 | 4.8 | 14.5 | 0.00 | 0.00 | 0.00 | 82 | 1014.3 |
| 20260507004234 | 10 | 10 | 4.8 | 14.5 | 0.00 | 0.00 | 0.00 | 82 | 1014.3 |
| 20260507004134 | 10 | 0 | 6.4 | 14.5 | 0.00 | 0.00 | 0.00 | 82 | 1014.3 |
| 20260507004035 | 10 | 1 | 6.4 | 14.5 | 0.00 | 0.00 | 0.00 | 82 | 1014.2 |
| 20260507003934 | 10 | 6 | 4.8 | 14.5 | 0.00 | 0.00 | 0.00 | 82 | 1014.2 |
| 20260507003834 | 10 | 0 | 6.4 | 14.5 | 0.00 | 0.00 | 0.00 | 81 | 1014.2 |
| 20260507003735 | 10 | 7 | 8.0 | 14.5 | 0.00 | 0.00 | 0.00 | 81 | 1014.2 |
| 20260507003634 | 10 | 0 | 6.4 | 14.5 | 0.00 | 0.00 | 0.00 | 81 | 1014.2 |
| 20260507003534 | 10 | 350 | 6.4 | 14.5 | 0.00 | 0.00 | 0.00 | 81 | 1014.2 |
| 20260507003434 | 10 | 35 | 6.4 | 14.5 | 0.00 | 0.00 | 0.00 | 81 | 1014.2 |
| 20260507003333 | 10 | 16 | 6.4 | 14.5 | 0.00 | 0.00 | 0.00 | 81 | 1014.2 |
| 20260507003234 | 10 | 3 | 6.4 | 14.5 | 0.00 | 0.00 | 0.00 | 81 | 1014.2 |
| 20260507003135 | 10 | 62 | 6.4 | 14.5 | 0.00 | 0.00 | 0.00 | 81 | 1014.1 |
| 20260507003036 | 10 | 0 | 6.4 | 14.5 | 0.00 | 0.00 | 0.00 | 80 | 1014.2 |
| 20260507002937 | 10 | 344 | 4.8 | 11.3 | 0.00 | 0.00 | 0.00 | 80 | 1014.2 |
| 20260507002835 | 10 | 7 | 3.2 | 11.3 | 0.00 | 0.00 | 0.00 | 80 | 1014.2 |
| 20260507002734 | 10 | 3 | 4.8 | 11.3 | 0.00 | 0.00 | 0.00 | 80 | 1014.2 |
| 20260507002635 | 10 | 0 | 6.4 | 11.3 | 0.00 | 0.00 | 0.00 | 80 | 1014.2 |
| 20260507002535 | 10 | 35 | 6.4 | 11.3 | 0.00 | 0.00 | 0.00 | 80 | 1014.2 |
| 20260507002434 | 10 | 344 | 8.0 | 11.3 | 0.00 | 0.00 | 0.00 | 80 | 1014.2 |
| 20260507002335 | 10 | 0 | 8.0 | 11.3 | 0.00 | 0.00 | 0.00 | 79 | 1014.2 |
| 20260507002234 | 10 | 17 | 8.0 | 14.5 | 0.00 | 0.00 | 0.00 | 79 | 1014.2 |
| 20260507002133 | 10 | 357 | 6.4 | 19.3 | 0.00 | 0.00 | 0.00 | 79 | 1014.2 |
| 20260507002034 | 10 | 6 | 4.8 | 19.3 | 0.00 | 0.00 | 0.00 | 79 | 1014.2 |
| 20260507001934 | 10 | 21 | 3.2 | 19.3 | 0.00 | 0.00 | 0.00 | 79 | 1014.1 |
| 20260507001836 | 10 | 44 | 3.2 | 19.3 | 0.00 | 0.00 | 0.00 | 79 | 1014.2 |
| 20260507001735 | 10 | 45 | 4.8 | 19.3 | 0.00 | 0.00 | 0.00 | 79 | 1014.2 |
| 20260507001634 | 10 | 0 | 4.8 | 19.3 | 0.00 | 0.00 | 0.00 | 79 | 1014.2 |
| 20260507001534 | 10 | 0 | 6.4 | 19.3 | 0.00 | 0.00 | 0.00 | 78 | 1014.2 |
| 20260507001436 | 10 | 6 | 8.0 | 19.3 | 0.00 | 0.00 | 0.00 | 78 | 1014.2 |
| 20260507001336 | 11 | 30 | 9.7 | 19.3 | 0.00 | 0.00 | 0.00 | 78 | 1014.2 |
| 20260507001234 | 11 | 0 | 8.0 | 19.3 | 0.00 | 0.00 | 0.00 | 78 | 1014.1 |
| 20260507001134 | 11 | 21 | 8.0 | 16.1 | 0.00 | 0.00 | 0.00 | 78 | 1014.2 |
| 20260507001034 | 11 | 0 | 8.0 | 16.1 | 0.00 | 0.00 | 0.00 | 78 | 1014.2 |
| 20260507000934 | 11 | 0 | 9.7 | 16.1 | 0.00 | 0.00 | 0.00 | 78 | 1014.2 |
| 20260507000835 | 11 | 6 | 9.7 | 16.1 | 0.00 | 0.00 | 0.00 | 78 | 1014.1 |
| 20260507000734 | 11 | 337 | 8.0 | 16.1 | 0.00 | 0.00 | 0.00 | 78 | 1014.1 |
| 20260507000635 | 11 | 350 | 6.4 | 16.1 | 0.00 | 0.00 | 0.00 | 77 | 1014.1 |
| 20260507000535 | 11 | 11 | 8.0 | 16.1 | 0.00 | 0.00 | 0.00 | 77 | 1014.1 |
| 20260507000435 | 11 | 17 | 8.0 | 16.1 | 0.00 | 0.00 | 0.00 | 77 | 1014.1 |
| 20260507000336 | 11 | 348 | 8.0 | 16.1 | 0.00 | 0.00 | 0.00 | 77 | 1014.1 |
| 20260507000235 | 11 | 14 | 8.0 | 16.1 | 0.00 | 0.00 | 0.00 | 77 | 1014.1 |
| 20260507000137 | 11 | 357 | 6.4 | 16.1 | 0.00 | 0.00 | 0.00 | 77 | 1014.1 |
| 20260507000034 | 11 | 56 | 6.4 | 16.1 | 0.00 | 0.00 | 0.00 | 77 | 1014.1 |
| 20260506235934 | 11 | 24 | 8.0 | 16.1 | 0.00 | 0.00 | 0.00 | 77 | 1014.1 |
| 20260506235834 | 11 | 13 | 8.0 | 16.1 | 0.00 | 0.00 | 0.00 | 76 | 1014.1 |
| 20260506235734 | 11 | 355 | 6.4 | 16.1 | 0.00 | 0.00 | 0.00 | 76 | 1014.0 |
| 20260506235633 | 11 | 38 | 6.4 | 16.1 | 0.00 | 0.00 | 0.00 | 76 | 1014.1 |
| 20260506235533 | 11 | 6 | 6.4 | 16.1 | 0.00 | 0.00 | 0.00 | 76 | 1014.1 |
| 20260506235434 | 11 | 21 | 9.7 | 16.1 | 0.00 | 0.00 | 0.00 | 76 | 1014.1 |
| 20260506235334 | 11 | 11 | 8.0 | 16.1 | 0.00 | 0.00 | 0.00 | 76 | 1014.1 |
| 20260506235235 | 11 | 1 | 6.4 | 14.5 | 0.00 | 0.00 | 0.00 | 76 | 1014.1 |
| 20260506235133 | 11 | 0 | 6.4 | 14.5 | 0.00 | 0.00 | 0.00 | 76 | 1014.1 |
| 20260506235034 | 11 | 0 | 6.4 | 14.5 | 0.00 | 0.00 | 0.00 | 76 | 1014.1 |
| 20260506234934 | 11 | 7 | 8.0 | 14.5 | 0.00 | 0.00 | 0.00 | 75 | 1014.0 |
| 20260506234833 | 11 | 0 | 9.7 | 14.5 | 0.00 | 0.00 | 0.00 | 75 | 1014.0 |
| 20260506234734 | 11 | 16 | 8.0 | 14.5 | 0.00 | 0.00 | 0.00 | 75 | 1014.1 |
| 20260506234634 | 11 | 0 | 6.4 | 16.1 | 0.00 | 0.00 | 0.00 | 75 | 1014.1 |
| 20260506234535 | 11 | 341 | 6.4 | 16.1 | 0.00 | 0.00 | 0.00 | 75 | 1014.0 |
| 20260506234434 | 11 | 345 | 6.4 | 16.1 | 0.00 | 0.00 | 0.00 | 74 | 1014.0 |
| 20260506234334 | 11 | 347 | 6.4 | 16.1 | 0.00 | 0.00 | 0.00 | 74 | 1014.0 |
| 20260506234234 | 11 | 0 | 6.4 | 16.1 | 0.00 | 0.00 | 0.00 | 74 | 1014.0 |
| 20260506234136 | 11 | 0 | 6.4 | 16.1 | 0.00 | 0.00 | 0.00 | 74 | 1014.0 |
| 20260506234037 | 11 | 0 | 6.4 | 16.1 | 0.00 | 0.00 | 0.00 | 73 | 1014.0 |
| 20260506233935 | 11 | 357 | 6.4 | 16.1 | 0.00 | 0.00 | 0.00 | 73 | 1014.0 |
| 20260506233834 | 11 | 3 | 8.0 | 16.1 | 0.00 | 0.00 | 0.00 | 73 | 1013.9 |
| 20260506233734 | 11 | 0 | 8.0 | 16.1 | 0.00 | 0.00 | 0.00 | 73 | 1014.0 |
| 20260506233636 | 11 | 0 | 8.0 | 14.5 | 0.00 | 0.00 | 0.00 | 73 | 1013.9 |
| 20260506233534 | 11 | 16 | 8.0 | 14.5 | 0.00 | 0.00 | 0.00 | 73 | 1013.9 |
| 20260506233434 | 11 | 24 | 6.4 | 14.5 | 0.00 | 0.00 | 0.00 | 73 | 1013.9 |
| 20260506233334 | 11 | 34 | 4.8 | 14.5 | 0.00 | 0.00 | 0.00 | 73 | 1013.9 |
| 20260506233234 | 11 | 10 | 3.2 | 11.3 | 0.00 | 0.00 | 0.00 | 73 | 1013.9 |
| 20260506233134 | 11 | 10 | 4.8 | 11.3 | 0.00 | 0.00 | 0.00 | 73 | 1013.8 |
| 20260506233034 | 11 | 7 | 6.4 | 11.3 | 0.00 | 0.00 | 0.00 | 73 | 1013.8 |
| 20260506232934 | 11 | 4 | 3.2 | 11.3 | 0.00 | 0.00 | 0.00 | 73 | 1013.8 |
| 20260506232834 | 11 | 20 | 3.2 | 11.3 | 0.00 | 0.00 | 0.00 | 73 | 1013.8 |
| 20260506232733 | 11 | 20 | 3.2 | 11.3 | 0.00 | 0.00 | 0.00 | 73 | 1013.8 |
| 20260506232634 | 11 | 1 | 4.8 | 11.3 | 0.00 | 0.00 | 0.00 | 73 | 1013.8 |
| 20260506232534 | 11 | 1 | 4.8 | 11.3 | 0.00 | 0.00 | 0.00 | 72 | 1013.8 |
| 20260506232434 | 11 | 51 | 3.2 | 11.3 | 0.00 | 0.00 | 0.00 | 72 | 1013.8 |
| 20260506232334 | 11 | 51 | 6.4 | 11.3 | 0.00 | 0.00 | 0.00 | 72 | 1013.8 |
| 20260506232236 | 11 | 54 | 6.4 | 11.3 | 0.00 | 0.00 | 0.00 | 72 | 1013.8 |
| 20260506232134 | 11 | 28 | 6.4 | 11.3 | 0.00 | 0.00 | 0.00 | 72 | 1013.8 |
| 20260506232034 | 11 | 37 | 6.4 | 11.3 | 0.00 | 0.00 | 0.00 | 72 | 1013.8 |
| 20260506231935 | 11 | 0 | 4.8 | 11.3 | 0.00 | 0.00 | 0.00 | 72 | 1013.8 |
| 20260506231834 | 11 | 14 | 6.4 | 11.3 | 0.00 | 0.00 | 0.00 | 72 | 1013.8 |
| 20260506231736 | 11 | 18 | 6.4 | 11.3 | 0.00 | 0.00 | 0.00 | 72 | 1013.8 |
| 20260506231635 | 11 | 14 | 6.4 | 11.3 | 0.00 | 0.00 | 0.00 | 72 | 1013.8 |
| 20260506231535 | 11 | 34 | 6.4 | 11.3 | 0.00 | 0.00 | 0.00 | 72 | 1013.7 |
| 20260506231433 | 11 | 324 | 6.4 | 11.3 | 0.00 | 0.00 | 0.00 | 73 | 1013.8 |
| 20260506231335 | 11 | 21 | 6.4 | 11.3 | 0.00 | 0.00 | 0.00 | 73 | 1013.8 |
| 20260506231235 | 11 | 7 | 8.0 | 11.3 | 0.00 | 0.00 | 0.00 | 73 | 1013.8 |
| 20260506231133 | 11 | 0 | 6.4 | 11.3 | 0.00 | 0.00 | 0.00 | 73 | 1013.8 |
| 20260506231034 | 11 | 24 | 4.8 | 11.3 | 0.00 | 0.00 | 0.00 | 73 | 1013.8 |
| 20260506230934 | 11 | 1 | 4.8 | 11.3 | 0.00 | 0.00 | 0.00 | 74 | 1013.7 |
| 20260506230834 | 11 | 38 | 6.4 | 11.3 | 0.00 | 0.00 | 0.00 | 74 | 1013.7 |
| 20260506230734 | 11 | 3 | 6.4 | 11.3 | 0.00 | 0.00 | 0.00 | 74 | 1013.7 |
| 20260506230636 | 11 | 320 | 4.8 | 11.3 | 0.00 | 0.00 | 0.00 | 74 | 1013.7 |
| 20260506230537 | 11 | 4 | 6.4 | 11.3 | 0.00 | 0.00 | 0.00 | 74 | 1013.7 |
| 20260506230434 | 11 | 42 | 6.4 | 11.3 | 0.00 | 0.00 | 0.00 | 75 | 1013.8 |
| 20260506230335 | 11 | 44 | 4.8 | 11.3 | 0.00 | 0.00 | 0.00 | 75 | 1013.8 |
| 20260506230233 | 11 | 16 | 4.8 | 11.3 | 0.00 | 0.00 | 0.00 | 75 | 1013.7 |
| 20260506230135 | 11 | 4 | 4.8 | 11.3 | 0.00 | 0.00 | 0.00 | 75 | 1013.6 |
| 20260506230034 | 11 | 0 | 6.4 | 11.3 | 0.00 | 0.00 | 0.00 | 75 | 1013.6 |
| 20260506225934 | 11 | 351 | 6.4 | 11.3 | 0.00 | 0.00 | 0.00 | 76 | 1013.6 |
| 20260506225834 | 11 | 351 | 6.4 | 11.3 | 0.00 | 0.00 | 0.00 | 76 | 1013.6 |
| 20260506225735 | 11 | 10 | 4.8 | 8.0 | 0.00 | 0.00 | 0.00 | 76 | 1013.6 |
| 20260506225633 | 11 | 11 | 3.2 | 6.4 | 0.00 | 0.00 | 0.00 | 76 | 1013.6 |
| 20260506225534 | 11 | 13 | 3.2 | 6.4 | 0.00 | 0.00 | 0.00 | 76 | 1013.6 |
| 20260506225433 | 11 | 13 | 3.2 | 6.4 | 0.00 | 0.00 | 0.00 | 76 | 1013.6 |
| 20260506225334 | 11 | 13 | 3.2 | 6.4 | 0.00 | 0.00 | 0.00 | 76 | 1013.6 |
| 20260506225234 | 11 | 13 | 3.2 | 4.8 | 0.00 | 0.00 | 0.00 | 76 | 1013.6 |
| 20260506225134 | 11 | 13 | 1.6 | 4.8 | 0.00 | 0.00 | 0.00 | 76 | 1013.6 |
| 20260506225034 | 11 | 13 | 1.6 | 4.8 | 0.00 | 0.00 | 0.00 | 76 | 1013.6 |
| 20260506224934 | 11 | 13 | 1.6 | 4.8 | 0.00 | 0.00 | 0.00 | 76 | 1013.7 |
| 20260506224833 | 11 | 13 | 1.6 | 6.4 | 0.00 | 0.00 | 0.00 | 76 | 1013.7 |
| 20260506224734 | 11 | 13 | 3.2 | 6.4 | 0.00 | 0.00 | 0.00 | 76 | 1013.6 |
| 20260506224635 | 11 | 13 | 1.6 | 9.7 | 0.00 | 0.00 | 0.00 | 76 | 1013.6 |
| 20260506224535 | 12 | 13 | 1.6 | 9.7 | 0.00 | 0.00 | 0.00 | 76 | 1013.6 |
| 20260506224436 | 12 | 13 | 1.6 | 9.7 | 0.00 | 0.00 | 0.00 | 76 | 1013.6 |
| 20260506224336 | 12 | 13 | 1.6 | 9.7 | 0.00 | 0.00 | 0.00 | 76 | 1013.7 |
| 20260506224236 | 12 | 13 | 1.6 | 9.7 | 0.00 | 0.00 | 0.00 | 76 | 1013.6 |
| 20260506224134 | 12 | 13 | 1.6 | 9.7 | 0.00 | 0.00 | 0.00 | 76 | 1013.6 |
| 20260506224036 | 12 | 13 | 3.2 | 9.7 | 0.00 | 0.00 | 0.00 | 76 | 1013.5 |
| 20260506223934 | 12 | 13 | 4.8 | 9.7 | 0.00 | 0.00 | 0.00 | 76 | 1013.6 |
| 20260506223834 | 12 | 13 | 6.4 | 9.7 | 0.00 | 0.00 | 0.00 | 76 | 1013.6 |
| 20260506223735 | 12 | 11 | 6.4 | 11.3 | 0.00 | 0.00 | 0.00 | 76 | 1013.6 |
| 20260506223634 | 12 | 30 | 4.8 | 11.3 | 0.00 | 0.00 | 0.00 | 76 | 1013.6 |
| 20260506223535 | 12 | 30 | 3.2 | 11.3 | 0.00 | 0.00 | 0.00 | 75 | 1013.5 |
| 20260506223434 | 12 | 30 | 3.2 | 11.3 | 0.00 | 0.00 | 0.00 | 75 | 1013.5 |
| 20260506223334 | 12 | 30 | 3.2 | 11.3 | 0.00 | 0.00 | 0.00 | 75 | 1013.6 |
| 20260506223234 | 12 | 31 | 6.4 | 11.3 | 0.00 | 0.00 | 0.00 | 75 | 1013.5 |
| 20260506223134 | 12 | 31 | 4.8 | 11.3 | 0.00 | 0.00 | 0.00 | 75 | 1013.5 |
| 20260506223034 | 12 | 28 | 4.8 | 11.3 | 0.00 | 0.00 | 0.00 | 75 | 1013.5 |
| 20260506222934 | 12 | 0 | 6.4 | 11.3 | 0.00 | 0.00 | 0.00 | 75 | 1013.5 |
| 20260506222834 | 12 | 1 | 6.4 | 11.3 | 0.00 | 0.00 | 0.00 | 76 | 1013.6 |
| 20260506222734 | 12 | 0 | 3.2 | 11.3 | 0.00 | 0.00 | 0.00 | 76 | 1013.6 |
| 20260506222638 | 12 | 0 | 4.8 | 11.3 | 0.00 | 0.00 | 0.00 | 76 | 1013.4 |
| 20260506222535 | 12 | 0 | 6.4 | 11.3 | 0.00 | 0.00 | 0.00 | 76 | 1013.5 |
| 20260506222435 | 12 | 11 | 6.4 | 11.3 | 0.00 | 0.00 | 0.00 | 76 | 1013.5 |
| 20260506222335 | 12 | 24 | 6.4 | 11.3 | 0.00 | 0.00 | 0.00 | 76 | 1013.5 |
| 20260506222234 | 12 | 35 | 6.4 | 11.3 | 0.00 | 0.00 | 0.00 | 76 | 1013.5 |
| 20260506222134 | 12 | 7 | 4.8 | 9.7 | 0.00 | 0.00 | 0.00 | 76 | 1013.5 |
| 20260506222034 | 12 | 4 | 4.8 | 9.7 | 0.00 | 0.00 | 0.00 | 76 | 1013.5 |
| 20260506221934 | 12 | 4 | 3.2 | 9.7 | 0.00 | 0.00 | 0.00 | 76 | 1013.5 |
| 20260506221835 | 12 | 11 | 3.2 | 9.7 | 0.00 | 0.00 | 0.00 | 76 | 1013.4 |
| 20260506221734 | 12 | 11 | 4.8 | 9.7 | 0.00 | 0.00 | 0.00 | 76 | 1013.4 |
| 20260506221634 | 12 | 0 | 6.4 | 11.3 | 0.00 | 0.00 | 0.00 | 76 | 1013.5 |
| 20260506221534 | 12 | 17 | 6.4 | 11.3 | 0.00 | 0.00 | 0.00 | 77 | 1013.4 |
| 20260506221434 | 12 | 341 | 8.0 | 11.3 | 0.00 | 0.00 | 0.00 | 77 | 1013.4 |
| 20260506221334 | 12 | 3 | 6.4 | 11.3 | 0.00 | 0.00 | 0.00 | 77 | 1013.4 |
| 20260506221234 | 12 | 21 | 4.8 | 14.5 | 0.00 | 0.00 | 0.00 | 77 | 1013.4 |
| 20260506221134 | 12 | 31 | 4.8 | 14.5 | 0.00 | 0.00 | 0.00 | 77 | 1013.4 |
| 20260506221036 | 12 | 6 | 4.8 | 14.5 | 0.00 | 0.00 | 0.00 | 77 | 1013.4 |
| 20260506220936 | 12 | 23 | 6.4 | 14.5 | 0.00 | 0.00 | 0.00 | 77 | 1013.4 |
| 20260506220836 | 12 | 353 | 6.4 | 14.5 | 0.00 | 0.00 | 0.00 | 77 | 1013.4 |
| 20260506220736 | 12 | 353 | 6.4 | 14.5 | 0.00 | 0.00 | 0.00 | 78 | 1013.4 |
| 20260506220635 | 12 | 1 | 6.4 | 14.5 | 0.00 | 0.00 | 0.00 | 78 | 1013.3 |
| 20260506220536 | 12 | 351 | 6.4 | 14.5 | 0.00 | 0.00 | 0.00 | 78 | 1013.3 |
| 20260506220434 | 12 | 13 | 8.0 | 14.5 | 0.00 | 0.00 | 0.00 | 78 | 1013.3 |
| 20260506220334 | 12 | 347 | 6.4 | 14.5 | 0.00 | 0.00 | 0.00 | 78 | 1013.3 |
| 20260506220234 | 12 | 337 | 6.4 | 14.5 | 0.00 | 0.00 | 0.00 | 78 | 1013.3 |
| 20260506220134 | 12 | 0 | 4.8 | 14.5 | 0.00 | 0.00 | 0.00 | 78 | 1013.3 |
| 20260506220034 | 12 | 357 | 6.4 | 14.5 | 0.00 | 0.00 | 0.00 | 78 | 1013.3 |
| 20260506215935 | 12 | 0 | 6.4 | 14.5 | 0.00 | 0.00 | 0.00 | 78 | 1013.3 |
| 20260506215833 | 12 | 0 | 6.4 | 14.5 | 0.00 | 0.00 | 0.00 | 78 | 1013.3 |
| 20260506215734 | 12 | 1 | 6.4 | 14.5 | 0.00 | 0.00 | 0.00 | 78 | 1013.4 |
| 20260506215633 | 12 | 7 | 8.0 | 16.1 | 0.00 | 0.00 | 0.00 | 78 | 1013.4 |
| 20260506215535 | 12 | 0 | 9.7 | 16.1 | 0.00 | 0.00 | 0.00 | 78 | 1013.3 |
| 20260506215434 | 12 | 4 | 9.7 | 16.1 | 0.00 | 0.00 | 0.00 | 78 | 1013.2 |
| 20260506215334 | 12 | 11 | 8.0 | 16.1 | 0.00 | 0.00 | 0.00 | 78 | 1013.2 |
| 20260506215235 | 12 | 0 | 8.0 | 16.1 | 0.00 | 0.00 | 0.00 | 79 | 1013.4 |
| 20260506215135 | 12 | 353 | 6.4 | 16.1 | 0.00 | 0.00 | 0.00 | 79 | 1013.3 |
| 20260506215035 | 12 | 0 | 6.4 | 16.1 | 0.00 | 0.00 | 0.00 | 79 | 1013.3 |
| 20260506214936 | 12 | 337 | 8.0 | 16.1 | 0.00 | 0.00 | 0.00 | 79 | 1013.3 |
| 20260506214837 | 12 | 6 | 8.0 | 16.1 | 0.00 | 0.00 | 0.00 | 79 | 1013.3 |
| 20260506214736 | 12 | 7 | 8.0 | 16.1 | 0.00 | 0.00 | 0.00 | 79 | 1013.4 |
| 20260506214636 | 12 | 1 | 8.0 | 11.3 | 0.00 | 0.00 | 0.00 | 79 | 1013.3 |
| 20260506214537 | 12 | 18 | 6.4 | 11.3 | 0.00 | 0.00 | 0.00 | 79 | 1013.3 |
| 20260506214435 | 12 | 0 | 6.4 | 11.3 | 0.00 | 0.00 | 0.00 | 79 | 1013.2 |
| 20260506214334 | 12 | 0 | 6.4 | 14.5 | 0.00 | 0.00 | 0.00 | 79 | 1013.3 |
| 20260506214234 | 12 | 357 | 6.4 | 14.5 | 0.00 | 0.00 | 0.00 | 79 | 1013.3 |
| 20260506214134 | 12 | 0 | 6.4 | 14.5 | 0.00 | 0.00 | 0.00 | 79 | 1013.3 |
| 20260506214034 | 12 | 0 | 6.4 | 14.5 | 0.00 | 0.00 | 0.00 | 79 | 1013.3 |
| 20260506213934 | 12 | 0 | 8.0 | 14.5 | 0.00 | 0.00 | 0.00 | 79 | 1013.2 |
| 20260506213834 | 12 | 345 | 6.4 | 14.5 | 0.00 | 0.00 | 0.00 | 78 | 1013.3 |
| 20260506213735 | 12 | 0 | 4.8 | 14.5 | 0.00 | 0.00 | 0.00 | 78 | 1013.3 |
| 20260506213633 | 12 | 0 | 6.4 | 14.5 | 0.00 | 0.00 | 0.00 | 79 | 1013.3 |
| 20260506213534 | 12 | 0 | 8.0 | 14.5 | 0.00 | 0.00 | 0.00 | 79 | 1013.3 |
| 20260506213434 | 12 | 0 | 8.0 | 14.5 | 0.00 | 0.00 | 0.00 | 79 | 1013.2 |
| 20260506213334 | 12 | 344 | 8.0 | 14.5 | 0.00 | 0.00 | 0.00 | 79 | 1013.2 |
| 20260506213234 | 12 | 3 | 6.4 | 14.5 | 0.00 | 0.00 | 0.00 | 78 | 1013.2 |
| 20260506213134 | 12 | 0 | 6.4 | 14.5 | 0.00 | 0.00 | 0.00 | 78 | 1013.2 |
| 20260506213034 | 12 | 0 | 8.0 | 14.5 | 0.00 | 0.00 | 0.00 | 78 | 1013.2 |
| 20260506212936 | 12 | 10 | 8.0 | 14.5 | 0.00 | 0.00 | 0.00 | 78 | 1013.2 |
| 20260506212839 | 12 | 14 | 6.4 | 16.1 | 0.00 | 0.00 | 0.00 | 78 | 1013.2 |
| 20260506212736 | 12 | 0 | 6.4 | 16.1 | 0.00 | 0.00 | 0.00 | 78 | 1013.2 |
| 20260506212636 | 12 | 355 | 8.0 | 16.1 | 0.00 | 0.00 | 0.00 | 78 | 1013.2 |
| 20260506212537 | 12 | 350 | 8.0 | 16.1 | 0.00 | 0.00 | 0.00 | 78 | 1013.2 |
| 20260506212436 | 12 | 0 | 8.0 | 16.1 | 0.00 | 0.00 | 0.00 | 79 | 1013.2 |
| 20260506212335 | 12 | 354 | 6.4 | 16.1 | 0.00 | 0.00 | 0.00 | 79 | 1013.2 |
| 20260506212235 | 12 | 0 | 8.0 | 16.1 | 0.00 | 0.00 | 0.00 | 79 | 1013.1 |
| 20260506212135 | 12 | 6 | 8.0 | 16.1 | 0.00 | 0.00 | 0.00 | 79 | 1013.1 |
| 20260506212036 | 12 | 24 | 9.7 | 16.1 | 0.00 | 0.00 | 0.00 | 79 | 1013.2 |
| 20260506211934 | 12 | 0 | 8.0 | 16.1 | 0.00 | 0.00 | 0.00 | 79 | 1013.2 |
| 20260506211834 | 12 | 6 | 6.4 | 14.5 | 0.00 | 0.00 | 0.00 | 79 | 1013.1 |
| 20260506211734 | 12 | 13 | 6.4 | 14.5 | 0.00 | 0.00 | 0.00 | 79 | 1013.1 |
| 20260506211635 | 12 | 7 | 6.4 | 14.5 | 0.00 | 0.00 | 0.00 | 79 | 1013.1 |
| 20260506211535 | 12 | 35 | 6.4 | 16.1 | 0.00 | 0.00 | 0.00 | 78 | 1013.2 |
| 20260506211434 | 12 | 1 | 6.4 | 16.1 | 0.00 | 0.00 | 0.00 | 78 | 1013.2 |
| 20260506211334 | 12 | 337 | 6.4 | 16.1 | 0.00 | 0.00 | 0.00 | 78 | 1013.1 |
| 20260506211234 | 12 | 6 | 8.0 | 16.1 | 0.00 | 0.00 | 0.00 | 78 | 1013.1 |
| 20260506211133 | 12 | 0 | 8.0 | 16.1 | 0.00 | 0.00 | 0.00 | 78 | 1013.0 |
| 20260506211034 | 12 | 0 | 8.0 | 16.1 | 0.00 | 0.00 | 0.00 | 78 | 1013.1 |
| 20260506210934 | 12 | 357 | 6.4 | 16.1 | 0.00 | 0.00 | 0.00 | 78 | 1013.1 |
| 20260506210835 | 12 | 3 | 6.4 | 16.1 | 0.00 | 0.00 | 0.00 | 79 | 1013.1 |
| 20260506210735 | 12 | 7 | 8.0 | 16.1 | 0.00 | 0.00 | 0.00 | 79 | 1013.1 |
| 20260506210638 | 12 | 358 | 8.0 | 16.1 | 0.00 | 0.00 | 0.00 | 79 | 1013.0 |
| 20260506210535 | 12 | 3 | 8.0 | 11.3 | 0.00 | 0.00 | 0.00 | 79 | 1013.0 |
| 20260506210436 | 12 | 0 | 6.4 | 11.3 | 0.00 | 0.00 | 0.00 | 79 | 1013.0 |
| 20260506210336 | 12 | 337 | 6.4 | 11.3 | 0.00 | 0.00 | 0.00 | 79 | 1013.1 |
| 20260506210233 | 12 | 330 | 4.8 | 11.3 | 0.00 | 0.00 | 0.00 | 79 | 1013.1 |
| 20260506210135 | 12 | 0 | 3.2 | 11.3 | 0.00 | 0.00 | 0.00 | 79 | 1013.1 |
| 20260506210034 | 12 | 0 | 4.8 | 11.3 | 0.00 | 0.00 | 0.00 | 79 | 1013.1 |
| 20260506205943 | 12 | 0 | 6.4 | 11.3 | 0.00 | 0.00 | 0.00 | 79 | 1013.1 |
| 20260506205834 | 12 | 6 | 6.4 | 11.3 | 0.00 | 0.00 | 0.00 | 79 | 1013.1 |
| 20260506205733 | 12 | 0 | 6.4 | 11.3 | 0.00 | 0.00 | 0.00 | 79 | 1013.1 |
| 20260506205633 | 12 | 0 | 6.4 | 11.3 | 0.00 | 0.00 | 0.00 | 79 | 1013.1 |
| 20260506205533 | 12 | 0 | 4.8 | 11.3 | 0.00 | 0.00 | 0.00 | 79 | 1013.1 |
| 20260506205435 | 12 | 0 | 4.8 | 11.3 | 0.00 | 0.00 | 0.00 | 79 | 1013.1 |
| 20260506205334 | 12 | 353 | 4.8 | 11.3 | 0.00 | 0.00 | 0.00 | 79 | 1013.1 |
| 20260506205234 | 12 | 0 | 6.4 | 11.3 | 0.00 | 0.00 | 0.00 | 79 | 1013.0 |
| 20260506205134 | 12 | 0 | 8.0 | 11.3 | 0.00 | 0.00 | 0.00 | 79 | 1013.0 |
| 20260506205034 | 12 | 353 | 6.4 | 14.5 | 0.00 | 0.00 | 0.00 | 79 | 1013.1 |
| 20260506204933 | 12 | 0 | 6.4 | 14.5 | 0.00 | 0.00 | 0.00 | 79 | 1013.0 |
| 20260506204833 | 12 | 0 | 6.4 | 14.5 | 0.00 | 0.00 | 0.00 | 79 | 1013.1 |
| 20260506204734 | 12 | 4 | 4.8 | 14.5 | 0.00 | 0.00 | 0.00 | 79 | 1013.0 |
| 20260506204636 | 12 | 4 | 6.4 | 14.5 | 0.00 | 0.00 | 0.00 | 79 | 1013.0 |
| 20260506204536 | 12 | 0 | 6.4 | 14.5 | 0.00 | 0.00 | 0.00 | 79 | 1013.0 |
| 20260506204435 | 12 | 10 | 6.4 | 14.5 | 0.00 | 0.00 | 0.00 | 80 | 1013.0 |
| 20260506204336 | 12 | 13 | 8.0 | 14.5 | 0.00 | 0.00 | 0.00 | 80 | 1013.0 |
| 20260506204235 | 12 | 31 | 8.0 | 14.5 | 0.00 | 0.00 | 0.00 | 80 | 1012.9 |
| 20260506204135 | 12 | 8 | 6.4 | 14.5 | 0.00 | 0.00 | 0.00 | 80 | 1013.0 |
| 20260506204034 | 12 | 355 | 8.0 | 14.5 | 0.00 | 0.00 | 0.00 | 80 | 1013.0 |
| 20260506203933 | 12 | 358 | 9.7 | 14.5 | 0.00 | 0.00 | 0.00 | 80 | 1013.0 |
| 20260506203834 | 12 | 0 | 8.0 | 11.3 | 0.00 | 0.00 | 0.00 | 80 | 1012.9 |
| 20260506203734 | 12 | 340 | 6.4 | 11.3 | 0.00 | 0.00 | 0.00 | 80 | 1012.9 |
| 20260506203634 | 12 | 0 | 8.0 | 11.3 | 0.00 | 0.00 | 0.00 | 80 | 1013.0 |
| 20260506203534 | 12 | 0 | 6.4 | 11.3 | 0.00 | 0.00 | 0.00 | 80 | 1012.9 |
| 20260506203434 | 12 | 0 | 6.4 | 11.3 | 0.00 | 0.00 | 0.00 | 80 | 1012.9 |
| 20260506203334 | 12 | 340 | 6.4 | 11.3 | 0.00 | 0.00 | 0.00 | 80 | 1013.0 |
| 20260506203234 | 12 | 0 | 4.8 | 11.3 | 0.00 | 0.00 | 0.00 | 80 | 1013.0 |
| 20260506203134 | 12 | 0 | 4.8 | 11.3 | 0.00 | 0.00 | 0.00 | 80 | 1012.9 |
| 20260506203034 | 12 | 0 | 6.4 | 11.3 | 0.00 | 0.00 | 0.00 | 80 | 1012.9 |
| 20260506202935 | 12 | 7 | 4.8 | 11.3 | 0.00 | 0.00 | 0.00 | 80 | 1012.8 |
| 20260506202834 | 12 | 0 | 4.8 | 11.3 | 0.00 | 0.00 | 0.00 | 80 | 1012.9 |
| 20260506202734 | 12 | 0 | 8.0 | 11.3 | 0.00 | 0.00 | 0.00 | 80 | 1012.9 |
| 20260506202633 | 12 | 1 | 6.4 | 11.3 | 0.00 | 0.00 | 0.00 | 80 | 1012.9 |